[[{"header":{"parameterUnit":"m.s-1","parameterCategory":1,"la1":31.0,"la2":29.5877,"lo1":-88.7671,"lo2":-86.6584,"dx":0.0162,"dy":0.0185,"nx":115,"ny":88,"refTime":"2022-12-02T06:00:00:Z","depth":0,"parameterNumber":2,"parameterNumberName":"U-component_of_WINDS"},"data":[0.0,0.0,0.0,0.0,0.0,0.0,0.0,0.0,0.0,0.0,0.0,0.0,0.0,0.0,0.0,0.0,0.0,0.0,0.0,0.0,0.0,0.0,0.0,0.0,0.0,0.0,0.0,0.0,0.0,0.0,0.0,0.0,0.0,0.0,0.0,0.0,0.0,0.0,0.0,0.0,0.0,0.0,0.0,0.0,0.0,0.0,0.0,0.0,0.0,0.0,0.0,0.0,0.0,0.0,0.0,0.0,0.0,0.0,0.0,0.0,0.0,0.0,0.0,0.0,0.0,0.0,0.0,0.0,0.0,0.0,0.0,0.0,0.0,0.0,0.0,0.0,0.0,0.0,0.0,0.0,0.0,0.0,0.0,0.0,0.0,0.0,0.0,0.0,0.0,0.0,0.0,0.0,0.0,0.0,0.0,0.0,0.0,0.0,0.0,0.0,0.0,0.0,0.0,0.0,0.0,0.0,0.0,0.0,0.0,0.0,0.0,0.0,0.0,0.0,0.0,0.0,0.0,0.0,0.0,0.0,0.0,0.0,0.0,0.0,0.0,0.0,0.0,0.0,0.0,0.0,0.0,0.0,0.0,0.0,0.0,0.0,0.0,0.0,0.0,0.0,0.0,0.0,0.0,0.0,0.0,0.0,0.0,0.0,0.0,0.0,0.0,0.0,0.0,0.0,0.0,0.0,0.0,0.0,0.0,0.0,0.0,0.0,0.0,0.0,0.0,0.0,0.0,0.0,0.0,0.0,0.0,0.0,0.0,0.0,0.0,0.0,0.0,0.0,0.0,0.0,0.0,0.0,0.0,0.0,0.0,0.0,0.0,0.0,0.0,0.0,0.0,0.0,0.0,0.0,0.0,0.0,0.0,0.0,0.0,0.0,0.0,0.0,0.0,0.0,0.0,0.0,0.0,0.0,0.0,0.0,0.0,0.0,0.0,0.0,0.0,0.0,0.0,0.0,0.0,0.0,0.0,0.0,0.0,0.0,0.0,0.0,0.0,0.0,0.0,0.0,0.0,0.0,0.0,0.0,0.0,0.0,0.0,0.0,0.0,0.0,0.0,0.0,0.0,0.0,0.0,0.0,0.0,0.0,0.0,0.0,0.0,0.0,0.0,0.0,0.0,0.0,0.0,0.0,0.0,0.0,0.0,0.0,0.0,0.0,0.0,0.0,0.0,0.0,0.0,0.0,0.0,0.0,0.0,0.0,0.0,0.0,0.0,0.0,0.0,0.0,0.0,0.0,0.0,0.0,0.0,0.0,0.0,0.0,0.0,0.0,0.0,0.0,0.0,0.0,0.0,0.0,0.0,0.0,0.0,0.0,0.0,0.0,0.0,0.0,0.0,0.0,0.0,0.0,0.0,0.0,0.0,0.0,0.0,0.0,0.0,0.0,0.0,0.0,0.0,0.0,0.0,0.0,0.0,0.0,0.0,0.0,0.0,0.0,0.0,0.0,0.0,0.0,0.0,0.0,0.0,0.0,0.0,0.0,0.0,0.0,0.0,0.0,0.0,0.0,0.0,0.0,0.0,0.0,0.0,0.0,0.0,0.0,0.0,0.0,0.0,0.0,0.0,0.0,0.0,0.0,0.0,0.0,0.0,0.0,0.0,0.0,0.0,0.0,0.0,0.0,0.0,0.0,0.0,0.0,0.0,0.0,0.0,0.0,0.0,0.0,0.0,0.0,0.0,0.0,0.0,0.0,0.0,0.0,0.0,0.0,0.0,0.0,0.0,0.0,0.0,0.0,0.0,0.0,0.0,0.0,0.0,0.0,0.0,0.0,0.0,0.0,0.0,0.0,0.0,0.0,0.0,0.0,0.0,0.0,0.0,0.0,0.0,0.0,0.0,0.0,0.0,0.0,0.0,0.0,0.0,0.0,0.0,0.0,0.0,0.0,0.0,0.0,0.0,0.0,0.0,0.0,0.0,0.0,0.0,0.0,0.0,0.0,0.0,0.0,0.0,0.0,0.0,0.0,0.0,0.0,0.0,0.0,0.0,0.0,0.0,0.0,0.0,0.0,0.0,0.0,0.0,0.0,0.0,0.0,0.0,0.0,0.0,0.0,0.0,0.0,0.0,0.0,0.0,0.0,0.0,0.0,0.0,0.0,0.0,0.0,0.0,0.0,0.0,0.0,0.0,0.0,0.0,0.0,0.0,0.0,0.0,0.0,0.0,0.0,0.0,0.0,0.0,0.0,0.0,0.0,0.0,0.0,0.0,0.0,0.0,0.0,0.0,0.0,0.0,0.0,0.0,0.0,0.0,0.0,0.0,0.0,0.0,0.0,0.0,0.0,0.0,0.0,0.0,0.0,0.0,0.0,0.0,0.0,0.0,0.0,0.0,0.0,0.0,0.0,0.0,0.0,0.0,0.0,0.0,0.0,0.0,0.0,0.0,0.0,0.0,0.0,0.0,0.0,0.0,0.0,0.0,0.0,0.0,0.0,0.0,0.0,0.0,0.0,0.0,0.0,0.0,0.0,0.0,0.0,0.0,0.0,0.0,0.0,0.0,0.0,0.0,0.0,0.0,0.0,0.0,0.0,0.0,0.0,0.0,0.0,0.0,0.0,0.0,0.0,0.0,0.0,0.0,0.0,0.0,0.0,0.0,0.0,0.0,0.0,0.0,0.0,0.0,0.0,0.0,0.0,0.0,0.0,0.0,0.0,0.0,0.0,0.0,0.0,0.0,0.0,0.0,0.0,0.0,0.0,0.0,0.0,0.0,0.0,0.0,0.0,0.0,0.0,0.0,0.0,0.0,0.0,0.0,0.0,0.0,0.0,0.0,0.0,0.0,0.0,0.0,0.0,0.0,0.0,0.0,0.0,0.0,0.0,0.0,0.0,0.0,0.0,0.0,0.0,0.0,0.0,0.0,0.0,0.0,0.0,0.0,0.0,0.0,0.0,0.0,0.0,0.0,0.0,0.0,0.0,0.0,0.0,0.0,0.0,0.0,0.0,0.0,0.0,0.0,0.0,0.0,0.0,0.0,0.0,0.0,0.0,0.0,0.0,0.0,0.0,0.0,0.0,0.0,0.0,0.0,0.0,0.0,0.0,0.0,0.0,0.0,0.0,0.0,0.0,0.0,0.0,0.0,0.0,0.0,0.0,0.0,0.0,0.0,0.0,0.0,0.0,0.0,0.0,0.0,0.0,0.0,0.0,0.0,0.0,0.0,0.0,0.0,0.0,0.0,0.0,0.0,0.0,0.0,0.0,0.0,0.0,0.0,0.0,0.0,0.0,0.0,0.0,0.0,0.0,0.0,0.0,0.0,0.0,0.0,0.0,0.0,0.0,0.0,0.0,0.0,0.0,0.0,0.0,0.0,0.0,0.0,0.0,0.0,0.0,0.0,0.0,0.0,0.0,0.0,0.0,0.0,0.0,0.0,0.0,0.0,0.0,0.0,0.0,0.0,0.0,0.0,0.0,0.0,0.0,0.0,0.0,0.0,0.0,0.0,0.0,0.0,0.0,0.0,0.0,0.0,0.0,0.0,0.0,0.0,0.0,0.0,0.0,0.0,0.0,0.0,0.0,0.0,0.0,0.0,0.0,0.0,0.0,0.0,0.0,0.0,0.0,0.0,0.0,0.0,0.0,0.0,0.0,0.0,0.0,0.0,0.0,0.0,0.0,0.0,0.0,0.0,0.0,0.0,0.0,0.0,0.0,0.0,0.0,0.0,0.0,0.0,0.0,0.0,0.0,0.0,0.0,0.0,0.0,0.0,0.0,0.0,0.0,0.0,0.0,0.0,0.0,0.0,0.0,0.0,0.0,0.0,0.0,0.0,0.0,0.0,0.0,0.0,0.0,0.0,0.0,0.0,0.0,0.0,0.0,0.0,0.0,0.0,0.0,0.0,0.0,0.0,0.0,0.0,0.0,0.0,0.0,0.0,0.0,0.0,0.0,0.0,0.0,0.0,0.0,0.0,0.0,0.0,0.0,0.0,0.0,0.0,0.0,0.0,0.0,0.0,0.0,0.0,0.0,0.0,0.0,0.0,0.0,0.0,0.0,0.0,0.0,0.0,0.0,0.0,0.0,0.0,0.0,0.0,0.0,0.0,0.0,0.0,0.0,0.0,0.0,0.0,0.0,0.0,0.0,0.0,0.0,0.0,0.0,0.0,0.0,0.0,0.0,0.0,0.0,0.0,0.0,0.0,0.0,0.0,0.0,0.0,0.0,0.0,0.0,0.0,0.0,0.0,0.0,0.0,0.0,0.0,0.0,0.0,0.0,0.0,0.0,0.0,0.0,1.1432,0.0,0.0,0.0,0.9071,0.0,0.0,0.0,0.0,0.0,0.0,0.0,0.0,0.0,0.0,0.0,0.0,0.0,0.0,0.0,0.0,0.0,0.0,0.0,0.0,0.0,0.0,0.0,0.0,0.0,0.0,0.0,0.0,0.0,0.0,0.0,0.0,0.0,0.0,0.0,0.0,0.0,0.0,0.0,0.0,0.0,0.0,0.0,0.0,0.0,0.0,0.0,0.0,0.0,0.0,0.0,0.0,0.0,0.0,0.0,0.0,0.0,0.0,0.0,0.0,0.0,0.0,0.0,0.0,0.0,0.0,0.0,0.0,0.0,0.0,0.0,0.0,0.0,0.0,0.0,0.0,0.0,0.0,0.0,0.0,0.0,0.0,0.0,0.0,0.0,0.0,0.0,0.0,0.0,0.0,0.0,0.0,0.0,0.0,0.0,0.0,0.0,0.0,0.0,0.0,0.0,0.0,0.0,0.0,0.0,0.0,0.0,0.0,0.0,0.0,1.1434,0.9894,1.1863,1.1393,0.8067,0.0,0.0,0.0,0.0,0.0,0.0,0.0,0.0,0.0,0.0,0.0,0.0,0.0,0.0,0.0,0.0,0.0,0.0,0.0,0.0,0.0,0.0,0.0,0.0,0.0,0.0,0.0,0.0,0.0,0.0,0.0,0.0,0.0,0.0,0.0,0.0,0.0,0.0,0.0,0.0,0.0,0.0,0.0,0.0,0.0,0.0,0.0,0.0,0.0,0.0,0.0,0.0,0.0,0.0,0.0,0.0,0.0,0.0,0.0,0.0,0.0,0.0,0.0,0.0,0.0,0.0,0.0,0.0,0.0,0.0,0.0,0.0,0.0,0.0,0.0,0.0,0.0,0.0,0.0,0.0,0.0,0.0,0.0,0.0,0.0,0.0,0.0,0.0,0.0,0.0,0.0,0.0,0.0,0.0,0.0,0.0,0.0,0.0,0.0,0.0,0.0,0.0,0.0,0.0,0.0,0.0,0.0,0.0,0.0,0.0,0.0,0.0,1.1762,1.1187,0.8057,0.0,0.0,0.0,0.0,0.0,0.0,0.0,0.0,0.0,0.0,0.0,0.0,0.0,0.0,0.0,0.0,0.0,0.0,0.0,0.0,0.0,0.0,0.0,0.0,0.0,0.0,0.0,0.0,0.0,0.0,0.0,0.0,0.0,0.0,0.0,0.0,0.0,0.0,0.0,0.0,0.0,0.0,0.0,0.0,0.0,0.0,0.0,0.0,0.0,0.0,0.0,0.0,0.0,0.0,0.0,0.0,0.0,0.0,0.0,0.0,0.0,0.0,0.0,0.0,0.0,0.0,0.0,0.0,0.0,0.0,0.0,0.0,0.0,0.0,0.0,0.0,0.0,0.0,0.0,0.0,0.0,0.0,0.0,0.0,0.0,0.0,0.0,0.0,0.0,0.0,0.0,0.0,0.0,0.0,0.0,0.0,0.0,0.0,0.0,0.0,0.0,0.0,0.0,0.0,0.0,0.0,0.0,0.0,0.0,0.0,0.8743,1.0819,1.0468,0.0,0.9612,0.0,0.0,0.0,0.0,0.0,0.0,0.0,0.0,0.0,0.0,0.0,0.0,0.0,0.0,0.0,0.0,0.0,0.0,0.0,0.0,0.0,0.0,0.0,0.0,0.0,0.0,0.0,0.0,0.0,0.0,0.0,0.0,0.0,0.0,0.0,0.0,0.0,0.0,0.0,0.0,0.0,0.0,0.0,0.0,0.0,0.0,0.0,0.0,0.0,0.0,0.0,0.0,0.0,0.0,0.0,0.0,0.0,0.0,0.0,0.0,0.0,0.0,0.0,0.0,0.0,0.0,0.0,0.0,0.0,0.0,0.0,0.0,0.0,0.0,0.0,0.0,0.0,0.0,0.0,0.0,0.0,0.0,0.0,0.0,0.0,0.0,0.0,0.0,0.0,0.0,0.0,0.0,0.0,0.0,0.0,0.0,0.0,0.0,0.0,0.0,0.0,0.0,0.0,0.0,0.0,0.0,0.0,0.0,0.0,0.0,0.9745,1.0289,0.95,0.9059,0.0,0.0,0.0,0.0,0.0,0.0,0.0,0.0,0.0,0.0,0.0,0.0,0.0,0.0,0.0,0.0,0.0,0.0,0.0,0.0,0.0,0.0,0.0,0.0,0.0,0.0,0.0,0.0,0.0,0.0,0.0,0.0,0.0,0.0,0.0,0.0,0.0,0.0,0.0,0.0,0.0,0.0,0.0,0.0,0.0,0.0,0.0,0.0,0.0,0.0,0.0,0.0,0.0,0.0,0.0,0.0,0.0,0.0,0.0,0.0,0.0,0.0,0.0,0.0,0.0,0.0,0.0,0.0,0.0,0.0,0.0,0.0,0.0,0.0,0.0,0.0,0.0,0.0,0.0,0.0,0.0,0.0,0.0,0.0,0.0,0.0,0.0,0.0,0.0,0.0,0.0,0.0,0.0,0.0,0.0,0.0,0.0,0.0,0.0,0.0,0.0,0.0,0.0,0.0,0.0,0.0,0.0,0.0,0.0,0.0,0.9325,0.9952,0.9818,0.9866,0.9387,0.8242,0.0,0.0,0.0,0.0,0.0,0.0,0.0,0.0,0.0,0.0,0.0,0.0,0.0,0.0,0.0,0.0,0.0,0.0,0.0,0.0,0.0,0.0,0.0,0.0,0.0,0.0,0.0,0.0,0.0,0.0,0.0,0.0,0.0,0.0,0.0,0.0,0.0,0.0,0.0,0.0,0.0,0.0,0.0,0.0,0.0,0.0,0.0,0.0,0.0,0.0,0.0,0.0,0.0,0.0,0.0,0.0,0.0,0.0,0.0,0.0,0.0,0.0,0.0,0.0,0.0,0.0,0.0,0.0,0.0,0.0,0.0,0.0,0.0,0.0,0.0,0.0,0.0,0.0,0.0,0.0,0.0,0.0,0.0,0.0,0.0,0.0,0.0,0.0,0.0,0.0,0.0,0.0,0.0,0.0,0.0,0.0,0.0,0.0,0.0,0.0,0.0,0.0,0.0,0.0,0.0,0.0,0.0,0.0,0.9432,0.8296,0.8336,0.9994,1.214,1.1502,0.0,0.0,0.0,0.0,0.0,0.0,0.0,0.0,0.0,0.0,0.0,0.0,0.0,0.0,0.0,0.0,0.0,0.0,0.0,0.0,0.0,0.0,0.0,0.0,0.0,0.0,0.0,0.0,0.0,0.0,0.0,0.0,0.0,0.0,0.0,0.0,0.0,0.0,0.0,0.0,0.0,0.0,0.0,0.0,0.0,0.0,0.0,0.0,0.0,0.0,0.0,0.0,0.0,0.0,0.0,0.0,0.0,0.0,0.0,0.0,0.0,0.0,0.0,0.0,0.0,0.0,0.0,0.0,0.0,0.0,0.0,0.0,0.0,0.0,0.0,0.0,0.0,0.0,0.0,0.0,0.0,0.0,0.0,0.0,0.0,0.0,0.0,0.0,0.0,0.0,0.0,0.0,0.0,0.0,0.0,0.0,0.0,0.0,0.0,0.0,0.0,0.0,0.0,0.0,0.0,0.0,0.0,0.0,0.0,0.6611,0.713,0.9487,1.3564,1.1159,0.9907,0.0,0.0,0.0,0.0,0.0,0.0,0.0,0.0,0.0,0.0,0.0,0.0,0.0,0.0,0.0,0.0,0.0,0.0,0.0,0.0,0.0,0.0,0.0,0.0,0.0,0.0,0.0,0.0,0.0,0.0,0.0,0.0,0.0,0.0,0.0,0.0,0.0,0.0,0.0,0.0,0.0,0.0,0.0,0.0,0.0,0.0,0.0,0.0,0.0,0.0,0.0,0.0,0.0,0.0,0.0,0.0,0.0,0.0,0.0,0.0,0.0,0.0,0.0,0.0,0.0,0.0,0.0,0.0,0.0,0.0,0.0,0.0,0.0,0.0,0.0,0.0,0.0,0.0,0.0,0.0,0.0,0.0,0.0,0.0,0.0,0.0,0.0,0.0,0.0,0.0,0.0,0.0,0.0,0.0,0.0,0.0,0.0,0.0,0.0,0.0,0.0,0.0,0.0,0.0,0.0,0.0,0.0,0.0,0.0,0.7317,0.9487,1.2016,1.4578,1.1359,0.9582,0.0,0.0,0.0,0.0,0.0,0.0,0.0,0.0,0.0,0.0,0.0,0.0,0.0,0.0,0.0,0.0,0.0,0.0,0.0,0.0,0.0,0.0,0.0,0.0,0.0,0.0,0.0,0.0,0.0,0.0,0.0,0.0,0.0,0.0,0.0,0.0,0.0,0.0,0.0,0.0,0.0,0.0,0.0,0.0,0.0,0.0,0.0,0.0,0.0,0.0,0.0,0.0,0.0,0.0,0.0,0.0,0.0,0.0,0.0,0.0,0.0,0.0,0.0,0.0,0.0,0.0,0.0,0.0,0.0,0.0,0.0,0.0,0.0,0.0,0.0,0.0,0.0,0.0,0.0,0.0,0.0,0.0,0.0,0.0,0.0,0.0,0.0,0.0,0.0,0.0,0.0,0.0,0.0,0.0,0.0,0.0,0.0,0.0,0.0,0.0,0.0,0.0,0.0,0.0,0.0,0.0,0.0,0.0,0.7465,1.2098,1.533,1.5489,1.2632,1.3038,1.0814,0.0,0.0,0.0,0.0,0.0,0.0,0.0,0.0,0.0,0.0,0.0,0.0,0.0,0.0,0.0,0.0,0.0,0.0,0.0,0.0,0.0,0.0,0.0,0.0,0.0,0.0,0.0,0.0,0.0,0.0,0.0,0.0,0.0,0.0,0.0,0.0,0.0,0.0,0.0,0.0,0.0,0.0,0.0,0.0,0.0,0.0,0.0,0.0,0.0,0.0,0.0,0.0,0.0,0.0,0.0,0.0,0.0,0.0,0.0,0.0,0.0,0.0,0.0,0.0,0.0,0.0,0.0,0.0,0.0,0.0,0.0,0.0,0.0,0.0,0.0,0.0,0.0,0.0,0.0,0.0,0.0,0.0,0.0,0.0,0.0,0.0,0.0,0.0,0.0,0.0,0.0,0.0,0.0,0.0,0.0,0.0,0.0,0.0,0.0,0.0,0.0,0.0,0.0,0.0,0.0,0.0,0.0,0.0,0.0,0.916,1.3309,1.5386,1.4895,1.2403,1.1002,0.0,0.0,0.0,0.0,0.0,0.0,0.0,0.0,0.0,0.0,0.0,0.0,0.0,0.0,0.0,0.0,0.0,0.0,0.0,0.0,0.0,0.0,0.0,0.0,0.0,0.0,0.0,0.0,0.0,0.0,0.0,0.0,0.0,0.0,0.0,0.0,0.0,0.0,0.0,0.0,0.0,0.0,0.0,0.0,0.0,0.0,0.0,0.0,0.0,0.0,0.0,0.0,0.0,0.0,0.0,0.0,0.0,0.0,0.0,0.0,0.0,0.0,0.0,0.0,0.0,0.0,0.0,0.0,0.0,0.0,0.0,0.0,0.0,0.0,0.0,0.0,0.0,0.0,0.0,0.0,0.0,0.0,0.0,0.0,0.0,0.0,0.0,0.0,0.0,0.0,0.0,0.0,0.0,0.0,0.0,0.0,0.0,0.0,0.0,0.0,0.0,0.0,0.0,0.0,0.0,0.0,0.0,0.0,0.0,1.1515,1.5978,1.8166,1.7495,1.4025,1.2162,1.2068,0.0,0.0,0.0,0.0,0.0,0.0,0.0,0.0,0.0,0.0,0.0,0.0,0.0,0.0,0.0,0.0,0.0,0.0,0.0,0.0,0.0,0.0,0.0,0.0,0.0,0.0,0.0,0.0,0.0,0.0,0.0,0.0,0.0,0.0,0.0,0.0,0.0,0.0,0.0,0.0,0.0,0.0,0.0,0.0,0.0,0.0,0.0,0.0,0.0,0.0,0.0,0.0,0.0,0.0,0.0,0.0,0.0,0.0,0.0,0.0,0.0,0.0,0.0,0.0,0.0,0.0,0.0,0.0,0.0,0.0,0.0,0.0,0.0,0.0,0.0,0.0,0.0,0.0,0.0,0.0,0.0,0.0,0.0,0.0,0.0,0.0,0.0,0.0,0.0,0.0,0.0,0.0,0.0,0.0,0.0,0.0,0.0,0.0,0.0,0.0,0.0,0.0,0.0,0.0,0.0,0.0,0.0,0.0,1.7656,2.2243,2.3097,1.9982,1.7319,1.4148,0.0,0.0,0.0,0.0,0.0,0.0,0.0,0.0,0.0,0.0,0.0,0.0,0.0,0.0,0.0,0.0,0.0,0.0,0.0,0.0,0.0,0.0,0.0,0.0,0.0,0.0,0.0,0.0,0.0,0.0,0.0,0.0,0.0,0.0,0.0,0.0,0.0,0.0,0.0,0.0,0.0,0.0,0.0,0.0,0.0,0.0,0.0,0.0,0.0,0.0,0.0,0.0,0.0,0.0,0.0,0.0,0.0,0.0,0.0,0.0,0.0,0.0,0.0,0.0,0.0,0.0,0.0,0.0,0.0,0.0,0.0,0.0,0.0,0.0,0.0,0.0,0.0,0.0,0.0,0.0,0.0,0.0,0.0,0.0,0.0,0.0,0.0,0.0,0.0,0.0,0.0,0.0,0.0,0.0,0.0,0.0,0.0,0.0,0.0,0.0,0.0,0.0,0.0,0.0,0.0,0.0,0.0,0.0,0.0,2.08,2.3288,2.3571,2.1494,1.7845,1.5343,0.0,0.0,0.0,0.0,0.0,0.0,0.0,0.0,0.0,0.0,0.0,0.0,0.0,0.0,0.0,0.0,0.0,0.0,0.0,0.0,0.0,0.0,0.0,0.0,0.0,0.0,0.0,0.0,0.0,0.0,0.0,0.0,0.0,0.0,0.0,0.0,0.0,0.0,0.0,0.0,0.0,0.0,0.0,0.0,0.0,0.0,0.0,0.0,0.0,0.0,0.0,0.0,0.0,0.0,0.0,0.0,0.0,0.0,0.0,0.0,0.0,0.0,0.0,0.0,0.0,0.0,0.0,0.0,0.0,0.0,0.0,0.0,0.0,0.0,0.0,0.0,0.0,0.0,0.0,0.0,0.0,0.0,0.0,0.0,0.0,0.0,0.0,0.0,0.0,0.0,0.0,0.0,0.0,0.0,0.0,0.0,0.0,0.0,0.0,0.0,0.0,0.0,0.0,0.0,0.0,0.0,0.0,0.0,1.9244,2.3011,2.3959,2.3964,2.3033,1.9631,1.7127,0.0,0.0,0.0,0.0,0.0,0.0,0.0,0.0,0.0,0.0,0.0,0.0,0.0,0.0,0.0,0.0,0.0,0.0,0.0,0.0,0.0,0.0,0.0,0.0,0.0,0.0,0.0,0.0,0.0,0.0,0.0,0.0,0.0,0.0,0.0,0.0,0.0,0.0,0.0,0.0,0.0,0.0,0.0,0.0,0.0,0.0,0.0,0.0,0.0,0.0,0.0,0.0,0.0,0.0,0.0,0.0,0.0,0.0,0.0,0.0,0.0,0.0,0.0,0.0,0.0,0.0,0.0,0.0,0.0,0.0,0.0,0.0,0.0,0.0,0.0,0.0,0.0,0.0,0.0,0.0,0.0,0.0,0.0,0.0,0.0,0.0,0.0,0.0,0.0,0.0,0.0,0.0,0.0,0.0,0.0,0.0,0.0,0.0,0.0,0.0,0.0,0.0,0.0,0.0,0.0,0.0,0.0,0.0,2.1105,2.4437,2.4374,2.4321,2.4211,2.1839,1.9072,0.0,0.0,0.0,0.0,0.0,0.0,0.0,0.0,0.0,0.0,0.0,0.0,0.0,0.0,0.0,0.0,0.0,0.0,0.0,0.0,0.0,0.0,0.0,0.0,0.0,0.0,0.0,0.0,0.0,0.0,0.0,0.0,0.0,0.0,0.0,0.0,0.0,0.0,0.0,0.0,0.0,0.0,0.0,0.0,0.0,0.0,0.0,0.0,0.0,0.0,0.0,0.0,0.0,0.0,0.0,0.0,0.0,0.0,0.0,0.0,0.0,0.0,0.0,0.0,0.0,0.0,0.0,0.0,0.0,0.0,0.0,0.0,0.0,0.0,0.0,0.0,0.0,0.0,0.0,0.0,0.0,0.0,0.0,0.0,0.0,0.0,0.0,0.0,0.0,0.0,0.0,0.0,0.0,0.0,0.0,0.0,0.0,0.0,0.0,0.0,0.0,0.0,0.0,0.0,0.0,0.0,0.0,0.0,2.1861,2.4482,2.4493,2.4392,2.4303,2.1821,1.9588,0.0,0.0,0.0,0.0,0.0,0.0,0.0,0.0,0.0,0.0,0.0,0.0,0.0,0.0,0.0,0.0,0.0,0.0,0.0,0.0,0.0,0.0,0.0,0.0,0.0,0.0,0.0,0.0,0.0,0.0,0.0,0.0,0.0,0.0,0.0,0.0,0.0,0.0,0.0,0.0,0.0,0.0,0.0,0.0,0.0,0.0,0.0,0.0,1.5091,0.0,0.0,0.0,0.0,0.0,0.0,0.0,0.0,0.0,0.0,0.0,0.0,0.0,0.0,0.0,0.0,0.0,0.0,0.0,0.0,0.0,0.0,0.0,0.0,0.0,0.0,0.0,0.0,0.0,0.0,0.0,0.0,0.0,0.0,0.0,0.0,0.0,0.0,0.0,0.0,0.0,0.0,0.0,0.0,0.0,0.0,0.0,0.0,0.0,0.0,0.0,0.0,0.0,0.0,0.0,0.0,0.0,0.0,0.0,2.2023,2.4449,2.4493,2.4444,2.4355,2.303,2.0974,0.0,0.0,0.0,0.0,0.0,0.0,0.0,0.0,0.0,0.0,0.0,0.0,0.0,0.0,0.0,0.0,0.0,0.0,0.0,0.0,0.0,0.0,0.0,0.0,0.0,0.0,0.0,0.0,0.0,0.0,0.0,0.0,0.0,0.0,0.0,0.0,0.0,0.0,0.0,0.0,0.0,0.0,0.0,0.0,0.0,0.0,0.0,0.0,0.0,0.0,0.0,0.0,0.0,0.0,0.0,0.0,0.0,0.0,0.0,0.0,0.0,0.0,0.0,0.0,0.0,0.0,0.0,0.0,0.0,0.0,0.0,0.0,0.0,0.0,0.0,0.0,0.0,0.0,0.0,0.0,0.0,0.0,0.0,0.0,0.0,0.0,0.0,0.0,0.0,0.0,0.0,0.0,0.0,0.0,0.0,0.0,0.0,0.0,0.0,0.0,0.0,0.0,0.0,0.0,0.0,0.0,0.0,1.9017,2.2005,2.44,2.4442,2.4442,2.4495,2.4356,2.2405,1.8445,0.0,0.0,0.0,0.0,0.0,0.0,0.0,0.0,0.0,0.0,0.0,0.0,0.0,0.0,0.0,0.0,0.0,0.0,0.0,0.0,0.0,0.0,0.0,0.0,0.0,0.0,0.0,0.0,0.0,0.0,0.0,0.0,0.0,0.0,0.0,0.0,0.0,0.0,1.2485,1.5966,0.0,0.0,0.0,0.0,0.0,0.0,0.0,0.0,1.823,0.0,0.0,0.0,0.0,0.0,0.0,0.0,0.0,0.0,0.0,0.0,0.0,0.0,0.0,0.0,0.0,0.0,0.0,0.0,0.0,0.0,0.0,0.0,0.0,0.0,0.0,0.0,0.0,0.0,0.0,0.0,0.0,0.0,0.0,0.0,0.0,0.0,0.0,0.0,0.0,0.0,0.0,0.0,0.0,0.0,0.0,0.0,0.0,0.0,0.0,0.0,0.0,0.0,0.0,0.0,0.0,1.8839,2.042,2.2334,2.4567,2.4493,2.4442,2.4495,2.4375,2.2663,1.9256,0.0,0.0,0.0,0.0,0.0,0.0,0.0,0.0,0.0,0.0,0.0,0.0,0.0,0.0,0.0,0.0,0.0,0.0,0.0,0.0,0.0,0.0,0.0,0.0,0.0,0.0,0.0,0.0,0.0,0.0,0.0,0.0,0.0,0.0,0.0,0.0,0.0,0.0,0.0,1.9085,2.0172,0.0,0.0,0.0,0.0,0.0,0.0,0.0,0.0,1.8031,0.0,0.0,0.0,0.0,0.0,0.0,0.0,0.0,0.0,0.0,0.0,0.0,0.0,0.0,0.0,0.0,0.0,0.0,0.0,0.0,0.0,0.0,0.0,0.0,0.0,0.0,0.0,0.0,0.0,0.0,0.0,0.0,0.0,0.0,0.0,0.0,0.0,0.0,0.0,0.0,0.0,0.0,0.0,0.0,0.0,0.0,0.0,0.0,0.0,0.0,0.0,0.0,0.0,0.0,0.0,1.7725,2.1116,2.3419,2.4559,2.5244,2.5227,2.443,2.4671,2.2868,0.0,0.0,0.0,0.0,0.0,0.0,0.0,0.0,0.0,0.0,0.0,0.0,0.0,0.0,0.0,0.0,0.0,0.0,0.0,0.0,0.0,0.0,0.0,0.0,0.0,0.0,0.0,0.0,0.0,0.0,0.0,0.0,0.0,0.0,0.0,0.0,0.0,0.0,0.0,0.0,2.0255,2.1529,2.2897,0.0,0.0,0.0,0.0,0.0,0.0,1.9025,1.8145,0.0,0.0,0.0,0.0,0.0,0.0,0.0,0.0,0.0,0.0,0.0,0.0,0.0,0.0,0.0,0.0,0.0,0.0,0.0,0.0,0.0,0.0,0.0,0.0,0.0,0.0,0.0,0.0,0.0,0.0,0.0,0.0,0.0,0.0,0.0,0.0,0.0,0.0,0.0,0.0,0.0,0.0,0.0,0.0,0.0,0.0,0.0,0.0,0.0,0.0,0.0,0.0,0.0,0.0,0.0,1.6216,2.0877,2.3875,2.4927,2.6019,2.6013,2.4819,2.523,2.3232,0.0,0.0,0.0,0.0,0.0,0.0,0.0,0.0,0.0,0.0,0.0,0.0,0.0,0.0,0.0,0.0,0.0,0.0,0.0,0.0,0.0,0.0,0.0,0.0,0.0,0.0,0.0,0.0,0.0,0.0,0.0,0.0,0.0,0.0,0.0,0.0,0.0,0.0,0.0,0.0,0.0,2.2687,2.3888,2.2265,0.0,0.0,0.0,0.0,2.137,2.0743,0.0,0.0,0.0,0.0,0.0,0.0,0.0,0.0,0.0,0.0,0.0,0.0,0.0,0.0,0.0,0.0,0.0,0.0,0.0,0.0,0.0,0.0,0.0,0.0,0.0,0.0,0.0,0.0,0.0,0.0,0.0,0.0,0.0,0.0,0.0,0.0,0.0,0.0,0.0,0.0,0.0,0.0,0.0,0.0,0.0,0.0,0.0,0.0,0.0,0.0,0.0,0.0,0.0,0.0,0.0,0.0,1.6736,1.8953,2.2136,2.6185,2.6319,2.6267,2.6252,2.6154,2.3852,0.0,0.0,0.0,0.0,0.0,0.0,0.0,0.0,0.0,0.0,0.0,0.0,0.0,0.0,0.0,0.0,0.0,0.0,0.0,0.0,0.0,0.0,0.0,0.0,0.0,0.0,0.0,0.0,0.0,0.0,0.0,0.0,0.0,0.0,0.0,0.0,0.0,0.0,0.0,0.0,0.0,2.376,2.3166,2.2804,2.2854,0.0,0.0,2.3985,2.5543,2.5667,0.0,0.0,0.0,0.0,0.0,0.0,0.0,0.0,0.0,0.0,0.0,0.0,0.0,0.0,0.0,0.0,0.0,0.0,0.0,0.0,0.0,0.0,0.0,0.0,0.0,0.0,0.0,0.0,0.0,0.0,0.0,0.0,0.0,0.0,0.0,0.0,0.0,0.0,0.0,0.0,0.0,0.0,0.0,0.0,0.0,0.0,0.0,0.0,0.0,0.0,0.0,0.0,0.0,0.0,0.0,1.5346,1.7652,2.1782,2.4798,2.6539,2.7227,2.7169,2.6331,2.668,2.4212,0.0,0.0,0.0,0.0,0.0,0.0,0.0,0.0,0.0,0.0,0.0,0.0,0.0,0.0,0.0,0.0,0.0,0.0,0.0,0.0,0.0,0.0,0.0,0.0,0.0,0.0,0.0,0.0,0.0,0.0,0.0,0.0,0.0,0.0,0.0,0.0,0.0,0.0,0.0,0.0,0.0,0.0,2.625,2.5279,0.0,0.0,0.0,2.4224,2.5565,0.0,0.0,0.0,0.0,0.0,0.0,0.0,0.0,0.0,0.0,0.0,0.0,0.0,0.0,0.0,0.0,0.0,0.0,0.0,0.0,0.0,0.0,0.0,0.0,0.0,0.0,0.0,0.0,0.0,0.0,0.0,0.0,0.0,0.0,0.0,0.0,0.0,0.0,0.0,0.0,0.0,0.0,0.0,0.0,0.0,0.0,0.0,0.0,0.0,0.0,0.0,0.0,0.0,0.0,0.0,0.0,0.0,1.8404,2.4241,2.7204,2.7059,2.8046,2.8098,2.7145,2.7689,0.0,0.0,0.0,0.0,0.0,0.0,0.0,0.0,0.0,0.0,0.0,0.0,0.0,0.0,0.0,0.0,0.0,0.0,0.0,0.0,0.0,0.0,0.0,0.0,0.0,0.0,0.0,0.6284,0.0,0.0,0.0,0.0,0.0,0.0,0.0,0.0,0.0,0.0,0.0,0.0,0.0,0.0,2.4266,2.8066,2.7112,2.6593,0.0,0.0,2.4817,2.6242,2.8542,2.8695,0.0,0.0,0.0,0.0,0.0,0.0,0.0,0.0,0.0,0.0,0.0,0.0,0.0,0.0,0.0,0.0,0.0,0.0,0.0,0.0,0.0,0.0,0.0,0.0,0.0,0.0,0.0,0.0,0.0,0.0,0.0,0.0,0.0,0.0,0.0,0.0,0.0,0.0,0.0,0.0,0.0,0.0,0.0,0.0,0.0,0.0,0.0,0.0,0.0,0.0,0.0,0.0,0.0,0.0,0.0,1.9139,2.4492,2.7702,2.8413,2.8558,2.892,2.9544,2.959,2.6271,0.0,0.0,0.0,0.0,0.0,0.0,0.0,0.0,0.0,0.0,0.0,0.0,0.0,0.0,0.0,0.0,0.0,0.0,0.0,0.0,0.0,0.0,0.0,0.0,0.0,0.0,0.0,0.0,0.0,0.0,0.0,0.0,0.0,0.0,0.0,0.0,0.0,0.0,0.0,0.0,0.0,2.3743,2.6332,2.7245,2.8233,0.0,0.0,2.7338,2.9497,3.0013,2.8485,2.3518,0.0,0.0,0.0,0.0,0.0,0.0,0.0,0.0,0.0,0.0,0.0,0.0,0.0,0.0,0.0,0.0,0.0,0.0,0.0,0.0,0.0,0.0,0.0,0.0,0.0,0.0,0.0,0.0,0.0,0.0,0.0,0.0,0.0,0.0,0.0,0.0,0.0,0.0,0.0,0.0,0.0,0.0,0.0,0.0,0.0,0.0,0.0,0.0,0.0,0.0,0.0,0.0,0.0,1.7541,1.9866,2.5768,2.9021,2.9337,2.9826,3.0224,3.0559,3.0559,2.8069,0.0,0.0,0.0,0.0,0.0,0.0,0.0,0.0,0.0,0.0,0.0,0.0,0.0,0.0,0.0,0.0,0.0,0.0,0.0,0.0,0.0,0.0,0.0,0.0,0.0,0.0,0.0,0.0,1.3719,1.4027,1.115,0.0,0.0,0.0,0.0,0.0,0.0,0.0,0.0,0.0,0.0,2.6043,2.8491,2.8722,0.0,0.0,2.8626,2.8007,2.9898,2.846,2.6644,2.516,2.3522,0.0,0.0,0.0,0.0,0.0,0.0,0.0,0.0,0.0,0.0,0.0,0.0,0.0,0.0,0.0,0.0,0.0,0.0,0.0,0.0,0.0,0.0,0.0,0.0,0.0,0.0,0.0,0.0,0.0,0.0,0.0,0.0,0.0,0.0,0.0,0.0,0.0,0.0,0.0,0.0,0.0,0.0,0.0,0.0,0.0,0.0,0.0,0.0,0.0,0.0,0.0,0.0,1.8016,2.0553,2.6651,2.9924,3.0178,3.0695,3.1093,3.1329,3.1347,2.9463,0.0,0.0,0.0,0.0,0.0,0.0,0.0,0.0,0.0,0.0,0.0,0.0,0.0,0.0,0.0,0.0,0.0,0.0,0.0,0.0,0.0,0.0,0.0,0.0,0.0,0.0,0.0,0.0,1.4236,1.3753,1.1185,0.0,0.0,0.0,0.0,0.0,0.0,0.0,0.0,0.0,0.0,2.7451,2.9902,2.9794,2.9621,3.019,2.8957,2.8294,2.9306,2.7606,2.6058,2.5695,0.0,0.0,0.0,0.0,0.0,0.0,0.0,0.0,0.0,0.0,0.0,0.0,0.0,0.0,0.0,0.0,0.0,0.0,0.0,0.0,0.0,0.0,0.0,0.0,0.0,0.0,0.0,0.0,0.0,0.0,0.0,0.0,0.0,0.0,0.0,0.0,0.0,0.0,0.0,0.0,0.0,0.0,0.0,0.0,0.0,0.0,0.0,0.0,0.0,0.0,0.0,0.0,0.0,1.819,2.1209,2.6911,3.0214,3.0948,3.1003,3.1401,3.2144,3.2162,3.027,2.6242,0.0,0.0,0.0,0.0,0.0,0.0,0.0,0.0,0.0,0.0,0.0,0.0,0.0,0.0,0.0,0.0,0.0,0.0,0.0,0.0,0.0,0.0,0.0,0.0,0.0,0.0,1.0153,1.0739,1.1046,0.0,0.0,0.0,0.0,0.0,0.0,0.0,0.0,0.0,0.0,2.5332,2.7351,2.9855,3.0199,3.0161,3.0218,2.923,2.8338,2.7931,2.8103,2.7402,0.0,0.0,0.0,0.0,0.0,0.0,0.0,0.0,0.0,0.0,0.0,0.0,0.0,0.0,0.0,0.0,0.0,0.0,0.0,0.0,0.0,0.0,0.0,0.0,0.0,0.0,0.0,0.4891,0.0,0.0,0.0,0.0,0.0,0.0,0.0,0.0,0.0,0.0,0.0,0.0,1.5911,1.7944,0.0,0.0,0.0,0.0,0.0,0.0,0.0,0.0,0.0,0.0,0.0,0.0,1.8948,2.2108,2.8175,3.151,3.1781,3.2306,3.2723,3.2995,3.2995,3.0867,2.6369,0.0,0.0,0.0,0.0,0.0,0.0,0.0,0.0,0.0,0.0,0.0,0.0,0.0,0.0,0.0,0.0,0.0,0.0,0.0,0.0,0.0,0.0,0.0,0.0,0.0,1.0948,0.0,0.0,0.0,0.0,0.0,0.0,0.0,0.0,0.0,0.0,0.0,2.2429,2.5199,2.751,2.923,3.007,3.0204,3.0204,0.0,0.0,0.0,0.0,0.0,0.0,0.0,0.0,0.0,0.0,0.0,0.0,0.0,0.0,2.495,1.9,1.8894,1.94,1.8387,0.0,0.0,0.0,0.0,0.0,0.0,0.0,0.0,0.0,0.0,0.0,0.0,0.0,0.0,1.0146,0.0,0.4589,0.0,0.0,0.0,0.0,0.0,0.0,0.0,0.0,1.8194,1.9939,1.9561,2.1844,2.2132,0.0,2.1161,1.7403,0.0,0.0,0.0,0.0,0.0,0.0,0.0,0.0,2.0245,2.4505,2.9574,3.2343,3.2614,3.3121,3.3393,3.3393,3.3393,3.1898,2.8815,3.0378,2.8515,0.0,0.0,0.0,0.0,0.0,0.0,0.0,0.0,0.0,0.0,0.0,0.0,0.0,0.0,0.0,0.0,0.0,0.0,0.0,0.0,0.0,0.0,0.0,1.2194,0.0,0.0,0.0,0.0,0.0,0.0,0.0,0.0,0.0,2.304,2.4243,2.5485,2.7472,2.9153,3.03,3.0605,0.0,0.0,0.0,0.0,0.0,0.0,0.0,2.6242,2.7083,2.5763,2.4293,2.3567,2.578,2.7853,2.836,0.0,0.0,2.2514,2.2352,2.3012,2.2658,2.2887,2.3242,2.3518,2.4083,2.4618,0.0,0.0,0.0,0.0,0.0,0.0,0.0,0.0,1.6063,1.674,0.0,1.3404,0.0,0.0,0.0,0.0,0.0,1.4794,0.0,0.0,2.2994,2.4968,2.5041,2.5819,2.6217,2.6253,2.5967,2.4741,2.2612,2.0353,0.0,0.0,0.0,0.0,0.0,0.0,2.2126,2.8162,3.0912,3.2614,3.3357,3.3375,3.3393,3.3393,3.3393,3.3357,3.3212,2.9753,2.7248,2.6134,1.6146,0.0,0.0,0.0,0.0,0.0,0.0,0.0,0.0,0.0,0.0,0.0,0.0,0.0,0.0,0.0,0.0,0.0,0.0,0.0,0.0,1.4311,0.0,0.0,0.0,0.0,0.0,0.0,0.0,0.0,0.0,0.0,2.5103,2.6001,2.7415,2.9841,0.0,0.0,0.0,0.0,3.2095,3.2577,3.1924,3.1093,3.0419,3.0684,3.0473,2.9159,0.0,0.0,2.5859,2.788,2.9064,2.602,2.8118,3.0117,2.998,2.786,2.7224,2.9306,2.7931,2.6899,2.7625,2.8618,2.9765,1.4468,0.0,0.0,0.0,0.0,1.3477,1.5267,1.82,1.8228,1.9241,2.0891,1.9808,0.0,0.0,0.0,0.0,0.0,0.0,1.7618,1.9328,2.2847,2.5127,2.6326,2.732,2.7825,2.7918,2.8314,2.826,2.7797,2.8189,2.2553,1.147,0.0,0.0,0.0,0.0,2.5505,2.8396,3.149,3.3158,3.3393,3.3393,3.3393,3.3393,3.3393,3.3393,3.3375,3.2288,3.0215,2.7194,2.6765,0.0,0.0,0.0,0.0,0.0,0.0,0.0,0.0,0.0,0.0,0.0,0.0,0.0,0.0,0.0,0.0,0.0,0.0,0.0,1.4841,1.6713,1.6629,0.0,0.0,0.0,0.0,0.0,0.0,0.0,0.0,0.0,2.616,2.7897,2.9322,0.0,0.0,3.1153,3.1274,3.1962,3.252,3.2691,3.2485,0.0,0.0,3.0869,3.0406,3.1409,3.1501,3.0788,2.9011,2.9516,2.987,2.8888,2.9532,3.0128,3.0,2.9516,2.9327,2.9961,2.9574,2.9192,2.9459,2.9917,3.0395,1.8392,1.5985,1.4421,1.4829,1.6418,1.6158,1.7896,2.0951,2.0381,2.1061,2.2588,2.2497,2.0591,1.7444,1.702,0.0,0.0,0.0,2.0026,2.1819,2.4247,2.5974,2.7056,2.8011,2.8673,2.9065,2.9044,2.9647,3.0749,3.1299,2.7216,1.8968,0.0,0.0,2.0112,2.4383,2.7879,3.0333,3.2386,3.3393,3.3393,3.3393,3.3393,3.3393,3.3393,3.3393,3.3393,3.3393,3.2288,2.9934,3.2089,2.8959,0.0,0.0,0.0,0.0,0.0,0.0,0.0,0.0,0.0,0.0,0.0,1.5417,1.9753,0.0,0.0,0.0,0.904,1.4475,2.113,2.1133,0.0,0.0,0.0,0.0,0.0,0.0,0.0,1.9786,2.4517,2.8278,2.9557,3.0627,3.1189,3.0999,3.1156,3.1516,3.2072,0.0,3.3373,3.3405,3.3372,3.3373,3.339,3.2278,3.1706,3.2638,3.1843,3.0894,3.0224,3.0064,3.025,3.0731,3.0709,3.0519,3.0497,3.0671,3.0646,3.0295,3.0204,3.03,3.0624,3.0715,3.0963,2.2087,2.1881,1.8453,1.7992,1.9536,1.986,2.0933,2.2462,2.2479,2.2479,2.2479,2.274,2.1481,1.921,1.8458,0.0,2.071,2.2106,2.3734,2.5641,2.6561,2.7155,2.7511,2.8258,2.9042,2.9764,2.8892,2.9745,3.2014,3.1247,2.9799,2.7835,2.7756,2.7569,2.7281,2.7551,2.9557,3.3214,3.3268,3.3286,3.3304,3.3304,3.3334,3.3345,3.3364,3.3345,3.3393,3.3393,3.3393,3.3375,3.3393,3.3393,3.3393,0.0,0.0,0.0,0.0,0.0,0.0,0.0,0.0,0.0,0.0,0.0,0.0,0.0,0.0,0.0,1.5422,0.0,2.899,2.6195,0.0,0.0,0.0,1.8333,1.9544,2.2199,2.3092,2.0942,0.0,0.0,3.4095,3.362,3.2954,3.2764,3.1844,3.1747,3.3339,3.3937,3.436,3.4427,3.4389,3.4353,3.436,3.4083,3.3616,3.3013,3.1685,3.0688,3.0203,3.0071,3.0565,3.1595,3.1429,3.1148,3.145,3.1652,3.1578,3.0643,3.0448,3.0653,3.1359,3.156,3.1838,2.2164,2.2148,2.1561,2.1722,2.2394,2.2492,2.3091,2.3968,2.3998,2.3968,2.3968,2.3985,2.359,2.2902,2.2722,2.2929,2.3465,2.436,2.5045,2.5558,2.6575,2.7417,2.8018,2.8443,2.9087,2.9889,3.051,3.1112,3.1757,3.2403,3.2466,3.1942,3.1578,2.987,2.6994,2.9685,3.1582,3.24,3.2401,3.2468,3.2553,3.2553,3.2684,3.2957,3.2957,3.3099,3.3393,3.3393,3.3393,3.3393,3.3393,3.3393,3.3393,3.3393,0.0,0.0,0.0,0.0,0.0,0.0,0.0,0.0,0.0,2.1235,2.855,0.0,1.8573,0.0,1.5075,2.2703,2.515,2.5368,0.0,0.0,2.3038,2.3038,2.8256,2.7139,2.63,2.7393,3.0297,3.2728,3.4093,3.4097,3.396,3.3939,3.3264,3.2844,3.309,3.3939,3.4583,3.4562,3.4532,3.4548,3.4529,3.4379,3.3887,3.2939,3.2539,3.2091,3.1129,3.1165,3.1379,3.1486,3.1563,3.175,3.2173,3.2019,3.1953,3.2051,3.1995,3.191,3.2138,3.2292,3.2669,2.297,2.301,2.3233,2.3591,2.3888,2.3533,2.3552,2.3885,2.4113,2.4161,2.4146,2.4593,2.4744,2.4728,2.5046,2.5279,2.5379,2.5782,2.6033,2.6165,2.7158,2.7904,2.8449,2.8972,2.9723,3.0667,3.1235,3.1751,3.2281,3.2888,3.3086,3.2961,3.2636,3.1212,2.8928,3.1112,3.1999,3.1411,3.2064,3.2384,3.2317,3.2435,3.2039,3.1124,3.2371,3.2613,3.1722,3.2773,3.2712,3.1299,3.2586,3.3393,3.3393,3.3393,3.103,0.0,0.0,0.0,0.0,0.0,0.0,0.0,0.0,0.0,0.0,0.0,2.5886,1.8265,2.2587,2.6326,2.7563,2.8157,2.8632,2.9022,2.7457,2.7829,3.1547,3.0111,2.9328,3.0486,3.1586,3.2705,3.3845,3.3998,3.4023,3.4074,3.3716,3.3467,3.3571,3.4032,3.4338,3.4297,3.4264,3.4218,3.4123,3.4043,3.3769,3.3235,3.2982,3.2725,3.2381,3.2101,3.203,3.2395,3.2418,3.2493,3.2982,3.2858,3.2739,3.2974,3.3119,3.3081,3.2996,3.3063,3.3375,2.3882,2.3982,2.3982,2.4219,2.4465,2.3719,2.3394,2.35,2.3862,2.4015,2.3997,2.4979,2.5414,2.5464,2.6166,2.645,2.6485,2.6554,2.6725,2.706,2.7842,2.8437,2.8891,2.9632,3.0542,3.1586,3.1544,3.1994,3.2975,3.2866,3.2654,3.2385,3.2197,3.1773,3.1199,3.1685,3.1479,3.0583,3.1803,3.2327,3.2039,3.2343,3.1466,2.9453,3.1876,3.23,3.0158,3.2202,3.205,2.9305,3.1028,3.2105,3.2141,3.2911,3.3393,0.0,2.4649,0.0,0.0,0.0,0.0,0.0,0.0,0.0,0.0,2.892,3.0527,3.3169,3.2237,3.1678,3.2115,3.1992,3.1901,3.1879,3.192,3.1912,3.195,3.1848,3.1763,3.1753,3.1753,3.2272,3.3533,3.3643,3.3615,3.3698,3.3652,3.3723,3.4176,3.4067,3.3907,3.3891,3.3828,3.3787,3.3597,3.3559,3.3605,3.3514,3.3168,3.301,3.3506,3.2884,3.2639,3.3593,3.3432,3.3265,3.3758,3.368,3.355,3.3552,3.3713,3.382,3.3744,3.3715,3.4017,2.3997,2.3982,2.3982,2.4051,2.4105,2.3928,2.4406,2.5297,2.537,2.5565,2.5809,2.6029,2.6114,2.6095,2.6191,2.6345,2.6485,2.6382,2.6788,2.7535,2.7651,2.8501,2.9819,3.0209,3.0836,3.1671,3.1865,3.2073,3.2282,3.2214,3.2179,3.2144,3.177,3.0947,2.9883,0.0,0.0,0.0,3.0714,3.0577,3.054,3.0835,3.0923,3.0821,3.2147,0.0,3.2701,3.3146,3.3121,3.2368,2.7895,0.0,0.0,0.0,0.0,0.0,0.0,0.0,0.0,0.0,0.0,0.0,2.527,2.547,2.595,2.9062,3.1715,3.3234,3.3132,3.2536,3.1445,3.2052,3.249,3.239,3.2465,3.2705,3.322,3.262,3.2338,3.2964,3.3037,3.3128,3.34,3.3473,3.353,3.3587,3.3549,3.3613,3.3881,3.387,3.3787,3.3768,3.3725,3.3625,3.3452,3.3441,3.3452,3.3433,3.3361,3.3441,3.3742,3.3524,3.3285,3.3921,3.3792,3.3595,3.353,3.3452,3.3509,3.3661,3.3716,3.3784,3.3926,3.4083,3.4258,2.3782,0.0,2.3782,2.3839,0.0,2.3782,2.4271,2.5059,2.5098,2.5291,2.5631,2.5868,2.5957,2.5924,2.6206,2.658,2.6933,2.6952,2.7425,2.8182,2.8642,2.9235,2.9998,3.0523,3.109,3.164,3.164,3.175,3.1878,3.1823,3.175,3.164,3.1452,3.0755,2.9661,3.0145,3.0639,3.1095,3.0955,3.0636,3.018,3.0972,3.0749,2.9403,0.0,0.0,0.0,0.0,0.0,0.0,0.0,0.0,0.0,0.0,0.0,3.3321,3.0306,2.7965,2.676,2.6591,2.75,2.9511,2.9718,2.9246,2.8215,3.0056,3.1855,3.3259,3.3393,3.3067,3.2363,3.2721,3.3013,3.2958,3.3013,3.3195,3.3421,3.3136,3.2958,3.3302,3.3393,3.3393,3.3393,3.3422,3.3462,3.352,3.3509,3.3488,3.36,3.3696,3.3734,3.3688,3.3595,3.352,3.3404,3.3393,3.3393,3.3393,3.3462,3.3577,3.3671,3.3753,3.3807,3.3753,3.3753,3.3707,3.3587,3.3481,3.3422,3.352,3.3541,3.3597,3.3698,3.3954,3.4184,2.3319,2.3319,2.3421,2.3465,2.3465,2.3551,2.3824,2.4177,0.0,0.0,0.0,2.5497,2.5684,2.5721,2.6338,2.6916,2.7431,2.7727,2.8233,2.8934,2.9707,3.0082,3.0123,3.0769,3.1257,3.1545,3.1368,3.1334,3.162,3.1487,3.1329,3.1173,3.106,3.056,2.9688,2.9599,2.9962,3.0729,3.1103,3.0837,2.9901,3.0975,3.0382,2.782,3.138,3.2288,3.0209,3.2227,3.2123,2.9548,3.1924,3.091,2.5768,3.0423,3.3393,3.3393,3.3393,3.3393,3.3393,3.3393,3.3393,3.3393,3.3393,3.2832,3.151,3.1419,3.1962,3.3302,3.3393,3.3393,3.3393,3.3393,3.3393,3.3393,3.3393,3.3375,3.3393,3.3393,3.3357,3.3393,3.3393,3.3393,3.3393,3.3393,3.3441,3.3452,3.3422,3.3393,3.3411,3.3531,3.3633,3.3615,3.3524,3.3393,3.3393,3.3393,3.3393,3.3393,3.352,3.3577,3.352,3.3734,3.3842,3.3509,3.3605,3.3671,3.3661,3.3491,3.3393,3.3393,3.3393,3.3393,3.3404,3.3643,3.3895,2.2314,2.236,2.283,2.2979,2.3024,2.3421,2.3638,2.3767,2.4502,2.5059,2.5427,2.5519,2.5779,2.6206,2.6906,2.7328,2.7607,2.8152,2.8858,0.0,2.9811,3.0197,3.0847,3.1189,3.1359,3.1414,3.1317,3.1295,3.1295,3.0902,3.0716,3.0828,3.0281,2.9592,2.8992,2.8867,2.8917,2.9072,2.9534,2.9496,2.8812,2.8785,2.9076,2.9674,3.1706,3.2751,3.2398,3.3028,3.3194,3.2748,3.3158,3.2929,3.2123,3.2821,3.3393,3.3393,3.3393,3.3393,3.3393,3.3393,3.3393,3.3393,3.3393,3.3302,3.3085,3.3067,3.3158,3.3393,3.3393,3.3393,3.3393,3.3393,3.3393,3.3393,3.3393,3.3393,3.3393,3.3393,3.3393,3.3393,3.3393,3.3393,3.3393,3.3393,3.3393,3.3422,3.3393,3.3393,3.3393,3.3411,3.3429,3.3447,3.3411,3.3393,3.3393,3.3393,3.3393,3.3393,3.3422,3.3452,3.3422,3.3491,3.352,3.3422,3.3452,3.3462,3.3452,3.3422,3.3393,3.3393,3.3393,3.3393,3.3393,3.3481,3.3502,2.2081,2.2175,2.2709,2.2889,2.2949,2.3377,2.3595,2.3638,2.4006,2.4461,2.4871,2.5242,2.5798,2.6524,2.723,2.7982,2.8686,2.9037,2.9666,3.0415,3.0448,3.0633,3.0918,3.0982,3.1021,3.1021,3.0902,3.0878,3.0861,3.0757,3.0573,3.0202,2.9113,2.8632,2.872,2.835,2.8205,2.8366,2.9134,2.9093,2.8303,2.8576,2.9171,3.005,3.1009,3.1667,3.2076,3.233,3.2469,3.2469,3.3069,3.3393,3.3393,3.3393,3.3393,3.3393,3.3393,3.3393,3.3393,3.3393,3.3393,3.3393,3.3393,3.3393,3.3393,3.3393,3.3393,3.3393,3.3393,3.3393,3.3393,3.3393,3.3393,3.3393,3.3393,3.3393,3.3393,3.3393,3.3393,3.3393,3.3393,3.3393,3.3393,3.3393,3.3393,3.3393,3.3393,3.3393,3.3393,3.3393,3.3393,3.3393,3.3393,3.3393,3.3393,3.3393,3.3393,3.3393,3.3393,3.3393,3.3393,3.3393,3.3393,3.3393,3.3393,3.3393,3.3393,3.3393,3.3393,3.3393,3.3393,3.3393,3.3393,3.3393,3.3393,2.1813,2.1813,2.2328,2.2709,2.2934,2.3421,2.3595,2.3595,2.3595,2.3958,2.4553,2.5114,2.578,2.6494,2.7429,2.8372,2.9246,2.9696,3.0199,3.0699,3.0855,3.0895,3.0831,3.0692,3.0651,3.0651,3.0551,3.0468,3.0493,3.0566,3.0095,2.9176,2.8146,2.7811,2.8196,2.7643,2.7483,2.7794,2.8535,2.8659,2.8078,2.8572,2.9193,2.988,3.0088,3.0504,3.1119,3.1324,3.1505,3.1732,3.2613,3.3194,3.3393,3.3393,3.3393,3.3393,3.3393,3.3393,3.3393,3.3393,3.3393,3.3393,3.3393,3.3393,3.3393,3.3393,3.3393,3.3393,3.3393,3.3393,3.3393,3.3393,3.3393,3.3393,3.3393,3.3393,3.3393,3.3393,3.3393,3.3393,3.3393,3.3393,3.3393,3.3393,3.3393,3.3393,3.3393,3.3393,3.3393,3.3393,3.3393,3.3393,3.3393,3.3393,3.3393,3.3393,3.3393,3.3393,3.3393,3.3393,3.3393,3.3393,3.3393,3.3393,3.3393,3.3393,3.3393,3.3393,3.3393,3.3393,3.3393,3.3393,3.3393,3.3393,3.3393,2.0835,2.0898,2.1361,2.2063,2.292,2.3421,2.3595,2.3595,2.3595,2.4215,2.5136,2.5287,2.559,2.6135,2.7524,2.8172,2.8414,2.9593,3.0143,3.0234,3.0551,3.0733,3.0692,3.0568,3.0526,3.0526,3.051,3.0452,3.041,2.9838,2.8938,2.7838,2.759,2.7308,2.6786,2.6512,2.648,2.6741,2.7063,2.7563,2.8131,2.7941,2.8329,2.9325,2.9681,2.9939,3.012,3.0432,3.0933,3.166,3.2108,3.2651,3.3284,3.3393,3.3393,3.3393,3.3393,3.3393,3.3393,3.3393,3.3393,3.3393,3.3393,3.3393,3.3393,3.3393,3.3393,3.3393,3.3393,3.3393,3.3393,3.3393,3.3393,3.3393,3.3393,3.3393,3.3393,3.3393,3.3393,3.3393,3.3393,3.3393,3.3393,3.3393,3.3393,3.3393,3.3502,3.3538,3.3538,3.3628,3.3628,3.352,3.3429,3.3393,3.3393,3.3393,3.3393,3.3393,3.3393,3.3393,3.3393,3.3393,3.3393,3.3393,3.3393,3.3393,3.3393,3.3393,3.3393,3.3393,3.3393,3.3393,3.3393,3.3393,3.3393,2.0662,2.0649,2.1193,2.1969,2.2889,2.3421,2.3595,2.3625,2.4044,2.4462,2.4986,2.5697,2.6442,2.7166,2.7633,2.7942,2.822,2.916,2.9534,2.955,3.0294,3.0634,3.0568,3.051,3.0468,3.0468,3.0468,3.0278,2.9731,2.8743,2.8015,2.7576,2.7138,2.6718,2.6502,2.6486,2.6555,2.6674,2.7132,2.7504,2.7636,2.7577,2.804,2.8863,2.8424,2.8416,2.9106,2.944,3.0006,3.0951,3.1784,3.256,3.3357,3.3393,3.3393,3.3393,3.3393,3.3393,3.3393,3.3393,3.3393,3.3393,3.3393,3.3393,3.3393,3.3393,3.3393,3.3393,3.3393,3.3393,3.3393,3.3393,3.3393,3.3393,3.3393,3.3393,3.3393,3.3393,3.3393,3.3393,3.3393,3.3393,3.3393,3.3393,3.3393,3.3484,3.3755,3.4081,3.4117,3.4516,3.4806,3.4697,3.4081,3.3447,3.3411,3.3393,3.3393,3.3393,3.3393,3.3393,3.3393,3.3393,3.3393,3.3393,3.3393,3.3393,3.3393,3.3393,3.3393,3.3393,3.3393,3.3393,3.3393,3.3393,3.3393,2.0599,2.0599,2.1277,2.1921,2.2526,2.3157,2.3525,2.3733,2.4163,2.467,2.5255,2.6183,2.7111,2.7783,2.7504,2.7581,2.8056,2.8619,2.8965,2.915,3.0153,3.0593,3.0526,3.0468,3.0468,3.0435,3.0294,2.9731,2.8893,2.8227,2.7774,2.7631,2.7205,2.7035,2.7123,2.7195,2.7196,2.73,2.7422,2.7425,2.7563,2.7376,2.7705,2.8395,2.7569,2.7439,2.8338,2.8513,2.9135,3.038,3.129,3.2238,3.3321,3.3304,3.3304,3.3393,3.3393,3.3393,3.3393,3.3393,3.3393,3.3393,3.3393,3.3393,3.3393,3.3393,3.3393,3.3393,3.3393,3.3393,3.3393,3.3393,3.3393,3.3393,3.3393,3.3393,3.3393,3.3393,3.3393,3.3393,3.3393,3.3393,3.3393,3.3393,3.3393,3.3465,3.4081,3.4624,3.4715,3.5222,3.5693,3.5494,3.4425,3.3864,3.3701,3.3502,3.3447,3.3393,3.3393,3.3393,3.3393,3.3393,3.3393,3.3393,3.3393,3.3393,3.3393,3.3393,3.3393,3.3393,3.3393,3.3393,3.3393,3.3393,3.3393,2.0599,2.0662,2.1479,2.1732,2.1568,2.2555,2.3312,2.3944,2.3985,2.4926,2.6284,2.6572,2.6995,2.7575,2.7101,2.7127,2.7633,2.8165,2.863,2.9112,3.0064,3.051,3.0468,3.0468,3.051,3.0377,2.9831,2.8876,2.7657,2.8256,2.8317,2.7698,2.8163,2.8548,2.8535,2.8298,2.8436,2.848,2.7433,2.7182,2.8058,2.7461,2.7324,2.7806,2.7587,2.7587,2.7917,2.7813,2.8529,3.0247,3.0535,3.1428,3.3135,3.3104,3.3104,3.3334,3.3393,3.3393,3.3393,3.3393,3.3393,3.3393,3.3393,3.3393,3.3393,3.3393,3.3393,3.3393,3.3393,3.3393,3.3393,3.3393,3.3393,3.3393,3.3393,3.3393,3.3393,3.3393,3.3393,3.3393,3.3393,3.3393,3.3393,3.3393,3.3465,3.3647,3.4154,3.4769,3.4969,3.5457,3.5639,3.5168,3.4751,3.4534,3.4461,3.3846,3.3429,3.3393,3.3393,3.3393,3.3393,3.3393,3.3393,3.3393,3.3393,3.3393,3.3393,3.3393,3.3393,3.3393,3.3393,3.3393,3.3393,3.3411,3.352,2.0448,2.0398,2.1042,2.1502,2.1916,2.2636,2.3502,2.4394,2.4878,2.5609,2.6553,2.7036,2.74,2.7595,2.6935,2.6771,2.7048,2.7856,2.8307,2.8637,2.9858,3.0468,3.0468,3.0468,3.0228,2.9814,2.9549,2.871,2.7504,2.7674,2.7731,2.7651,2.8219,2.8586,2.8603,2.8624,2.8661,2.8594,2.8072,2.7919,2.7981,2.7448,2.7276,2.7509,2.7338,2.7382,2.7771,2.7713,2.8341,2.9686,3.0196,3.1303,3.2857,3.3165,3.3274,3.3364,3.3393,3.3393,3.3393,3.3393,3.3393,3.3393,3.3393,3.3393,3.3393,3.3393,3.3393,3.3393,3.3393,3.3393,3.3393,3.3393,3.3393,3.3393,3.3393,3.3393,3.3393,3.3393,3.3393,3.3393,3.3393,3.3393,3.3484,3.3846,3.4154,3.428,3.5276,3.5946,3.6236,3.6798,3.6961,3.6254,3.5693,3.5186,3.4606,3.3918,3.3411,3.3393,3.3393,3.3393,3.3393,3.3393,3.3393,3.3556,3.3538,3.3393,3.3393,3.3393,3.3393,3.3411,3.3411,3.3574,3.3393,3.381,3.4063,2.0347,2.0271,2.0746,2.1289,2.1872,2.2465,2.3384,2.4532,2.5191,2.5916,2.6663,2.733,2.756,2.75,2.7096,2.6916,2.7018,2.7781,2.8247,2.8545,2.9858,3.0468,3.0435,3.0237,2.9897,2.9433,2.9168,2.8439,2.7553,2.7819,2.8073,2.8215,2.8843,2.921,2.9304,2.9403,2.9458,2.9381,2.9287,2.9051,2.8608,2.7818,2.7525,2.7681,2.7476,2.7461,2.776,2.773,2.8329,2.952,3.0142,3.1107,3.2559,3.2948,3.3183,3.3382,3.3334,3.3334,3.3393,3.3393,3.3393,3.3393,3.3393,3.3393,3.3393,3.3393,3.3393,3.3393,3.3393,3.3393,3.3393,3.3393,3.3393,3.3393,3.3393,3.3393,3.3393,3.3393,3.3393,3.3393,3.3393,3.3393,3.3484,3.4135,3.4498,3.4624,3.5983,3.6939,3.7102,3.7631,3.7902,3.7123,3.6508,3.5693,3.5077,3.4461,3.3791,3.3683,3.361,3.3538,3.3447,3.3429,3.3701,3.3791,3.3701,3.3484,3.3393,3.3393,3.3447,3.3484,3.3755,3.4027,3.4172,3.4498,3.4818,2.0182,2.0271,2.0623,2.1054,2.1524,2.2072,2.2933,2.4149,2.4847,2.5726,2.6695,2.7357,2.756,2.7545,2.7485,2.7515,2.7564,2.7984,2.8503,2.91,3.0038,3.0468,3.0435,2.9831,2.9383,2.9168,2.8671,2.8047,2.7474,2.8638,2.9415,2.9671,3.0166,3.0466,3.0804,3.0757,3.0937,3.0886,3.0597,3.0421,3.0259,2.8749,2.8089,2.8415,2.7967,2.773,2.7968,2.7789,2.8458,2.9889,3.0131,3.0826,3.2176,3.2457,3.2725,3.3244,3.3208,3.3226,3.3364,3.3393,3.3393,3.3393,3.3393,3.3393,3.3393,3.3393,3.3393,3.3393,3.3393,3.3393,3.3393,3.3393,3.3393,3.3393,3.3393,3.3393,3.3393,3.3393,3.3393,3.3411,3.3484,3.3447,3.361,3.4371,3.4932,3.5222,3.6164,3.7142,3.7214,3.7775,3.7757,3.7265,3.6798,3.6236,3.5657,3.5113,3.4498,3.4009,3.3918,3.3846,3.3683,3.3665,3.4697,3.495,3.4461,3.4226,3.3864,3.3882,3.3991,3.4099,3.4353,3.4637,3.4915,3.5254,3.5708,2.0141,2.0547,2.0783,2.1399,2.2219,2.2591,2.3398,2.4541,2.5231,2.5991,2.6707,2.7357,2.756,2.756,2.756,2.756,2.7645,2.8373,2.8914,2.9241,3.007,3.0468,3.0361,2.9748,2.8887,2.8042,2.7765,2.7549,2.7686,2.8832,2.9497,2.9646,3.0285,3.0675,3.0651,3.0998,3.1157,3.1112,3.1291,3.1182,3.0715,2.9839,2.9215,2.8763,2.8075,2.773,2.776,2.773,2.824,2.9308,2.9839,3.0808,3.2072,3.2406,3.2626,3.2979,3.3244,3.3316,3.3364,3.3393,3.3393,3.3393,3.3393,3.3393,3.3393,3.3393,3.3393,3.3393,3.3393,3.3393,3.3393,3.3393,3.3393,3.3393,3.3393,3.3393,3.3393,3.3393,3.3393,3.3484,3.4027,3.4443,3.4715,3.5439,3.6073,3.6182,3.7087,3.7739,3.7848,3.7957,3.7848,3.7192,3.6942,3.6761,3.6109,3.5802,3.5584,3.5041,3.4769,3.4516,3.4262,3.4407,3.5439,3.5838,3.5367,3.4945,3.4534,3.4474,3.4667,3.4957,3.5302,3.5557,3.5684,3.6097,3.6675,2.0202,2.0706,2.0784,2.1538,2.263,2.284,2.3506,2.4483,2.5203,2.5797,2.639,2.6982,2.7408,2.7575,2.756,2.756,2.7675,2.8448,2.8889,2.9212,3.007,3.0352,2.9996,2.9052,2.8224,2.7566,2.7582,2.7827,2.8125,2.9201,2.9831,2.993,3.0336,3.0609,3.0568,3.0958,3.1157,3.1252,3.1709,3.1811,3.1429,3.1094,3.044,2.9386,2.8263,2.7754,2.7701,2.7701,2.807,2.8983,3.0176,3.144,3.2318,3.2406,3.2558,3.2852,3.3122,3.3274,3.3364,3.3393,3.3393,3.3393,3.3393,3.3393,3.3393,3.3393,3.3393,3.3393,3.3393,3.3393,3.3393,3.3393,3.3393,3.3393,3.3393,3.3393,3.3393,3.3393,3.3393,3.3592,3.4298,3.5204,3.6164,3.6381,3.7029,3.7087,3.7667,3.8192,3.8192,3.8174,3.7812,3.7591,3.754,3.7142,3.6472,3.6417,3.658,3.62,3.5802,3.5494,3.5222,3.5507,3.6214,3.6439,3.6172,3.5854,3.5454,3.5496,3.5654,3.5988,3.6261,3.6582,3.6828,3.7379,3.7856,2.0318,2.0743,2.0806,2.161,2.2764,2.2885,2.3354,2.4118,2.4778,2.537,2.5892,2.651,2.71,2.7509,2.756,2.756,2.771,2.811,2.8545,2.9085,2.9789,2.9898,2.9102,2.8042,2.7499,2.7433,2.7997,2.8655,2.9185,2.998,3.0468,3.0402,3.046,3.051,3.0568,3.0855,3.1157,3.1504,3.2054,3.2318,3.2283,3.23,3.1563,3.0071,2.8544,2.773,2.7777,2.7777,2.8164,2.9136,3.1105,3.223,3.2406,3.2406,3.2558,3.282,3.2979,3.3165,3.3334,3.3393,3.3393,3.3393,3.3393,3.3393,3.3393,3.3393,3.3393,3.3393,3.3393,3.3393,3.3393,3.3393,3.3393,3.3393,3.3393,3.3393,3.3393,3.3393,3.3393,3.3556,3.4371,3.5711,3.7449,3.7359,3.7087,3.725,3.7775,3.8101,3.8192,3.8192,3.8192,3.8101,3.7957,3.7721,3.7105,3.7196,3.7323,3.7123,3.6798,3.6562,3.6327,3.6612,3.683,3.7,3.7018,3.669,3.651,3.6474,3.6553,3.6803,3.7143,3.7579,3.795,3.8364,3.8645,2.0819,2.1305,2.1707,2.2342,2.2993,2.328,2.3533,2.3852,2.4607,2.5258,2.5837,2.6457,2.6997,2.7575,2.7575,2.756,2.7665,2.8046,2.8249,2.8363,2.8871,2.8657,2.7987,2.7495,2.7317,2.7433,2.8042,2.8738,2.9433,3.0179,3.0468,3.0468,3.0468,3.0468,3.0551,3.0797,3.1173,3.1542,3.209,3.2406,3.244,3.2406,3.1651,3.0141,2.8579,2.7865,2.7911,2.8007,2.8681,2.9907,3.1472,3.2406,3.244,3.244,3.2491,3.2626,3.3011,3.3226,3.3226,3.3334,3.3393,3.3393,3.3393,3.3393,3.3393,3.3393,3.3393,3.3393,3.3393,3.3393,3.3393,3.3393,3.3393,3.3393,3.3393,3.3393,3.3393,3.3393,3.3393,3.3484,3.419,3.5729,3.6997,3.7449,3.7142,3.7631,3.7902,3.8174,3.8156,3.8192,3.8192,3.8192,3.8119,3.8065,3.7975,3.8029,3.8047,3.7938,3.7809,3.7718,3.7591,3.7631,3.779,3.7851,3.7736,3.7449,3.7326,3.7257,3.7439,3.7661,3.7959,3.8356,3.8571,3.8896,3.9072,2.0991,2.1531,2.2083,2.2636,2.3233,2.345,2.3569,2.3819,2.4274,2.4878,2.5481,2.6068,2.6669,2.7203,2.7473,2.741,2.7235,2.747,2.7472,2.74,2.764,2.7604,2.7271,2.7031,2.7131,2.7798,2.8196,2.8936,2.9781,3.0328,3.0452,3.0468,3.0468,3.0468,3.051,3.0838,3.1196,3.1579,3.1965,3.2267,3.2574,3.2457,3.1628,3.0409,2.9223,2.8688,2.8241,2.8146,2.8866,3.014,3.1158,3.1918,3.2555,3.274,3.274,3.2659,3.2979,3.3165,3.3256,3.3334,3.3393,3.3393,3.3393,3.3393,3.3393,3.3393,3.3393,3.3393,3.3393,3.3393,3.3393,3.3393,3.3393,3.3393,3.3393,3.3393,3.3393,3.3393,3.3393,3.3592,3.4154,3.4824,3.62,3.6272,3.6888,3.7359,3.7413,3.7757,3.8047,3.8138,3.8225,3.8225,3.8225,3.8204,3.8249,3.8318,3.8368,3.83,3.8382,3.8405,3.8325,3.8292,3.8168,3.8114,3.8234,3.8212,3.7936,3.7953,3.8464,3.8692,3.8894,3.896,3.9101,3.9175,3.9406,2.1066,2.1631,2.2171,2.2745,2.3305,2.339,2.3582,2.376,2.3936,2.4332,2.5048,2.5577,2.6158,2.6634,2.7282,2.723,2.6632,2.6789,2.6517,2.6448,2.6557,2.6651,2.685,2.6551,2.7081,2.8113,2.8412,2.9201,3.0096,3.0493,3.0526,3.0568,3.0551,3.0568,3.0634,3.0918,3.1295,3.1657,3.1894,3.2301,3.2619,3.2393,3.1579,3.0587,2.9858,2.9129,2.8477,2.8317,2.8905,3.03,3.0457,3.1395,3.2616,3.3196,3.3226,3.3011,3.3011,3.3135,3.3304,3.3364,3.3393,3.3393,3.3393,3.3393,3.3393,3.3393,3.3393,3.3393,3.3393,3.3393,3.3393,3.3393,3.3393,3.3393,3.3393,3.3393,3.3393,3.3393,3.3393,3.3411,3.4081,3.4027,3.4063,3.4679,3.6019,3.7105,3.7178,3.7431,3.7866,3.8156,3.8259,3.8307,3.8307,3.8307,3.8401,3.8528,3.8541,3.8603,3.8683,3.8701,3.8519,3.8437,3.8245,3.819,3.8295,3.8261,3.8138,3.8449,3.8943,3.9099,3.8897,3.9152,3.9464,3.9432,3.9552,2.1644,2.2184,2.2736,2.3025,2.3198,2.3343,2.3463,2.3522,2.3772,2.4203,2.4808,2.5453,2.5852,2.6025,2.7003,2.72,2.6572,2.6471,2.6272,2.5605,2.5679,2.5778,2.6003,2.6165,2.7105,2.8151,2.845,2.9231,3.0236,3.0609,3.0634,3.0651,3.0733,3.0831,3.0855,3.1123,3.149,3.1841,3.2074,3.2364,3.2513,3.2028,3.1283,3.0451,2.9444,2.8766,2.8479,2.8458,2.9188,3.017,3.0485,3.1124,3.2559,3.3196,3.3334,3.3304,3.3274,3.3274,3.3226,3.3334,3.3393,3.3393,3.3393,3.3393,3.3393,3.3393,3.3393,3.3393,3.3393,3.3393,3.3393,3.3393,3.3393,3.3393,3.3393,3.3393,3.3393,3.3393,3.3393,3.3447,3.3592,3.3628,3.352,3.4335,3.5494,3.658,3.7015,3.716,3.7645,3.8171,3.834,3.8451,3.8483,3.8515,3.8621,3.8755,3.8844,3.8902,3.9007,3.9054,3.887,3.8725,3.8578,3.8431,3.8361,3.8327,3.8327,3.8182,3.8552,3.8707,3.8898,3.9144,3.9327,3.9477,3.962,2.2033,2.2372,2.284,2.3125,2.3138,2.3198,2.3343,2.3403,2.3595,2.3923,2.4421,2.5021,2.5423,2.5783,2.6659,2.6817,2.606,2.542,2.5092,2.4868,2.5084,2.5346,2.5745,2.6478,2.7481,2.8405,2.8854,2.9676,3.0425,3.0733,3.0773,3.0773,3.0855,3.0871,3.0992,3.1376,3.1472,3.1481,3.1839,3.209,3.1888,3.1369,3.0707,3.0055,2.9071,2.8502,2.851,2.8562,2.9194,3.0007,3.0438,3.123,3.2626,3.3214,3.3364,3.3393,3.3393,3.3364,3.3304,3.3316,3.3393,3.3393,3.3393,3.3393,3.3393,3.3393,3.3393,3.3393,3.3393,3.3393,3.3393,3.3393,3.3393,3.3393,3.3393,3.3393,3.3393,3.3393,3.3393,3.3484,3.3791,3.4045,3.4317,3.4643,3.5476,3.6761,3.6812,3.6993,3.7931,3.8451,3.8528,3.8652,3.8713,3.8773,3.8862,3.8989,3.9147,3.9229,3.9309,3.9328,3.9293,3.9154,3.9024,3.8858,3.8729,3.8674,3.8637,3.8461,3.8207,3.8364,3.8609,3.8901,3.9226,3.9496,3.962,2.2243,2.2472,2.2937,2.3125,2.3125,2.3125,2.3198,2.333,2.3403,2.3582,2.3897,2.4399,2.497,2.564,2.6121,2.6021,2.5325,2.4552,2.4232,2.4284,2.4766,2.5082,2.5648,2.6689,2.7704,2.8431,2.9204,3.0028,3.0486,3.0845,3.0778,3.0778,3.0935,3.1015,3.1157,3.1411,3.1551,3.1282,3.1458,3.1554,3.1245,3.0751,3.0112,2.9413,2.8943,2.858,2.8587,2.8641,2.9065,2.9898,3.0405,3.1441,3.2667,3.3196,3.3393,3.3393,3.3393,3.3393,3.3364,3.3393,3.3393,3.3393,3.3393,3.3393,3.3393,3.3393,3.3393,3.3393,3.3393,3.3393,3.3393,3.3393,3.3393,3.3393,3.3393,3.3393,3.3393,3.3393,3.3393,3.3465,3.3737,3.4027,3.4588,3.5077,3.5983,3.6739,3.6753,3.7035,3.8026,3.8634,3.8755,3.8862,3.8921,3.9064,3.9147,3.9202,3.9354,3.9406,3.9527,3.9527,3.9527,3.9446,3.9301,3.9245,3.9156,3.9032,3.8856,3.8581,3.8403,3.8276,3.8426,3.8827,3.9189,3.9539,3.9602,2.2075,2.3,2.304,2.3125,2.3125,2.3125,2.3138,2.3198,2.333,2.3522,2.3682,2.3917,2.4423,2.4998,2.5106,2.5037,2.4893,2.4418,2.4073,2.397,2.4461,2.4965,2.5365,2.6627,2.7514,2.8132,2.9038,2.9805,3.0141,3.0549,3.0639,3.0376,3.0785,3.1235,3.1305,3.1394,3.1315,3.1062,3.1088,3.1128,3.0984,3.0351,2.9548,2.8933,2.8677,2.8605,2.8587,2.8659,2.9282,3.0477,2.9626,3.0758,3.2473,3.3255,3.3393,3.3393,3.3393,3.3393,3.3393,3.3393,3.3393,3.3393,3.3393,3.3393,3.3393,3.3393,3.3393,3.3393,3.3393,3.3393,3.3393,3.3393,3.3393,3.3393,3.3393,3.3393,3.3393,3.3393,3.3393,3.3429,3.3665,3.4075,3.4806,3.5599,3.6521,3.7116,3.727,3.7612,3.835,3.8829,3.9036,3.9092,3.912,3.9301,3.9476,3.9476,3.9527,3.9527,3.9577,3.9577,3.9596,3.9596,3.9539,3.9439,3.9308,3.9146,3.8946,3.8764,3.8651,3.8582,3.8694,3.8826,3.9014,3.9263,3.9508,2.1008,2.1817,2.2075,2.239,2.2689,2.2965,2.3138,2.3271,2.333,2.3522,2.3669,2.3785,2.4209,2.486,2.5202,2.5185,2.501,2.4313,2.3939,2.3782,2.4271,2.4759,2.5068,2.6439,2.7201,2.7841,2.8757,2.9534,2.9905,3.028,3.047,3.0723,3.1055,3.1181,3.1143,3.1115,3.0797,3.0606,3.0404,3.0278,3.0206,2.9427,2.8949,2.8732,2.8587,2.8587,2.8587,2.8587,2.8938,2.9572,2.9826,3.0713,3.1926,3.2958,3.3393,3.3393,3.3393,3.3393,3.3393,3.3393,3.3393,3.3393,3.3393,3.3393,3.3393,3.3393,3.3393,3.3393,3.3393,3.3393,3.3393,3.3393,3.3393,3.3393,3.3393,3.3393,3.3393,3.3393,3.3411,3.3574,3.4407,3.4951,3.5203,3.6072,3.7004,3.7503,3.7796,3.8236,3.8768,3.8984,3.9202,3.9301,3.9354,3.9425,3.9571,3.9596,3.962,3.962,3.962,3.962,3.962,3.962,3.962,3.9558,3.9432,3.9282,3.932,3.9239,3.9051,3.8882,3.8957,3.8976,3.8863,3.8939,3.9094,1.9901,2.0505,2.1041,2.1577,2.2185,2.2714,2.3097,2.333,2.339,2.3582,2.3806,2.3677,2.4032,2.4869,2.5201,2.5351,2.5284,2.4118,2.367,2.3696,2.412,2.4533,2.514,2.595,2.6784,2.7305,2.783,2.8814,2.936,2.9715,3.0142,3.0142,3.048,3.0728,3.0508,3.0415,2.9982,2.9773,2.9323,2.9052,2.8585,2.844,2.8492,2.8536,2.8543,2.8587,2.8587,2.8587,2.8913,2.9427,2.997,3.0767,3.1564,3.2723,3.3375,3.3393,3.3393,3.3393,3.3393,3.3393,3.3393,3.3393,3.3393,3.3393,3.3393,3.3393,3.3393,3.3393,3.3393,3.3393,3.3393,3.3393,3.3393,3.3393,3.3393,3.3411,3.3484,3.3538,3.361,3.4135,3.5204,3.5799,3.6065,3.657,3.7526,3.8107,3.8416,3.8538,3.901,3.9147,3.9354,3.9502,3.9571,3.9571,3.9596,3.9596,3.962,3.962,3.962,3.962,3.962,3.962,3.9583,3.9489,3.9602,3.9508,3.9602,3.9508,3.9151,3.8957,3.9107,3.8882,3.8319,3.8136,3.8235,1.9253,1.9925,2.0471,2.0991,2.1496,2.2126,2.2711,2.3088,2.3318,2.345,2.3662,2.3341,2.3853,2.4681,2.4732,2.4757,2.452,2.4029,2.3595,2.3681,2.4036,2.4477,2.4965,2.553,2.6131,2.6612,2.6801,2.7244,2.8161,2.8839,2.8856,2.8755,2.9338,2.9504,2.9929,2.9621,2.9319,2.9458,2.8784,2.819,2.795,2.8017,2.8138,2.8228,2.8422,2.8587,2.8587,2.8641,2.9101,3.026,2.9463,3.0459,3.2524,3.3212,3.3375,3.3393,3.3393,3.3393,3.3393,3.3393,3.3393,3.3393,3.3393,3.3393,3.3393,3.3393,3.3393,3.3393,3.3393,3.3393,3.3393,3.3393,3.3393,3.3393,3.3393,3.3393,3.3447,3.3954,3.3991,3.4582,3.5597,3.6352,3.6863,3.7419,3.7987,3.8533,3.8997,3.91,3.9203,3.9346,3.9432,3.9552,3.962,3.962,3.9451,3.947,3.932,3.9395,3.9263,3.9339,3.9489,3.9432,3.9301,3.9263,3.9339,3.9288,3.9129,3.8992,3.8968,3.8705,3.8376,3.792,3.738,3.7351,3.7445,1.7741,1.8442,1.9285,1.9747,2.0203,2.1605,2.2305,2.2496,2.3179,2.3641,2.3721,2.3586,2.3879,2.4286,2.396,2.3918,2.4024,2.3762,2.361,2.3595,2.3867,2.4162,2.4517,2.4839,2.5269,2.5994,2.6154,2.6532,2.7246,2.7908,2.8176,2.8537,2.8884,2.9214,2.9292,2.8952,2.8818,2.8617,2.8131,2.7742,2.7742,2.7876,2.8027,2.8102,2.8422,2.8587,2.8587,2.8605,2.9119,3.0115,2.9844,3.0514,3.1944,3.2777,3.3393,3.3393,3.3393,3.3393,3.3393,3.3393,3.3393,3.3393,3.3393,3.3393,3.3393,3.3393,3.3393,3.3393,3.3393,3.3393,3.3393,3.3393,3.3393,3.3393,3.3393,3.3393,3.3556,3.4208,3.4643,3.5289,3.5937,3.668,3.7418,3.7978,3.8432,3.8923,3.9275,3.9365,3.941,3.9476,3.9552,3.9596,3.962,3.962,3.9357,3.9164,3.8732,3.8601,3.8094,3.8319,3.9076,3.9169,3.877,3.8343,3.8023,3.8089,3.8346,3.8493,3.8423,3.7947,3.7411,3.7114,3.6835,3.6748,3.6806,1.6637,1.7088,1.8047,1.8612,1.9101,2.1031,2.1882,2.1996,2.3018,2.3628,2.3767,2.3755,2.3747,2.373,2.334,2.3243,2.3883,2.357,2.3509,2.3551,2.3638,2.3894,2.4245,2.4467,2.4879,2.5758,2.5885,2.6222,2.6705,2.7214,2.7754,2.8418,2.827,2.849,2.8436,2.8303,2.8163,2.7924,2.76,2.7413,2.7444,2.7742,2.7886,2.811,2.8326,2.8587,2.8587,2.8587,2.9011,2.9753,3.0514,3.1111,3.2017,3.2868,3.3357,3.3393,3.3393,3.3393,3.3393,3.3393,3.3393,3.3393,3.3393,3.3393,3.3393,3.3393,3.3393,3.3393,3.3393,3.3393,3.3393,3.3393,3.3393,3.3393,3.3393,3.3393,3.352,3.419,3.4888,3.5512,3.6208,3.7076,3.7763,3.8414,3.8894,3.9343,3.9552,3.9558,3.9464,3.937,3.9464,3.9451,3.9164,3.9126,3.892,3.8638,3.8263,3.785,3.7324,3.7324,3.8061,3.8056,3.7624,3.7216,3.6829,3.703,3.7343,3.7634,3.7868,3.7366,3.692,3.6653,3.6439,3.6296,3.6211,1.6431,1.6488,1.7088,1.7902,1.8918,2.0151,2.1326,2.2085,2.2993,2.3484,2.3623,2.3404,2.3583,2.3649,2.2992,2.2944,2.3807,2.3211,2.3305,2.3508,2.3638,2.3852,2.412,2.4369,2.4759,2.5535,2.5738,2.6082,2.6503,2.6741,2.6877,2.6911,2.7402,2.7262,2.7353,2.758,2.7483,2.7334,2.7195,2.7085,2.7149,2.7413,2.7742,2.7904,2.8264,2.8587,2.8587,2.8587,2.9083,2.9862,3.0314,3.1655,3.256,3.3121,3.3393,3.3393,3.3393,3.3339,3.3248,3.3321,3.3393,3.3393,3.3393,3.3393,3.3393,3.3393,3.3393,3.3393,3.3393,3.3393,3.3393,3.3393,3.3393,3.3393,3.3393,3.3393,3.361,3.4172,3.4888,3.5648,3.6396,3.7062,3.7314,3.7757,3.8681,3.9141,3.9114,3.912,3.8939,3.8863,3.9145,3.9107,3.8676,3.845,3.8281,3.7925,3.7437,3.708,3.6686,3.6667,3.6986,3.6761,3.6441,3.6201,3.5886,3.6119,3.6367,3.6723,3.6896,3.6709,3.6449,3.6195,3.601,3.5869,3.5743,1.6374,1.6431,1.6637,1.7164,1.7969,1.9495,2.0528,2.135,2.2397,2.3275,2.3708,2.3371,2.3126,2.2924,2.265,2.2407,2.279,2.2944,2.3187,2.348,2.3638,2.3724,2.3909,2.4078,2.4354,2.502,2.5422,2.5832,2.6227,2.6521,2.6674,2.6742,2.6858,2.707,2.7198,2.7149,2.7085,2.6923,2.6906,2.6891,2.7149,2.743,2.7771,2.7964,2.8317,2.8587,2.8587,2.8587,2.9373,2.9989,2.988,3.1202,3.2777,3.3121,3.3212,3.3266,3.3266,3.3103,3.285,3.3031,3.3375,3.3393,3.3393,3.3375,3.3357,3.3393,3.3393,3.3393,3.3393,3.3393,3.3393,3.3393,3.3393,3.3393,3.3393,3.3393,3.3628,3.4117,3.4268,3.4808,3.5806,3.6726,3.682,3.6897,3.796,3.8875,3.8745,3.8627,3.8389,3.8206,3.8413,3.8488,3.8056,3.7737,3.7549,3.708,3.6554,3.6295,3.6032,3.6017,3.5998,3.5562,3.5246,3.5036,3.521,3.5567,3.5832,3.5969,3.6039,3.6067,3.5955,3.5777,3.5611,3.5514,3.555,1.6374,1.6374,1.6374,1.6684,1.739,1.9086,2.0088,2.0782,2.2168,2.3,2.3535,2.3111,2.2662,2.2206,2.186,2.1978,2.2208,2.2512,2.3054,2.3363,2.3595,2.3595,2.3638,2.3852,2.423,2.4688,2.516,2.5668,2.635,2.659,2.6657,2.6758,2.6923,2.6989,2.7021,2.7053,2.6923,2.6758,2.6725,2.6841,2.7164,2.7595,2.7858,2.8102,2.8422,2.8587,2.8587,2.8623,2.9047,2.9572,2.988,3.0496,3.1709,3.256,3.2542,3.2687,3.2814,3.2632,3.227,3.227,3.2795,3.2868,3.2958,3.3103,3.3321,3.3393,3.3393,3.3393,3.3393,3.3393,3.3393,3.3393,3.3393,3.3393,3.3393,3.3393,3.3484,3.381,3.3719,3.3852,3.4776,3.5502,3.6056,3.612,3.7147,3.8121,3.8458,3.8112,3.7596,3.7474,3.7479,3.7497,3.7324,3.7061,3.6798,3.6201,3.5719,3.5633,3.5369,3.5143,3.4953,3.4689,3.4812,3.5108,3.5261,3.5251,3.5454,3.576,3.5681,3.5573,3.556,3.5649,3.5689,3.5678,3.5708,1.6405,1.6374,1.6415,1.6736,1.7409,1.9057,2.0053,2.0879,2.2334,2.2997,2.2904,2.2604,2.2139,2.159,2.1272,2.1466,2.1902,2.2128,2.2634,2.3334,2.3551,2.3595,2.3653,2.3824,2.423,2.5005,2.5389,2.5815,2.6573,2.6657,2.6691,2.6708,2.6758,2.6791,2.6725,2.6725,2.6691,2.6691,2.6708,2.6891,2.7289,2.7713,2.7971,2.8246,2.8448,2.8587,2.8587,2.8587,2.892,2.9192,2.9626,3.026,3.1184,3.1021,3.093,3.1039,3.1781,3.1727,3.1148,3.1093,3.1473,3.2234,3.2506,3.2723,3.3212,3.3393,3.3393,3.3393,3.3393,3.3393,3.3393,3.3393,3.3393,3.3433,3.3433,3.3452,3.3571,3.3608,3.3553,3.3506,3.347,3.3767,3.4623,3.5416,3.6397,3.7216,3.7863,3.7638,3.685,3.655,3.6464,3.6408,3.631,3.6246,3.591,3.5268,3.4858,3.4827,3.4868,3.4811,3.485,3.4927,3.5089,3.5292,3.5355,3.5388,3.5476,3.5611,3.5581,3.5607,3.5629,3.5718,3.5757,3.5794,3.5803,1.7005,1.7274,1.7274,1.7384,1.7603,1.8211,1.9506,2.1253,2.2443,2.2949,2.2763,2.2525,2.206,2.1577,2.1328,2.1352,2.1616,2.2035,2.2543,2.3127,2.348,2.3551,2.3653,2.3912,2.4276,2.4784,2.5253,2.5787,2.628,2.6623,2.6725,2.6708,2.6708,2.6708,2.6708,2.6708,2.6691,2.6691,2.6758,2.6939,2.7474,2.7829,2.8128,2.8378,2.8543,2.8587,2.8587,2.8587,2.8793,2.9065,2.95,2.9735,3.0586,3.0532,3.0224,2.9989,3.0296,3.0659,3.0133,2.9989,3.0387,3.1401,3.2162,3.2488,3.3248,3.3375,3.3393,3.3393,3.3393,3.3393,3.3393,3.3393,3.3452,3.3559,3.3615,3.3633,3.367,3.3642,3.3623,3.3538,3.3509,3.378,3.4388,3.4939,3.582,3.6016,3.6524,3.6321,3.5634,3.539,3.5243,3.5243,3.5187,3.5216,3.5052,3.4983,3.4926,3.5018,3.4982,3.4908,3.4982,3.5127,3.5273,3.5457,3.5509,3.5541,3.5596,3.5657,3.5718,3.5756,3.5727,3.5718,3.5747,3.5775,3.5803,1.7111,1.7637,1.7503,1.7616,1.7937,1.8266,1.965,2.1437,2.2502,2.276,2.2334,2.2122,2.176,2.1342,2.1236,2.1522,2.1589,2.1955,2.2589,2.3068,2.3421,2.3595,2.3784,2.4109,2.4675,2.507,2.579,2.6368,2.6604,2.6908,2.6911,2.6776,2.6708,2.6708,2.6708,2.6708,2.6791,2.6791,2.6891,2.7083,2.7666,2.8083,2.8335,2.8492,2.8587,2.8587,2.8587,2.8677,2.8848,2.9101,2.9156,2.9075,2.9916,3.0025,2.9644,2.9156,2.9119,2.9663,2.9626,2.9137,2.9771,3.0966,3.1546,3.2325,3.3103,3.3375,3.3393,3.3393,3.3393,3.3433,3.3462,3.3481,3.3605,3.3753,3.3807,3.3807,3.378,3.378,3.3753,3.3643,3.3726,3.3998,3.4264,3.4666,3.5274,3.5199,3.5127,3.4864,3.4714,3.4658,3.4602,3.4639,3.4701,3.4879,3.5078,3.5245,3.5216,3.5212,3.5149,3.5066,3.5155,3.5308,3.5468,3.5591,3.5604,3.5608,3.5667,3.5728,3.5747,3.5765,3.5754,3.5745,3.5736,3.5756,3.5793,1.6964,1.7575,1.7234,1.7657,1.8437,1.9165,2.0293,2.1522,2.249,2.2295,2.1367,2.1524,2.1237,2.0843,2.0751,2.1207,2.1908,2.2095,2.2694,2.3275,2.3566,2.3726,2.4068,2.4574,2.5261,2.6052,2.6639,2.6962,2.7147,2.7175,2.7097,2.6826,2.6708,2.6708,2.6708,2.6791,2.6923,2.6989,2.7068,2.7334,2.784,2.8219,2.8317,2.8414,2.8466,2.8492,2.8518,2.858,2.8623,2.8703,2.8641,2.8623,2.8659,2.8623,2.8587,2.8605,2.8659,2.9101,2.9373,2.8848,2.9156,3.0188,3.0767,3.1836,3.285,3.3393,3.3393,3.3393,3.3393,3.352,3.3633,3.3744,3.3807,3.3913,3.4016,3.3998,3.3972,3.3947,3.3921,3.3921,3.3998,3.4173,3.4358,3.4682,3.4902,3.4846,3.4827,3.4771,3.4639,3.4639,3.4602,3.4602,3.4663,3.4728,3.4944,3.5232,3.535,3.5288,3.5321,3.5258,3.5374,3.5455,3.5554,3.5628,3.5673,3.5706,3.5698,3.5708,3.5736,3.5745,3.5782,3.5782,3.5773,3.5773,3.5801,1.7874,1.8651,1.8537,1.864,1.911,2.0389,2.1008,2.1141,2.1654,2.1597,2.1302,2.1029,2.0948,2.0712,2.1046,2.1388,2.1827,2.2374,2.2799,2.3246,2.3668,2.4113,2.4602,2.5179,2.6047,2.6693,2.7192,2.7415,2.7423,2.7384,2.7046,2.6725,2.6708,2.6708,2.6758,2.6906,2.7053,2.7213,2.7276,2.7535,2.7725,2.7971,2.8045,2.8083,2.8273,2.8299,2.8352,2.8518,2.8569,2.8587,2.8587,2.8587,2.8587,2.8587,2.8587,2.8587,2.8605,2.8714,2.8884,2.8732,2.892,2.9663,3.0459,3.1781,3.2832,3.3321,3.3321,3.3393,3.3462,3.3633,3.3726,3.3834,3.3947,3.4074,3.4148,3.4173,3.4173,3.4148,3.4124,3.4124,3.4197,3.4316,3.4473,3.4555,3.4733,3.4639,3.4602,3.4602,3.4602,3.4602,3.4602,3.4602,3.4626,3.4689,3.4908,3.5168,3.5307,3.5391,3.5405,3.5451,3.554,3.5604,3.5628,3.5662,3.5706,3.5707,3.5698,3.5728,3.5765,3.5782,3.5791,3.5791,3.5791,3.5791,3.5791,1.8092,1.9048,1.901,1.9097,1.9584,2.0484,2.0899,2.1057,2.1581,2.1658,2.1355,2.1172,2.1053,2.1079,2.1356,2.1667,2.1874,2.242,2.2979,2.3566,2.3842,2.4122,2.4713,2.5481,2.6052,2.6808,2.7343,2.7611,2.7458,2.7097,2.6708,2.6708,2.6708,2.6708,2.6758,2.6858,2.7038,2.7276,2.7461,2.7672,2.7701,2.7701,2.7742,2.7886,2.8093,2.8228,2.8281,2.8518,2.8569,2.8587,2.8587,2.8587,2.8587,2.8587,2.8587,2.8587,2.8587,2.8605,2.8659,2.8641,2.8902,2.9373,3.0079,3.1057,3.2144,3.2832,3.314,3.3393,3.3577,3.3698,3.3815,3.3921,3.4074,3.4221,3.4293,3.434,3.4363,3.4381,3.4358,3.4335,3.4404,3.4517,3.4602,3.4602,3.4602,3.4602,3.4602,3.4602,3.4602,3.4602,3.4602,3.4602,3.4626,3.4668,3.4889,3.5086,3.5243,3.5405,3.5553,3.5608,3.5704,3.5704,3.5673,3.5676,3.5707,3.5708,3.5737,3.5766,3.5793,3.581,3.5791,3.5791,3.5791,3.5791,3.5791,1.7812,1.9038,1.8889,1.92,1.9835,2.0118,2.0597,2.1332,2.2056,2.2101,2.1577,2.1433,2.1367,2.1325,2.1565,2.1929,2.2225,2.2658,2.3275,2.4016,2.4237,2.4417,2.4756,2.543,2.6477,2.6782,2.7192,2.7831,2.7278,2.6924,2.6742,2.6759,2.6708,2.6708,2.6725,2.6825,2.6989,2.7085,2.743,2.7672,2.7642,2.7683,2.78,2.7982,2.8246,2.8492,2.8518,2.8543,2.8587,2.8587,2.8587,2.8587,2.8587,2.8587,2.8587,2.8587,2.8587,2.8587,2.8587,2.8587,2.8587,2.8938,2.9355,3.0079,3.1003,3.2632,3.3248,3.3462,3.3633,3.3807,3.3921,3.4074,3.4221,3.434,3.4427,3.4427,3.4386,3.445,3.4495,3.4473,3.4495,3.4602,3.4602,3.4602,3.4602,3.4602,3.4602,3.4602,3.4623,3.4623,3.4623,3.4623,3.4604,3.4668,3.4812,3.4997,3.5212,3.5378,3.5565,3.5673,3.5704,3.5695,3.5716,3.5718,3.5718,3.5747,3.5766,3.5784,3.5801,3.5791,3.5791,3.5791,3.5791,3.5791,3.5791,1.7821,1.8847,1.9219,1.9585,2.0053,2.0996,2.1346,2.1391,2.218,2.2247,2.1667,2.1286,2.1125,2.1255,2.1776,2.2207,2.2554,2.3112,2.3584,2.4282,2.4697,2.4973,2.5318,2.6432,2.7148,2.7526,2.7846,2.8106,2.7676,2.7231,2.7029,2.7402,2.7131,2.6843,2.6742,2.6875,2.6989,2.6956,2.7289,2.7491,2.7413,2.7552,2.7683,2.7742,2.7886,2.8237,2.8344,2.8492,2.8562,2.8587,2.8587,2.8587,2.8587,2.8587,2.8587,2.8587,2.8587,2.8587,2.8587,2.8587,2.8587,2.883,2.9156,2.9264,3.0206,3.2198,3.3343,3.3465,3.3643,3.3842,3.4049,3.4197,3.434,3.4427,3.4536,3.4473,3.4409,3.4495,3.4602,3.4602,3.4602,3.4602,3.4602,3.4602,3.4602,3.4602,3.4602,3.4623,3.4623,3.4645,3.4666,3.4666,3.4623,3.4668,3.4792,3.4962,3.5193,3.5345,3.5521,3.562,3.5704,3.5716,3.5728,3.5737,3.5737,3.5766,3.5775,3.5793,3.5791,3.5791,3.5791,3.5791,3.5791,3.5791,3.5791,1.807,1.8818,1.9479,1.9802,2.0129,2.1123,2.1587,2.1753,2.2299,2.2426,2.2181,2.1889,2.1648,2.1659,2.2282,2.2537,2.3013,2.3677,2.432,2.488,2.5319,2.5663,2.6388,2.7042,2.736,2.7737,2.834,2.8505,2.823,2.8061,2.8012,2.7859,2.7386,2.7063,2.6927,2.6957,2.6973,2.6808,2.7164,2.7258,2.7258,2.7504,2.7725,2.7695,2.7954,2.8246,2.8344,2.8518,2.8562,2.8587,2.8587,2.8587,2.8587,2.8587,2.8587,2.8587,2.8587,2.8587,2.8587,2.8587,2.8587,2.883,2.8902,2.8956,2.9228,3.1075,3.2669,3.2936,3.3437,3.3661,3.4049,3.4245,3.4381,3.4495,3.4558,3.4558,3.4517,3.4539,3.4583,3.4602,3.4602,3.4602,3.4602,3.4602,3.4623,3.4623,3.4623,3.4687,3.4687,3.4708,3.4728,3.4728,3.4708,3.473,3.4831,3.5015,3.5209,3.5359,3.5489,3.5601,3.5706,3.5747,3.5757,3.5756,3.5756,3.5784,3.5793,3.581,3.5791,3.5791,3.5791,3.5791,3.5791,3.5791,3.5791,1.8352,1.8988,1.9673,2.0009,2.0205,2.0828,2.1479,2.2066,2.2393,2.2713,2.2884,2.2804,2.2497,2.2576,2.3098,2.3169,2.3423,2.3928,2.4709,2.5375,2.6,2.5986,2.6304,2.6925,2.7561,2.8005,2.8478,2.877,2.8842,2.8572,2.8218,2.8015,2.7794,2.7555,2.7113,2.6926,2.6909,2.6957,2.7085,2.7132,2.7334,2.7636,2.7897,2.8147,2.8378,2.8587,2.8587,2.8587,2.8587,2.8587,2.8587,2.8587,2.8587,2.8587,2.8587,2.8587,2.8587,2.8587,2.8587,2.8587,2.8587,2.8605,2.8587,2.875,2.9083,3.0079,3.1673,3.2788,3.3259,3.3577,3.3965,3.4264,3.4404,3.4495,3.4558,3.4602,3.4602,3.4583,3.4583,3.4602,3.4623,3.4623,3.4623,3.4623,3.4645,3.4666,3.4708,3.4768,3.4809,3.483,3.4849,3.4869,3.4888,3.4908,3.4926,3.5051,3.5243,3.5386,3.5514,3.5635,3.5707,3.5757,3.5765,3.5782,3.5801,3.5801,3.5801,3.5791,3.5791,3.5791,3.5791,3.5791,3.5791,3.5791,3.5791,1.8391,1.9326,1.9878,2.0074,2.0205,2.0816,2.1491,2.2078,2.2523,2.2963,2.3307,2.3178,2.2798,2.2258,2.2933,2.3373,2.3845,2.432,2.4498,2.4981,2.6251,2.6191,2.6411,2.7534,2.816,2.8527,2.8725,2.8745,2.9316,2.883,2.8253,2.8169,2.7435,2.7213,2.7094,2.7007,2.7055,2.7117,2.7213,2.7321,2.7964,2.8201,2.8219,2.8352,2.8404,2.8543,2.8587,2.8587,2.8587,2.8587,2.8587,2.8587,2.8587,2.8587,2.8587,2.8587,2.8587,2.8587,2.8587,2.8739,2.8793,2.8811,2.8848,2.892,2.9318,2.988,3.1483,3.3052,3.3481,3.3549,3.3842,3.4124,3.4293,3.4404,3.4473,3.4558,3.4602,3.4602,3.4602,3.4604,3.4604,3.4626,3.4666,3.4687,3.4749,3.4769,3.4811,3.4869,3.4907,3.4927,3.4964,3.4983,3.502,3.5056,3.5053,3.5105,3.5281,3.5424,3.555,3.5667,3.5728,3.5756,3.5782,3.5791,3.5791,3.5791,3.5791,3.5791,3.5791,3.5791,3.5791,3.5791,3.5791,3.5791,3.5791]},{"header":{"parameterUnit":"m.s-1","parameterCategory":1,"la1":31.0,"la2":29.5877,"lo1":-88.7671,"lo2":-86.6584,"dx":0.0162,"dy":0.0185,"nx":115,"ny":88,"refTime":"2022-12-02T06:00:00:Z","depth":0,"parameterNumber":3,"parameterNumberName":"V-component_of_WINDS"},"data":[0.0,0.0,0.0,0.0,0.0,0.0,0.0,0.0,0.0,0.0,0.0,0.0,0.0,0.0,0.0,0.0,0.0,0.0,0.0,0.0,0.0,0.0,0.0,0.0,0.0,0.0,0.0,0.0,0.0,0.0,0.0,0.0,0.0,0.0,0.0,0.0,0.0,0.0,0.0,0.0,0.0,0.0,0.0,0.0,0.0,0.0,0.0,0.0,0.0,0.0,0.0,0.0,0.0,0.0,0.0,0.0,0.0,0.0,0.0,0.0,0.0,0.0,0.0,0.0,0.0,0.0,0.0,0.0,0.0,0.0,0.0,0.0,0.0,0.0,0.0,0.0,0.0,0.0,0.0,0.0,0.0,0.0,0.0,0.0,0.0,0.0,0.0,0.0,0.0,0.0,0.0,0.0,0.0,0.0,0.0,0.0,0.0,0.0,0.0,0.0,0.0,0.0,0.0,0.0,0.0,0.0,0.0,0.0,0.0,0.0,0.0,0.0,0.0,0.0,0.0,0.0,0.0,0.0,0.0,0.0,0.0,0.0,0.0,0.0,0.0,0.0,0.0,0.0,0.0,0.0,0.0,0.0,0.0,0.0,0.0,0.0,0.0,0.0,0.0,0.0,0.0,0.0,0.0,0.0,0.0,0.0,0.0,0.0,0.0,0.0,0.0,0.0,0.0,0.0,0.0,0.0,0.0,0.0,0.0,0.0,0.0,0.0,0.0,0.0,0.0,0.0,0.0,0.0,0.0,0.0,0.0,0.0,0.0,0.0,0.0,0.0,0.0,0.0,0.0,0.0,0.0,0.0,0.0,0.0,0.0,0.0,0.0,0.0,0.0,0.0,0.0,0.0,0.0,0.0,0.0,0.0,0.0,0.0,0.0,0.0,0.0,0.0,0.0,0.0,0.0,0.0,0.0,0.0,0.0,0.0,0.0,0.0,0.0,0.0,0.0,0.0,0.0,0.0,0.0,0.0,0.0,0.0,0.0,0.0,0.0,0.0,0.0,0.0,0.0,0.0,0.0,0.0,0.0,0.0,0.0,0.0,0.0,0.0,0.0,0.0,0.0,0.0,0.0,0.0,0.0,0.0,0.0,0.0,0.0,0.0,0.0,0.0,0.0,0.0,0.0,0.0,0.0,0.0,0.0,0.0,0.0,0.0,0.0,0.0,0.0,0.0,0.0,0.0,0.0,0.0,0.0,0.0,0.0,0.0,0.0,0.0,0.0,0.0,0.0,0.0,0.0,0.0,0.0,0.0,0.0,0.0,0.0,0.0,0.0,0.0,0.0,0.0,0.0,0.0,0.0,0.0,0.0,0.0,0.0,0.0,0.0,0.0,0.0,0.0,0.0,0.0,0.0,0.0,0.0,0.0,0.0,0.0,0.0,0.0,0.0,0.0,0.0,0.0,0.0,0.0,0.0,0.0,0.0,0.0,0.0,0.0,0.0,0.0,0.0,0.0,0.0,0.0,0.0,0.0,0.0,0.0,0.0,0.0,0.0,0.0,0.0,0.0,0.0,0.0,0.0,0.0,0.0,0.0,0.0,0.0,0.0,0.0,0.0,0.0,0.0,0.0,0.0,0.0,0.0,0.0,0.0,0.0,0.0,0.0,0.0,0.0,0.0,0.0,0.0,0.0,0.0,0.0,0.0,0.0,0.0,0.0,0.0,0.0,0.0,0.0,0.0,0.0,0.0,0.0,0.0,0.0,0.0,0.0,0.0,0.0,0.0,0.0,0.0,0.0,0.0,0.0,0.0,0.0,0.0,0.0,0.0,0.0,0.0,0.0,0.0,0.0,0.0,0.0,0.0,0.0,0.0,0.0,0.0,0.0,0.0,0.0,0.0,0.0,0.0,0.0,0.0,0.0,0.0,0.0,0.0,0.0,0.0,0.0,0.0,0.0,0.0,0.0,0.0,0.0,0.0,0.0,0.0,0.0,0.0,0.0,0.0,0.0,0.0,0.0,0.0,0.0,0.0,0.0,0.0,0.0,0.0,0.0,0.0,0.0,0.0,0.0,0.0,0.0,0.0,0.0,0.0,0.0,0.0,0.0,0.0,0.0,0.0,0.0,0.0,0.0,0.0,0.0,0.0,0.0,0.0,0.0,0.0,0.0,0.0,0.0,0.0,0.0,0.0,0.0,0.0,0.0,0.0,0.0,0.0,0.0,0.0,0.0,0.0,0.0,0.0,0.0,0.0,0.0,0.0,0.0,0.0,0.0,0.0,0.0,0.0,0.0,0.0,0.0,0.0,0.0,0.0,0.0,0.0,0.0,0.0,0.0,0.0,0.0,0.0,0.0,0.0,0.0,0.0,0.0,0.0,0.0,0.0,0.0,0.0,0.0,0.0,0.0,0.0,0.0,0.0,0.0,0.0,0.0,0.0,0.0,0.0,0.0,0.0,0.0,0.0,0.0,0.0,0.0,0.0,0.0,0.0,0.0,0.0,0.0,0.0,0.0,0.0,0.0,0.0,0.0,0.0,0.0,0.0,0.0,0.0,0.0,0.0,0.0,0.0,0.0,0.0,0.0,0.0,0.0,0.0,0.0,0.0,0.0,0.0,0.0,0.0,0.0,0.0,0.0,0.0,0.0,0.0,0.0,0.0,0.0,0.0,0.0,0.0,0.0,0.0,0.0,0.0,0.0,0.0,0.0,0.0,0.0,0.0,0.0,0.0,0.0,0.0,0.0,0.0,0.0,0.0,0.0,0.0,0.0,0.0,0.0,0.0,0.0,0.0,0.0,0.0,0.0,0.0,0.0,0.0,0.0,0.0,0.0,0.0,0.0,0.0,0.0,0.0,0.0,0.0,0.0,0.0,0.0,0.0,0.0,0.0,0.0,0.0,0.0,0.0,0.0,0.0,0.0,0.0,0.0,0.0,0.0,0.0,0.0,0.0,0.0,0.0,0.0,0.0,0.0,0.0,0.0,0.0,0.0,0.0,0.0,0.0,0.0,0.0,0.0,0.0,0.0,0.0,0.0,0.0,0.0,0.0,0.0,0.0,0.0,0.0,0.0,0.0,0.0,0.0,0.0,0.0,0.0,0.0,0.0,0.0,0.0,0.0,0.0,0.0,0.0,0.0,0.0,0.0,0.0,0.0,0.0,0.0,0.0,0.0,0.0,0.0,0.0,0.0,0.0,0.0,0.0,0.0,0.0,0.0,0.0,0.0,0.0,0.0,0.0,0.0,0.0,0.0,0.0,0.0,0.0,0.0,0.0,0.0,0.0,0.0,0.0,0.0,0.0,0.0,0.0,0.0,0.0,0.0,0.0,0.0,0.0,0.0,0.0,0.0,0.0,0.0,0.0,0.0,0.0,0.0,0.0,0.0,0.0,0.0,0.0,0.0,0.0,0.0,0.0,0.0,0.0,0.0,0.0,0.0,0.0,0.0,0.0,0.0,0.0,0.0,0.0,0.0,0.0,0.0,0.0,0.0,0.0,0.0,0.0,0.0,0.0,0.0,0.0,0.0,0.0,0.0,0.0,0.0,0.0,0.0,0.0,0.0,0.0,0.0,0.0,0.0,0.0,0.0,0.0,0.0,0.0,0.0,0.0,0.0,0.0,0.0,0.0,0.0,0.0,0.0,0.0,0.0,0.0,0.0,0.0,0.0,0.0,0.0,0.0,0.0,0.0,0.0,0.0,0.0,0.0,0.0,0.0,0.0,0.0,0.0,0.0,0.0,0.0,0.0,0.0,0.0,0.0,0.0,0.0,0.0,0.0,0.0,0.0,0.0,0.0,0.0,0.0,0.0,0.0,0.0,0.0,0.0,0.0,0.0,0.0,0.0,0.0,0.0,0.0,0.0,0.0,0.0,0.0,0.0,0.0,0.0,0.0,0.0,0.0,0.0,0.0,0.0,0.0,0.0,0.0,0.0,0.0,0.0,0.0,0.0,0.0,0.0,0.0,0.0,0.0,0.0,0.0,0.0,0.0,0.0,0.0,0.0,0.0,0.0,0.0,0.0,0.0,0.0,0.0,0.0,0.0,0.0,0.0,0.0,0.0,0.0,0.0,0.0,0.0,0.0,0.0,0.0,0.0,0.0,0.0,0.0,0.0,0.0,0.0,0.0,0.0,0.0,0.0,0.0,0.0,0.0,0.0,0.0,0.0,0.0,0.0,0.0,0.0,0.0,0.0,0.0,0.0,0.0,0.0,0.0,0.0,0.0,0.0,0.0,0.0,0.0,0.0,0.0,0.0,0.0,0.0,0.0,0.0,0.0,0.0,0.0,0.0,0.0,0.0,0.0,0.0,0.3687,0.0,0.0,0.0,0.273,0.0,0.0,0.0,0.0,0.0,0.0,0.0,0.0,0.0,0.0,0.0,0.0,0.0,0.0,0.0,0.0,0.0,0.0,0.0,0.0,0.0,0.0,0.0,0.0,0.0,0.0,0.0,0.0,0.0,0.0,0.0,0.0,0.0,0.0,0.0,0.0,0.0,0.0,0.0,0.0,0.0,0.0,0.0,0.0,0.0,0.0,0.0,0.0,0.0,0.0,0.0,0.0,0.0,0.0,0.0,0.0,0.0,0.0,0.0,0.0,0.0,0.0,0.0,0.0,0.0,0.0,0.0,0.0,0.0,0.0,0.0,0.0,0.0,0.0,0.0,0.0,0.0,0.0,0.0,0.0,0.0,0.0,0.0,0.0,0.0,0.0,0.0,0.0,0.0,0.0,0.0,0.0,0.0,0.0,0.0,0.0,0.0,0.0,0.0,0.0,0.0,0.0,0.0,0.0,0.0,0.0,0.0,0.0,0.0,0.0,0.3743,0.3239,0.3684,0.3483,0.2602,0.0,0.0,0.0,0.0,0.0,0.0,0.0,0.0,0.0,0.0,0.0,0.0,0.0,0.0,0.0,0.0,0.0,0.0,0.0,0.0,0.0,0.0,0.0,0.0,0.0,0.0,0.0,0.0,0.0,0.0,0.0,0.0,0.0,0.0,0.0,0.0,0.0,0.0,0.0,0.0,0.0,0.0,0.0,0.0,0.0,0.0,0.0,0.0,0.0,0.0,0.0,0.0,0.0,0.0,0.0,0.0,0.0,0.0,0.0,0.0,0.0,0.0,0.0,0.0,0.0,0.0,0.0,0.0,0.0,0.0,0.0,0.0,0.0,0.0,0.0,0.0,0.0,0.0,0.0,0.0,0.0,0.0,0.0,0.0,0.0,0.0,0.0,0.0,0.0,0.0,0.0,0.0,0.0,0.0,0.0,0.0,0.0,0.0,0.0,0.0,0.0,0.0,0.0,0.0,0.0,0.0,0.0,0.0,0.0,0.0,0.0,0.0,0.368,0.3554,0.2696,0.0,0.0,0.0,0.0,0.0,0.0,0.0,0.0,0.0,0.0,0.0,0.0,0.0,0.0,0.0,0.0,0.0,0.0,0.0,0.0,0.0,0.0,0.0,0.0,0.0,0.0,0.0,0.0,0.0,0.0,0.0,0.0,0.0,0.0,0.0,0.0,0.0,0.0,0.0,0.0,0.0,0.0,0.0,0.0,0.0,0.0,0.0,0.0,0.0,0.0,0.0,0.0,0.0,0.0,0.0,0.0,0.0,0.0,0.0,0.0,0.0,0.0,0.0,0.0,0.0,0.0,0.0,0.0,0.0,0.0,0.0,0.0,0.0,0.0,0.0,0.0,0.0,0.0,0.0,0.0,0.0,0.0,0.0,0.0,0.0,0.0,0.0,0.0,0.0,0.0,0.0,0.0,0.0,0.0,0.0,0.0,0.0,0.0,0.0,0.0,0.0,0.0,0.0,0.0,0.0,0.0,0.0,0.0,0.0,0.0,0.2799,0.3359,0.3101,0.0,0.3031,0.0,0.0,0.0,0.0,0.0,0.0,0.0,0.0,0.0,0.0,0.0,0.0,0.0,0.0,0.0,0.0,0.0,0.0,0.0,0.0,0.0,0.0,0.0,0.0,0.0,0.0,0.0,0.0,0.0,0.0,0.0,0.0,0.0,0.0,0.0,0.0,0.0,0.0,0.0,0.0,0.0,0.0,0.0,0.0,0.0,0.0,0.0,0.0,0.0,0.0,0.0,0.0,0.0,0.0,0.0,0.0,0.0,0.0,0.0,0.0,0.0,0.0,0.0,0.0,0.0,0.0,0.0,0.0,0.0,0.0,0.0,0.0,0.0,0.0,0.0,0.0,0.0,0.0,0.0,0.0,0.0,0.0,0.0,0.0,0.0,0.0,0.0,0.0,0.0,0.0,0.0,0.0,0.0,0.0,0.0,0.0,0.0,0.0,0.0,0.0,0.0,0.0,0.0,0.0,0.0,0.0,0.0,0.0,0.0,0.0,0.319,0.322,0.2995,0.29,0.0,0.0,0.0,0.0,0.0,0.0,0.0,0.0,0.0,0.0,0.0,0.0,0.0,0.0,0.0,0.0,0.0,0.0,0.0,0.0,0.0,0.0,0.0,0.0,0.0,0.0,0.0,0.0,0.0,0.0,0.0,0.0,0.0,0.0,0.0,0.0,0.0,0.0,0.0,0.0,0.0,0.0,0.0,0.0,0.0,0.0,0.0,0.0,0.0,0.0,0.0,0.0,0.0,0.0,0.0,0.0,0.0,0.0,0.0,0.0,0.0,0.0,0.0,0.0,0.0,0.0,0.0,0.0,0.0,0.0,0.0,0.0,0.0,0.0,0.0,0.0,0.0,0.0,0.0,0.0,0.0,0.0,0.0,0.0,0.0,0.0,0.0,0.0,0.0,0.0,0.0,0.0,0.0,0.0,0.0,0.0,0.0,0.0,0.0,0.0,0.0,0.0,0.0,0.0,0.0,0.0,0.0,0.0,0.0,0.0,0.303,0.3186,0.3025,0.3134,0.3027,0.2698,0.0,0.0,0.0,0.0,0.0,0.0,0.0,0.0,0.0,0.0,0.0,0.0,0.0,0.0,0.0,0.0,0.0,0.0,0.0,0.0,0.0,0.0,0.0,0.0,0.0,0.0,0.0,0.0,0.0,0.0,0.0,0.0,0.0,0.0,0.0,0.0,0.0,0.0,0.0,0.0,0.0,0.0,0.0,0.0,0.0,0.0,0.0,0.0,0.0,0.0,0.0,0.0,0.0,0.0,0.0,0.0,0.0,0.0,0.0,0.0,0.0,0.0,0.0,0.0,0.0,0.0,0.0,0.0,0.0,0.0,0.0,0.0,0.0,0.0,0.0,0.0,0.0,0.0,0.0,0.0,0.0,0.0,0.0,0.0,0.0,0.0,0.0,0.0,0.0,0.0,0.0,0.0,0.0,0.0,0.0,0.0,0.0,0.0,0.0,0.0,0.0,0.0,0.0,0.0,0.0,0.0,0.0,0.0,0.2884,0.2457,0.239,0.2842,0.351,0.3325,0.0,0.0,0.0,0.0,0.0,0.0,0.0,0.0,0.0,0.0,0.0,0.0,0.0,0.0,0.0,0.0,0.0,0.0,0.0,0.0,0.0,0.0,0.0,0.0,0.0,0.0,0.0,0.0,0.0,0.0,0.0,0.0,0.0,0.0,0.0,0.0,0.0,0.0,0.0,0.0,0.0,0.0,0.0,0.0,0.0,0.0,0.0,0.0,0.0,0.0,0.0,0.0,0.0,0.0,0.0,0.0,0.0,0.0,0.0,0.0,0.0,0.0,0.0,0.0,0.0,0.0,0.0,0.0,0.0,0.0,0.0,0.0,0.0,0.0,0.0,0.0,0.0,0.0,0.0,0.0,0.0,0.0,0.0,0.0,0.0,0.0,0.0,0.0,0.0,0.0,0.0,0.0,0.0,0.0,0.0,0.0,0.0,0.0,0.0,0.0,0.0,0.0,0.0,0.0,0.0,0.0,0.0,0.0,0.0,0.1958,0.2061,0.2698,0.3857,0.3173,0.2864,0.0,0.0,0.0,0.0,0.0,0.0,0.0,0.0,0.0,0.0,0.0,0.0,0.0,0.0,0.0,0.0,0.0,0.0,0.0,0.0,0.0,0.0,0.0,0.0,0.0,0.0,0.0,0.0,0.0,0.0,0.0,0.0,0.0,0.0,0.0,0.0,0.0,0.0,0.0,0.0,0.0,0.0,0.0,0.0,0.0,0.0,0.0,0.0,0.0,0.0,0.0,0.0,0.0,0.0,0.0,0.0,0.0,0.0,0.0,0.0,0.0,0.0,0.0,0.0,0.0,0.0,0.0,0.0,0.0,0.0,0.0,0.0,0.0,0.0,0.0,0.0,0.0,0.0,0.0,0.0,0.0,0.0,0.0,0.0,0.0,0.0,0.0,0.0,0.0,0.0,0.0,0.0,0.0,0.0,0.0,0.0,0.0,0.0,0.0,0.0,0.0,0.0,0.0,0.0,0.0,0.0,0.0,0.0,0.0,0.2046,0.2698,0.3445,0.4146,0.3257,0.2793,0.0,0.0,0.0,0.0,0.0,0.0,0.0,0.0,0.0,0.0,0.0,0.0,0.0,0.0,0.0,0.0,0.0,0.0,0.0,0.0,0.0,0.0,0.0,0.0,0.0,0.0,0.0,0.0,0.0,0.0,0.0,0.0,0.0,0.0,0.0,0.0,0.0,0.0,0.0,0.0,0.0,0.0,0.0,0.0,0.0,0.0,0.0,0.0,0.0,0.0,0.0,0.0,0.0,0.0,0.0,0.0,0.0,0.0,0.0,0.0,0.0,0.0,0.0,0.0,0.0,0.0,0.0,0.0,0.0,0.0,0.0,0.0,0.0,0.0,0.0,0.0,0.0,0.0,0.0,0.0,0.0,0.0,0.0,0.0,0.0,0.0,0.0,0.0,0.0,0.0,0.0,0.0,0.0,0.0,0.0,0.0,0.0,0.0,0.0,0.0,0.0,0.0,0.0,0.0,0.0,0.0,0.0,0.0,0.1948,0.3298,0.436,0.4441,0.3563,0.3708,0.3101,0.0,0.0,0.0,0.0,0.0,0.0,0.0,0.0,0.0,0.0,0.0,0.0,0.0,0.0,0.0,0.0,0.0,0.0,0.0,0.0,0.0,0.0,0.0,0.0,0.0,0.0,0.0,0.0,0.0,0.0,0.0,0.0,0.0,0.0,0.0,0.0,0.0,0.0,0.0,0.0,0.0,0.0,0.0,0.0,0.0,0.0,0.0,0.0,0.0,0.0,0.0,0.0,0.0,0.0,0.0,0.0,0.0,0.0,0.0,0.0,0.0,0.0,0.0,0.0,0.0,0.0,0.0,0.0,0.0,0.0,0.0,0.0,0.0,0.0,0.0,0.0,0.0,0.0,0.0,0.0,0.0,0.0,0.0,0.0,0.0,0.0,0.0,0.0,0.0,0.0,0.0,0.0,0.0,0.0,0.0,0.0,0.0,0.0,0.0,0.0,0.0,0.0,0.0,0.0,0.0,0.0,0.0,0.0,0.0,0.2412,0.3754,0.4376,0.4026,0.344,0.3155,0.0,0.0,0.0,0.0,0.0,0.0,0.0,0.0,0.0,0.0,0.0,0.0,0.0,0.0,0.0,0.0,0.0,0.0,0.0,0.0,0.0,0.0,0.0,0.0,0.0,0.0,0.0,0.0,0.0,0.0,0.0,0.0,0.0,0.0,0.0,0.0,0.0,0.0,0.0,0.0,0.0,0.0,0.0,0.0,0.0,0.0,0.0,0.0,0.0,0.0,0.0,0.0,0.0,0.0,0.0,0.0,0.0,0.0,0.0,0.0,0.0,0.0,0.0,0.0,0.0,0.0,0.0,0.0,0.0,0.0,0.0,0.0,0.0,0.0,0.0,0.0,0.0,0.0,0.0,0.0,0.0,0.0,0.0,0.0,0.0,0.0,0.0,0.0,0.0,0.0,0.0,0.0,0.0,0.0,0.0,0.0,0.0,0.0,0.0,0.0,0.0,0.0,0.0,0.0,0.0,0.0,0.0,0.0,0.0,0.3058,0.4506,0.5166,0.4811,0.4021,0.3574,0.3546,0.0,0.0,0.0,0.0,0.0,0.0,0.0,0.0,0.0,0.0,0.0,0.0,0.0,0.0,0.0,0.0,0.0,0.0,0.0,0.0,0.0,0.0,0.0,0.0,0.0,0.0,0.0,0.0,0.0,0.0,0.0,0.0,0.0,0.0,0.0,0.0,0.0,0.0,0.0,0.0,0.0,0.0,0.0,0.0,0.0,0.0,0.0,0.0,0.0,0.0,0.0,0.0,0.0,0.0,0.0,0.0,0.0,0.0,0.0,0.0,0.0,0.0,0.0,0.0,0.0,0.0,0.0,0.0,0.0,0.0,0.0,0.0,0.0,0.0,0.0,0.0,0.0,0.0,0.0,0.0,0.0,0.0,0.0,0.0,0.0,0.0,0.0,0.0,0.0,0.0,0.0,0.0,0.0,0.0,0.0,0.0,0.0,0.0,0.0,0.0,0.0,0.0,0.0,0.0,0.0,0.0,0.0,0.0,0.4814,0.6326,0.6678,0.5777,0.5212,0.4359,0.0,0.0,0.0,0.0,0.0,0.0,0.0,0.0,0.0,0.0,0.0,0.0,0.0,0.0,0.0,0.0,0.0,0.0,0.0,0.0,0.0,0.0,0.0,0.0,0.0,0.0,0.0,0.0,0.0,0.0,0.0,0.0,0.0,0.0,0.0,0.0,0.0,0.0,0.0,0.0,0.0,0.0,0.0,0.0,0.0,0.0,0.0,0.0,0.0,0.0,0.0,0.0,0.0,0.0,0.0,0.0,0.0,0.0,0.0,0.0,0.0,0.0,0.0,0.0,0.0,0.0,0.0,0.0,0.0,0.0,0.0,0.0,0.0,0.0,0.0,0.0,0.0,0.0,0.0,0.0,0.0,0.0,0.0,0.0,0.0,0.0,0.0,0.0,0.0,0.0,0.0,0.0,0.0,0.0,0.0,0.0,0.0,0.0,0.0,0.0,0.0,0.0,0.0,0.0,0.0,0.0,0.0,0.0,0.0,0.6112,0.7064,0.7206,0.652,0.5755,0.5171,0.0,0.0,0.0,0.0,0.0,0.0,0.0,0.0,0.0,0.0,0.0,0.0,0.0,0.0,0.0,0.0,0.0,0.0,0.0,0.0,0.0,0.0,0.0,0.0,0.0,0.0,0.0,0.0,0.0,0.0,0.0,0.0,0.0,0.0,0.0,0.0,0.0,0.0,0.0,0.0,0.0,0.0,0.0,0.0,0.0,0.0,0.0,0.0,0.0,0.0,0.0,0.0,0.0,0.0,0.0,0.0,0.0,0.0,0.0,0.0,0.0,0.0,0.0,0.0,0.0,0.0,0.0,0.0,0.0,0.0,0.0,0.0,0.0,0.0,0.0,0.0,0.0,0.0,0.0,0.0,0.0,0.0,0.0,0.0,0.0,0.0,0.0,0.0,0.0,0.0,0.0,0.0,0.0,0.0,0.0,0.0,0.0,0.0,0.0,0.0,0.0,0.0,0.0,0.0,0.0,0.0,0.0,0.0,0.6253,0.7035,0.7669,0.7844,0.7484,0.6759,0.6107,0.0,0.0,0.0,0.0,0.0,0.0,0.0,0.0,0.0,0.0,0.0,0.0,0.0,0.0,0.0,0.0,0.0,0.0,0.0,0.0,0.0,0.0,0.0,0.0,0.0,0.0,0.0,0.0,0.0,0.0,0.0,0.0,0.0,0.0,0.0,0.0,0.0,0.0,0.0,0.0,0.0,0.0,0.0,0.0,0.0,0.0,0.0,0.0,0.0,0.0,0.0,0.0,0.0,0.0,0.0,0.0,0.0,0.0,0.0,0.0,0.0,0.0,0.0,0.0,0.0,0.0,0.0,0.0,0.0,0.0,0.0,0.0,0.0,0.0,0.0,0.0,0.0,0.0,0.0,0.0,0.0,0.0,0.0,0.0,0.0,0.0,0.0,0.0,0.0,0.0,0.0,0.0,0.0,0.0,0.0,0.0,0.0,0.0,0.0,0.0,0.0,0.0,0.0,0.0,0.0,0.0,0.0,0.0,0.7216,0.7646,0.8096,0.8315,0.8396,0.7895,0.6989,0.0,0.0,0.0,0.0,0.0,0.0,0.0,0.0,0.0,0.0,0.0,0.0,0.0,0.0,0.0,0.0,0.0,0.0,0.0,0.0,0.0,0.0,0.0,0.0,0.0,0.0,0.0,0.0,0.0,0.0,0.0,0.0,0.0,0.0,0.0,0.0,0.0,0.0,0.0,0.0,0.0,0.0,0.0,0.0,0.0,0.0,0.0,0.0,0.0,0.0,0.0,0.0,0.0,0.0,0.0,0.0,0.0,0.0,0.0,0.0,0.0,0.0,0.0,0.0,0.0,0.0,0.0,0.0,0.0,0.0,0.0,0.0,0.0,0.0,0.0,0.0,0.0,0.0,0.0,0.0,0.0,0.0,0.0,0.0,0.0,0.0,0.0,0.0,0.0,0.0,0.0,0.0,0.0,0.0,0.0,0.0,0.0,0.0,0.0,0.0,0.0,0.0,0.0,0.0,0.0,0.0,0.0,0.0,0.6788,0.7368,0.7664,0.8043,0.8368,0.7888,0.7227,0.0,0.0,0.0,0.0,0.0,0.0,0.0,0.0,0.0,0.0,0.0,0.0,0.0,0.0,0.0,0.0,0.0,0.0,0.0,0.0,0.0,0.0,0.0,0.0,0.0,0.0,0.0,0.0,0.0,0.0,0.0,0.0,0.0,0.0,0.0,0.0,0.0,0.0,0.0,0.0,0.0,0.0,0.0,0.0,0.0,0.0,0.0,0.0,0.2593,0.0,0.0,0.0,0.0,0.0,0.0,0.0,0.0,0.0,0.0,0.0,0.0,0.0,0.0,0.0,0.0,0.0,0.0,0.0,0.0,0.0,0.0,0.0,0.0,0.0,0.0,0.0,0.0,0.0,0.0,0.0,0.0,0.0,0.0,0.0,0.0,0.0,0.0,0.0,0.0,0.0,0.0,0.0,0.0,0.0,0.0,0.0,0.0,0.0,0.0,0.0,0.0,0.0,0.0,0.0,0.0,0.0,0.0,0.0,0.7369,0.7475,0.7664,0.7883,0.8031,0.7986,0.7531,0.0,0.0,0.0,0.0,0.0,0.0,0.0,0.0,0.0,0.0,0.0,0.0,0.0,0.0,0.0,0.0,0.0,0.0,0.0,0.0,0.0,0.0,0.0,0.0,0.0,0.0,0.0,0.0,0.0,0.0,0.0,0.0,0.0,0.0,0.0,0.0,0.0,0.0,0.0,0.0,0.0,0.0,0.0,0.0,0.0,0.0,0.0,0.0,0.0,0.0,0.0,0.0,0.0,0.0,0.0,0.0,0.0,0.0,0.0,0.0,0.0,0.0,0.0,0.0,0.0,0.0,0.0,0.0,0.0,0.0,0.0,0.0,0.0,0.0,0.0,0.0,0.0,0.0,0.0,0.0,0.0,0.0,0.0,0.0,0.0,0.0,0.0,0.0,0.0,0.0,0.0,0.0,0.0,0.0,0.0,0.0,0.0,0.0,0.0,0.0,0.0,0.0,0.0,0.0,0.0,0.0,0.0,0.6969,0.7955,0.7635,0.7824,0.7824,0.7723,0.815,0.7879,0.6713,0.0,0.0,0.0,0.0,0.0,0.0,0.0,0.0,0.0,0.0,0.0,0.0,0.0,0.0,0.0,0.0,0.0,0.0,0.0,0.0,0.0,0.0,0.0,0.0,0.0,0.0,0.0,0.0,0.0,0.0,0.0,0.0,0.0,0.0,0.0,0.0,0.0,0.0,0.195,0.2173,0.0,0.0,0.0,0.0,0.0,0.0,0.0,0.0,0.2481,0.0,0.0,0.0,0.0,0.0,0.0,0.0,0.0,0.0,0.0,0.0,0.0,0.0,0.0,0.0,0.0,0.0,0.0,0.0,0.0,0.0,0.0,0.0,0.0,0.0,0.0,0.0,0.0,0.0,0.0,0.0,0.0,0.0,0.0,0.0,0.0,0.0,0.0,0.0,0.0,0.0,0.0,0.0,0.0,0.0,0.0,0.0,0.0,0.0,0.0,0.0,0.0,0.0,0.0,0.0,0.0,0.558,0.6487,0.7042,0.7219,0.7664,0.7824,0.7723,0.8156,0.797,0.7056,0.0,0.0,0.0,0.0,0.0,0.0,0.0,0.0,0.0,0.0,0.0,0.0,0.0,0.0,0.0,0.0,0.0,0.0,0.0,0.0,0.0,0.0,0.0,0.0,0.0,0.0,0.0,0.0,0.0,0.0,0.0,0.0,0.0,0.0,0.0,0.0,0.0,0.0,0.0,0.2259,0.27,0.0,0.0,0.0,0.0,0.0,0.0,0.0,0.0,0.2494,0.0,0.0,0.0,0.0,0.0,0.0,0.0,0.0,0.0,0.0,0.0,0.0,0.0,0.0,0.0,0.0,0.0,0.0,0.0,0.0,0.0,0.0,0.0,0.0,0.0,0.0,0.0,0.0,0.0,0.0,0.0,0.0,0.0,0.0,0.0,0.0,0.0,0.0,0.0,0.0,0.0,0.0,0.0,0.0,0.0,0.0,0.0,0.0,0.0,0.0,0.0,0.0,0.0,0.0,0.0,0.5419,0.681,0.7497,0.745,0.8202,0.8441,0.8115,0.8676,0.8323,0.0,0.0,0.0,0.0,0.0,0.0,0.0,0.0,0.0,0.0,0.0,0.0,0.0,0.0,0.0,0.0,0.0,0.0,0.0,0.0,0.0,0.0,0.0,0.0,0.0,0.0,0.0,0.0,0.0,0.0,0.0,0.0,0.0,0.0,0.0,0.0,0.0,0.0,0.0,0.0,0.2174,0.2548,0.2255,0.0,0.0,0.0,0.0,0.0,0.0,0.3226,0.3159,0.0,0.0,0.0,0.0,0.0,0.0,0.0,0.0,0.0,0.0,0.0,0.0,0.0,0.0,0.0,0.0,0.0,0.0,0.0,0.0,0.0,0.0,0.0,0.0,0.0,0.0,0.0,0.0,0.0,0.0,0.0,0.0,0.0,0.0,0.0,0.0,0.0,0.0,0.0,0.0,0.0,0.0,0.0,0.0,0.0,0.0,0.0,0.0,0.0,0.0,0.0,0.0,0.0,0.0,0.0,0.5269,0.7036,0.7988,0.8039,0.9023,0.9276,0.8728,0.937,0.8802,0.0,0.0,0.0,0.0,0.0,0.0,0.0,0.0,0.0,0.0,0.0,0.0,0.0,0.0,0.0,0.0,0.0,0.0,0.0,0.0,0.0,0.0,0.0,0.0,0.0,0.0,0.0,0.0,0.0,0.0,0.0,0.0,0.0,0.0,0.0,0.0,0.0,0.0,0.0,0.0,0.0,0.2385,0.2142,0.2095,0.0,0.0,0.0,0.0,0.3768,0.3938,0.0,0.0,0.0,0.0,0.0,0.0,0.0,0.0,0.0,0.0,0.0,0.0,0.0,0.0,0.0,0.0,0.0,0.0,0.0,0.0,0.0,0.0,0.0,0.0,0.0,0.0,0.0,0.0,0.0,0.0,0.0,0.0,0.0,0.0,0.0,0.0,0.0,0.0,0.0,0.0,0.0,0.0,0.0,0.0,0.0,0.0,0.0,0.0,0.0,0.0,0.0,0.0,0.0,0.0,0.0,0.0,0.5926,0.6387,0.746,0.908,0.9971,1.0215,0.9815,1.0236,0.9577,0.0,0.0,0.0,0.0,0.0,0.0,0.0,0.0,0.0,0.0,0.0,0.0,0.0,0.0,0.0,0.0,0.0,0.0,0.0,0.0,0.0,0.0,0.0,0.0,0.0,0.0,0.0,0.0,0.0,0.0,0.0,0.0,0.0,0.0,0.0,0.0,0.0,0.0,0.0,0.0,0.0,0.2812,0.2998,0.3053,0.3263,0.0,0.0,0.4229,0.4619,0.4699,0.0,0.0,0.0,0.0,0.0,0.0,0.0,0.0,0.0,0.0,0.0,0.0,0.0,0.0,0.0,0.0,0.0,0.0,0.0,0.0,0.0,0.0,0.0,0.0,0.0,0.0,0.0,0.0,0.0,0.0,0.0,0.0,0.0,0.0,0.0,0.0,0.0,0.0,0.0,0.0,0.0,0.0,0.0,0.0,0.0,0.0,0.0,0.0,0.0,0.0,0.0,0.0,0.0,0.0,0.0,0.5284,0.6381,0.7767,0.8903,0.9659,1.0656,1.0908,1.0372,1.0712,0.9782,0.0,0.0,0.0,0.0,0.0,0.0,0.0,0.0,0.0,0.0,0.0,0.0,0.0,0.0,0.0,0.0,0.0,0.0,0.0,0.0,0.0,0.0,0.0,0.0,0.0,0.0,0.0,0.0,0.0,0.0,0.0,0.0,0.0,0.0,0.0,0.0,0.0,0.0,0.0,0.0,0.0,0.0,0.3514,0.3553,0.0,0.0,0.0,0.4763,0.5027,0.0,0.0,0.0,0.0,0.0,0.0,0.0,0.0,0.0,0.0,0.0,0.0,0.0,0.0,0.0,0.0,0.0,0.0,0.0,0.0,0.0,0.0,0.0,0.0,0.0,0.0,0.0,0.0,0.0,0.0,0.0,0.0,0.0,0.0,0.0,0.0,0.0,0.0,0.0,0.0,0.0,0.0,0.0,0.0,0.0,0.0,0.0,0.0,0.0,0.0,0.0,0.0,0.0,0.0,0.0,0.0,0.0,0.6881,0.9003,1.0171,1.0387,1.1189,1.1424,1.0967,1.1187,0.0,0.0,0.0,0.0,0.0,0.0,0.0,0.0,0.0,0.0,0.0,0.0,0.0,0.0,0.0,0.0,0.0,0.0,0.0,0.0,0.0,0.0,0.0,0.0,0.0,0.0,0.0,0.1891,0.0,0.0,0.0,0.0,0.0,0.0,0.0,0.0,0.0,0.0,0.0,0.0,0.0,0.0,0.3464,0.4069,0.4112,0.4271,0.0,0.0,0.5275,0.5518,0.6067,0.6099,0.0,0.0,0.0,0.0,0.0,0.0,0.0,0.0,0.0,0.0,0.0,0.0,0.0,0.0,0.0,0.0,0.0,0.0,0.0,0.0,0.0,0.0,0.0,0.0,0.0,0.0,0.0,0.0,0.0,0.0,0.0,0.0,0.0,0.0,0.0,0.0,0.0,0.0,0.0,0.0,0.0,0.0,0.0,0.0,0.0,0.0,0.0,0.0,0.0,0.0,0.0,0.0,0.0,0.0,0.0,0.7635,0.9279,1.0565,1.148,1.1538,1.1684,1.1861,1.1955,1.0681,0.0,0.0,0.0,0.0,0.0,0.0,0.0,0.0,0.0,0.0,0.0,0.0,0.0,0.0,0.0,0.0,0.0,0.0,0.0,0.0,0.0,0.0,0.0,0.0,0.0,0.0,0.0,0.0,0.0,0.0,0.0,0.0,0.0,0.0,0.0,0.0,0.0,0.0,0.0,0.0,0.0,0.4026,0.4643,0.4865,0.5105,0.0,0.0,0.5811,0.627,0.6379,0.6055,0.4999,0.0,0.0,0.0,0.0,0.0,0.0,0.0,0.0,0.0,0.0,0.0,0.0,0.0,0.0,0.0,0.0,0.0,0.0,0.0,0.0,0.0,0.0,0.0,0.0,0.0,0.0,0.0,0.0,0.0,0.0,0.0,0.0,0.0,0.0,0.0,0.0,0.0,0.0,0.0,0.0,0.0,0.0,0.0,0.0,0.0,0.0,0.0,0.0,0.0,0.0,0.0,0.0,0.0,0.6733,0.8026,1.015,1.1432,1.1853,1.205,1.2211,1.2269,1.2269,1.1341,0.0,0.0,0.0,0.0,0.0,0.0,0.0,0.0,0.0,0.0,0.0,0.0,0.0,0.0,0.0,0.0,0.0,0.0,0.0,0.0,0.0,0.0,0.0,0.0,0.0,0.0,0.0,0.0,0.3262,0.3562,0.3731,0.0,0.0,0.0,0.0,0.0,0.0,0.0,0.0,0.0,0.0,0.4592,0.5216,0.5258,0.0,0.0,0.5759,0.5953,0.6355,0.5984,0.5603,0.5348,0.5161,0.0,0.0,0.0,0.0,0.0,0.0,0.0,0.0,0.0,0.0,0.0,0.0,0.0,0.0,0.0,0.0,0.0,0.0,0.0,0.0,0.0,0.0,0.0,0.0,0.0,0.0,0.0,0.0,0.0,0.0,0.0,0.0,0.0,0.0,0.0,0.0,0.0,0.0,0.0,0.0,0.0,0.0,0.0,0.0,0.0,0.0,0.0,0.0,0.0,0.0,0.0,0.0,0.7233,0.8513,1.0835,1.2014,1.2116,1.2401,1.2562,1.2658,1.2665,1.1904,0.0,0.0,0.0,0.0,0.0,0.0,0.0,0.0,0.0,0.0,0.0,0.0,0.0,0.0,0.0,0.0,0.0,0.0,0.0,0.0,0.0,0.0,0.0,0.0,0.0,0.0,0.0,0.0,0.3451,0.3685,0.4378,0.0,0.0,0.0,0.0,0.0,0.0,0.0,0.0,0.0,0.0,0.515,0.5745,0.5791,0.5758,0.58,0.5891,0.6014,0.6229,0.5868,0.5539,0.5462,0.0,0.0,0.0,0.0,0.0,0.0,0.0,0.0,0.0,0.0,0.0,0.0,0.0,0.0,0.0,0.0,0.0,0.0,0.0,0.0,0.0,0.0,0.0,0.0,0.0,0.0,0.0,0.0,0.0,0.0,0.0,0.0,0.0,0.0,0.0,0.0,0.0,0.0,0.0,0.0,0.0,0.0,0.0,0.0,0.0,0.0,0.0,0.0,0.0,0.0,0.0,0.0,0.0,0.7581,0.9167,1.1078,1.2131,1.2504,1.2526,1.2687,1.2987,1.2994,1.2307,1.0803,0.0,0.0,0.0,0.0,0.0,0.0,0.0,0.0,0.0,0.0,0.0,0.0,0.0,0.0,0.0,0.0,0.0,0.0,0.0,0.0,0.0,0.0,0.0,0.0,0.0,0.0,0.3324,0.3079,0.3141,0.0,0.0,0.0,0.0,0.0,0.0,0.0,0.0,0.0,0.0,0.5385,0.5751,0.6278,0.635,0.6342,0.6354,0.6213,0.6088,0.5937,0.5973,0.5887,0.0,0.0,0.0,0.0,0.0,0.0,0.0,0.0,0.0,0.0,0.0,0.0,0.0,0.0,0.0,0.0,0.0,0.0,0.0,0.0,0.0,0.0,0.0,0.0,0.0,0.0,0.0,0.2533,0.0,0.0,0.0,0.0,0.0,0.0,0.0,0.0,0.0,0.0,0.0,0.0,0.6754,0.7663,0.0,0.0,0.0,0.0,0.0,0.0,0.0,0.0,0.0,0.0,0.0,0.0,0.7897,0.9499,1.1598,1.2731,1.284,1.3053,1.3221,1.3331,1.3331,1.2549,1.0855,0.0,0.0,0.0,0.0,0.0,0.0,0.0,0.0,0.0,0.0,0.0,0.0,0.0,0.0,0.0,0.0,0.0,0.0,0.0,0.0,0.0,0.0,0.0,0.0,0.0,0.2985,0.0,0.0,0.0,0.0,0.0,0.0,0.0,0.0,0.0,0.0,0.0,0.4767,0.5356,0.5848,0.6213,0.6392,0.642,0.642,0.0,0.0,0.0,0.0,0.0,0.0,0.0,0.0,0.0,0.0,0.0,0.0,0.0,0.0,0.5303,0.4082,0.4016,0.4079,0.3866,0.0,0.0,0.0,0.0,0.0,0.0,0.0,0.0,0.0,0.0,0.0,0.0,0.0,0.0,0.5254,0.0,0.2128,0.0,0.0,0.0,0.0,0.0,0.0,0.0,0.0,0.7723,0.8412,0.8253,0.9272,0.9394,0.0,0.8982,0.7387,0.0,0.0,0.0,0.0,0.0,0.0,0.0,0.0,0.8541,1.0402,1.2099,1.3067,1.3177,1.3382,1.3492,1.3492,1.3492,1.2969,1.1788,1.2351,1.1593,0.0,0.0,0.0,0.0,0.0,0.0,0.0,0.0,0.0,0.0,0.0,0.0,0.0,0.0,0.0,0.0,0.0,0.0,0.0,0.0,0.0,0.0,0.0,0.3239,0.0,0.0,0.0,0.0,0.0,0.0,0.0,0.0,0.0,0.4897,0.5153,0.5417,0.5839,0.6197,0.644,0.6505,0.0,0.0,0.0,0.0,0.0,0.0,0.0,0.6482,0.6066,0.6304,0.6226,0.5495,0.5715,0.6111,0.6352,0.0,0.0,0.4837,0.4751,0.4839,0.4816,0.4865,0.4887,0.4999,0.5064,0.5177,0.0,0.0,0.0,0.0,0.0,0.0,0.0,0.0,0.8009,0.8575,0.0,0.6286,0.0,0.0,0.0,0.0,0.0,0.7661,0.0,0.0,0.9407,1.0151,1.0181,1.0497,1.0659,1.0674,1.1156,1.0694,0.9308,0.8535,0.0,0.0,0.0,0.0,0.0,0.0,0.9506,1.1882,1.2646,1.3177,1.3477,1.3484,1.3492,1.3492,1.3492,1.3477,1.3418,1.2021,1.1078,1.0758,0.6647,0.0,0.0,0.0,0.0,0.0,0.0,0.0,0.0,0.0,0.0,0.0,0.0,0.0,0.0,0.0,0.0,0.0,0.0,0.0,0.0,0.3868,0.0,0.0,0.0,0.0,0.0,0.0,0.0,0.0,0.0,0.0,0.5336,0.5527,0.5827,0.6343,0.0,0.0,0.0,0.0,0.6822,0.6999,0.715,0.7107,0.6535,0.7225,0.7598,0.6799,0.0,0.0,0.6567,0.6693,0.6777,0.6487,0.6621,0.6815,0.6441,0.5985,0.5787,0.6229,0.5937,0.5718,0.5872,0.6083,0.6327,1.0755,0.0,0.0,0.0,0.0,0.9219,0.9586,1.0192,1.0261,1.0611,1.1049,1.0755,0.0,0.0,0.0,0.0,0.0,0.0,0.9466,0.9689,1.0714,1.1319,1.1652,1.1667,1.1525,1.135,1.1873,1.1851,1.1231,1.1461,0.94,0.5257,0.0,0.0,0.0,0.0,1.0695,1.1981,1.2883,1.3397,1.3492,1.3492,1.3492,1.3492,1.3492,1.3492,1.3484,1.3045,1.2285,1.1056,1.0814,0.0,0.0,0.0,0.0,0.0,0.0,0.0,0.0,0.0,0.0,0.0,0.0,0.0,0.0,0.0,0.0,0.0,0.0,0.0,0.4151,0.4635,0.4573,0.0,0.0,0.0,0.0,0.0,0.0,0.0,0.0,0.0,0.616,0.6185,0.6433,0.0,0.0,0.6835,0.7364,0.7159,0.6986,0.7023,0.7053,0.0,0.0,0.7625,0.7863,0.7035,0.6984,0.7037,0.7166,0.6814,0.6485,0.6404,0.6479,0.6679,0.7064,0.6814,0.6502,0.6437,0.6286,0.6205,0.6262,0.6359,0.6461,1.4369,1.2659,1.1267,1.0923,1.1284,1.0797,1.1129,1.1914,1.1886,1.2037,1.2264,1.2471,1.2069,1.1113,1.0278,0.0,0.0,0.0,1.0761,1.0997,1.15,1.1769,1.1835,1.189,1.1877,1.1743,1.2254,1.2432,1.2423,1.2885,1.1412,0.8149,0.0,0.0,0.8849,1.0287,1.1548,1.2564,1.3167,1.3492,1.3492,1.3492,1.3492,1.3492,1.3492,1.3492,1.3492,1.3492,1.3045,1.2094,1.2965,1.1848,0.0,0.0,0.0,0.0,0.0,0.0,0.0,0.0,0.0,0.0,0.0,0.5611,0.7287,0.0,0.0,0.0,0.2829,0.4151,0.5662,0.5416,0.0,0.0,0.0,0.0,0.0,0.0,0.0,0.5394,0.6056,0.6789,0.7713,0.7707,0.7632,0.7586,0.7768,0.7858,0.7552,0.0,0.8321,0.7943,0.8243,0.8398,0.817,0.8951,0.9317,0.8593,0.8235,0.7846,0.7466,0.7218,0.7193,0.7449,0.7373,0.7327,0.7745,0.7932,0.7712,0.6647,0.642,0.644,0.6509,0.6459,0.6511,1.7726,1.7327,1.3905,1.2715,1.3054,1.2592,1.264,1.2969,1.2978,1.2978,1.2978,1.2476,1.1968,1.1372,1.1146,0.0,1.1303,1.2128,1.2355,1.2025,1.2175,1.1949,1.1466,1.1705,1.1955,1.2253,1.2413,1.2703,1.3097,1.3263,1.2726,1.1601,1.1639,1.1631,1.151,1.1624,1.2394,1.3673,1.3695,1.3702,1.371,1.371,1.3637,1.3557,1.3564,1.3557,1.3492,1.3492,1.3492,1.3484,1.3492,1.3492,1.3492,0.0,0.0,0.0,0.0,0.0,0.0,0.0,0.0,0.0,0.0,0.0,0.0,0.0,0.0,0.0,0.4532,0.0,0.7565,0.6349,0.0,0.0,0.0,0.4699,0.5604,0.5896,0.6187,0.6453,0.0,0.0,0.9776,0.9799,0.9216,0.8017,0.8981,0.9178,0.762,0.9252,1.026,0.9386,1.0024,1.0421,0.9772,1.0502,1.1004,1.0647,1.0372,0.9382,0.8022,0.7987,0.8476,0.9209,0.8938,0.8565,0.8574,0.9226,0.9129,0.7145,0.668,0.6655,0.6809,0.6708,0.6622,1.763,1.746,1.6174,1.5423,1.5105,1.4958,1.4499,1.3838,1.3786,1.3838,1.3838,1.3848,1.3827,1.3761,1.372,1.3641,1.3616,1.4135,1.4315,1.424,1.413,1.4121,1.4276,1.395,1.3874,1.4097,1.3824,1.3771,1.3808,1.3588,1.3282,1.3068,1.373,1.3534,1.2588,1.3842,1.4811,1.5367,1.5455,1.5313,1.518,1.518,1.4895,1.433,1.433,1.4049,1.3492,1.3492,1.3492,1.3492,1.3492,1.3492,1.3492,1.3492,0.0,0.0,0.0,0.0,0.0,0.0,0.0,0.0,0.0,0.7729,0.9831,0.0,0.6531,0.0,0.5636,0.8319,0.8844,0.7877,0.0,0.0,0.6879,0.6879,0.8102,0.8362,0.8166,0.734,0.8047,0.9153,1.0668,1.0587,1.0302,0.9892,0.9696,0.9807,1.0275,0.9892,0.9916,1.0402,1.0229,0.9825,0.982,1.0265,1.0929,1.1181,1.0651,0.9735,0.8487,0.901,0.9593,0.9777,0.9725,0.9783,1.0067,0.9637,0.9238,0.8964,0.8349,0.7808,0.7864,0.7381,0.6944,1.8435,1.8385,1.807,1.7536,1.6961,1.6174,1.5515,1.4997,1.4704,1.4661,1.4724,1.4777,1.4868,1.4932,1.5124,1.5114,1.5099,1.5263,1.5182,1.4954,1.4899,1.4915,1.4889,1.4683,1.4577,1.4463,1.44,1.4303,1.412,1.4045,1.4129,1.4418,1.5046,1.5223,1.4899,1.5427,1.5435,1.4898,1.5208,1.5446,1.5675,1.5384,1.494,1.4266,1.4159,1.3843,1.314,1.3408,1.33,1.2885,1.3248,1.3492,1.3492,1.3492,1.2616,0.0,0.0,0.0,0.0,0.0,0.0,0.0,0.0,0.0,0.0,0.0,0.9167,0.7241,0.8954,1.0172,1.01,0.9285,0.889,0.9081,0.8657,0.8774,0.9645,0.9784,0.96,0.9103,0.9582,1.039,1.1489,1.1706,1.1632,1.1484,1.1199,1.0955,1.0827,1.073,1.0992,1.1309,1.0968,1.0789,1.1087,1.1391,1.171,1.1933,1.1357,1.0712,1.0443,0.9968,0.9869,1.0526,1.0455,1.0479,1.1116,1.0994,1.0796,1.0953,1.0442,0.9486,0.8457,0.7861,0.7552,1.9512,1.942,1.942,1.9093,1.8519,1.6996,1.6305,1.6151,1.5719,1.5521,1.5584,1.5457,1.5421,1.5452,1.58,1.5972,1.5914,1.5798,1.5508,1.5077,1.5196,1.512,1.48,1.4936,1.4814,1.4478,1.4709,1.4665,1.4338,1.4633,1.5054,1.5534,1.5965,1.654,1.7116,1.6582,1.5609,1.418,1.4661,1.5246,1.5887,1.5168,1.4506,1.3969,1.3778,1.3379,1.2879,1.3256,1.3112,1.2289,1.2773,1.3134,1.3149,1.3381,1.3492,0.0,1.021,0.0,0.0,0.0,0.0,0.0,0.0,0.0,0.0,1.0598,1.1036,1.3317,1.2699,1.1923,1.1294,1.0627,1.0212,1.0281,1.0218,1.0369,1.069,1.0811,1.0937,1.1322,1.1322,1.1666,1.2371,1.2746,1.282,1.2599,1.2666,1.2191,1.0858,1.1564,1.2257,1.1835,1.1896,1.2131,1.2813,1.2966,1.29,1.2865,1.2401,1.2096,1.2444,1.1162,1.0213,1.1321,1.1186,1.113,1.2037,1.2592,1.2879,1.2712,1.2104,1.107,0.9437,0.8641,0.8403,1.9433,1.942,1.942,1.9303,1.9174,1.8863,1.7977,1.6665,1.6554,1.6287,1.5971,1.595,1.5924,1.5991,1.6208,1.6144,1.5914,1.6009,1.6016,1.6058,1.6207,1.6455,1.6785,1.6402,1.6224,1.6312,1.5974,1.573,1.5658,1.5886,1.5956,1.5939,1.6715,1.6803,1.6225,0.0,0.0,0.0,1.7025,1.6949,1.7016,1.6309,1.5586,1.4866,1.4566,0.0,1.3378,1.3476,1.3382,1.316,1.1913,0.0,0.0,0.0,0.0,0.0,0.0,0.0,0.0,0.0,0.0,0.0,1.0597,1.042,0.9896,1.0434,1.1543,1.3259,1.3302,1.2899,1.215,1.1587,1.1346,1.1629,1.1417,1.1501,1.2091,1.2359,1.2657,1.2985,1.3014,1.3049,1.3157,1.3185,1.3039,1.2893,1.3046,1.2987,1.2499,1.2244,1.2131,1.2124,1.2358,1.2739,1.3346,1.3426,1.3346,1.3339,1.331,1.2837,1.2198,1.2451,1.2197,1.1929,1.1883,1.2145,1.3039,1.3346,1.32,1.2753,1.2439,1.1964,1.1187,1.0502,0.9985,1.9604,0.0,1.9604,1.9565,0.0,1.9604,1.8963,1.7875,1.782,1.7545,1.7045,1.6719,1.6616,1.6595,1.6296,1.6209,1.6343,1.6274,1.6397,1.6767,1.6872,1.7135,1.7494,1.7445,1.7233,1.7001,1.7001,1.6793,1.6507,1.6655,1.6793,1.7001,1.7345,1.7312,1.6867,1.7668,1.8138,1.8134,1.7514,1.7245,1.7337,1.6468,1.5583,1.474,0.0,0.0,0.0,0.0,0.0,0.0,0.0,0.0,0.0,0.0,0.0,1.3462,1.2321,1.1441,1.1084,1.1083,1.1391,1.2149,1.2158,1.1816,1.0972,1.1462,1.2228,1.3353,1.3492,1.336,1.2912,1.2642,1.259,1.2734,1.259,1.2659,1.2997,1.3136,1.3316,1.3455,1.3492,1.3492,1.3492,1.3419,1.3266,1.3119,1.32,1.336,1.3236,1.2935,1.2781,1.2847,1.298,1.3119,1.3411,1.3492,1.3492,1.3492,1.3266,1.2973,1.2673,1.2452,1.2305,1.2452,1.2452,1.2519,1.2893,1.3273,1.3419,1.3119,1.2959,1.2813,1.2599,1.1774,1.1025,2.0093,2.0093,2.0003,1.9952,1.9952,1.985,1.9552,1.9146,0.0,0.0,0.0,1.7279,1.7,1.6944,1.6378,1.6333,1.6727,1.6578,1.6797,1.7299,1.7412,1.7543,1.7744,1.8034,1.7774,1.7217,1.7657,1.7638,1.7079,1.7364,1.7725,1.7998,1.7842,1.7733,1.775,1.7785,1.7825,1.7831,1.733,1.7005,1.6917,1.6211,1.5314,1.4405,1.3889,1.3457,1.3057,1.3349,1.3142,1.2315,1.306,1.2803,1.1271,1.2602,1.3492,1.3492,1.3492,1.3492,1.3492,1.3492,1.3492,1.3492,1.3492,1.3265,1.2731,1.2694,1.2914,1.3455,1.3492,1.3492,1.3492,1.3492,1.3492,1.3492,1.3492,1.3484,1.3492,1.3492,1.3477,1.3492,1.3492,1.3492,1.3492,1.3492,1.3426,1.3346,1.3419,1.3492,1.3499,1.3462,1.3418,1.3411,1.3375,1.3492,1.3492,1.3492,1.3492,1.3492,1.3119,1.2973,1.3119,1.2445,1.215,1.32,1.29,1.2673,1.2753,1.3193,1.3492,1.3492,1.3492,1.3492,1.3411,1.2746,1.2003,2.1175,2.1126,2.0646,2.051,2.0459,2.0003,1.9747,1.9592,1.8632,1.7875,1.7313,1.7213,1.6821,1.6296,1.665,1.6746,1.6588,1.7083,1.7425,0.0,1.7735,1.7965,1.817,1.7736,1.7472,1.7413,1.7628,1.7706,1.7706,1.8385,1.8731,1.8432,1.8015,1.7606,1.7163,1.7259,1.7289,1.7296,1.7397,1.6603,1.5079,1.5792,1.5705,1.4634,1.4449,1.4411,1.434,1.3765,1.3411,1.3314,1.3397,1.3388,1.3142,1.3344,1.3492,1.3492,1.3492,1.3492,1.3492,1.3492,1.3492,1.3492,1.3492,1.3455,1.3367,1.336,1.3397,1.3492,1.3492,1.3492,1.3492,1.3492,1.3492,1.3492,1.3492,1.3492,1.3492,1.3492,1.3492,1.3492,1.3492,1.3492,1.3492,1.3492,1.3492,1.3419,1.3492,1.3492,1.3492,1.3499,1.3506,1.3514,1.3499,1.3492,1.3492,1.3492,1.3492,1.3492,1.3419,1.3346,1.3419,1.3193,1.3119,1.3419,1.3346,1.3266,1.3346,1.3419,1.3492,1.3492,1.3492,1.3492,1.3492,1.3273,1.3112,2.1417,2.1321,2.0809,2.061,2.0573,2.0055,1.9798,1.9747,1.9267,1.8685,1.8236,1.8423,1.798,1.7143,1.7599,1.7655,1.7407,1.762,1.7825,1.8095,1.8115,1.8225,1.8395,1.825,1.8182,1.8182,1.8385,1.8462,1.8452,1.8664,1.8552,1.8147,1.7493,1.7119,1.7086,1.6867,1.6614,1.6377,1.7076,1.6797,1.5287,1.5274,1.5024,1.4575,1.4377,1.4348,1.4533,1.4057,1.3782,1.3782,1.3613,1.3492,1.3492,1.3492,1.3492,1.3492,1.3492,1.3492,1.3492,1.3492,1.3492,1.3492,1.3492,1.3492,1.3492,1.3492,1.3492,1.3492,1.3492,1.3492,1.3492,1.3492,1.3492,1.3492,1.3492,1.3492,1.3492,1.3492,1.3492,1.3492,1.3492,1.3492,1.3492,1.3492,1.3492,1.3492,1.3492,1.3492,1.3492,1.3492,1.3492,1.3492,1.3492,1.3492,1.3492,1.3492,1.3492,1.3492,1.3492,1.3492,1.3492,1.3492,1.3492,1.3492,1.3492,1.3492,1.3492,1.3492,1.3492,1.3492,1.3492,1.3492,1.3492,1.3492,1.3492,2.1718,2.1718,2.1188,2.0809,2.056,2.0003,1.9798,1.9798,1.9798,1.9574,1.9269,1.9533,1.9076,1.8209,1.8676,1.8779,1.8542,1.8376,1.8415,1.8721,1.8539,1.8472,1.8617,1.8808,1.8875,1.8875,1.8998,1.9131,1.9054,1.8639,1.8172,1.7617,1.6828,1.6628,1.6858,1.6528,1.6108,1.5725,1.6475,1.6297,1.5087,1.448,1.4238,1.4252,1.4271,1.4305,1.4511,1.411,1.3945,1.3962,1.3592,1.3411,1.3492,1.3492,1.3492,1.3492,1.3492,1.3492,1.3492,1.3492,1.3492,1.3492,1.3492,1.3492,1.3492,1.3492,1.3492,1.3492,1.3492,1.3492,1.3492,1.3492,1.3492,1.3492,1.3492,1.3492,1.3492,1.3492,1.3492,1.3492,1.3492,1.3492,1.3492,1.3492,1.3492,1.3492,1.3492,1.3492,1.3492,1.3492,1.3492,1.3492,1.3492,1.3492,1.3492,1.3492,1.3492,1.3492,1.3492,1.3492,1.3492,1.3492,1.3492,1.3492,1.3492,1.3492,1.3492,1.3492,1.3492,1.3492,1.3492,1.3492,1.3492,1.3492,1.3492,2.2737,2.2706,2.2217,2.1492,2.0547,2.0003,1.9798,1.9798,1.9798,1.9784,1.9727,1.9756,1.9459,1.8988,1.9633,2.0002,1.9896,1.9587,1.9388,1.9354,1.8998,1.8741,1.8808,1.9008,1.9075,1.9075,1.9065,1.9121,1.9003,1.8555,1.782,1.681,1.6578,1.6327,1.6095,1.6246,1.6148,1.5673,1.5311,1.4348,1.2969,1.3327,1.3512,1.3364,1.4396,1.4846,1.4609,1.3949,1.3692,1.3931,1.3382,1.3192,1.3448,1.3492,1.3492,1.3492,1.3492,1.3492,1.3492,1.3492,1.3492,1.3492,1.3492,1.3492,1.3492,1.3492,1.3492,1.3492,1.3492,1.3492,1.3492,1.3492,1.3492,1.3492,1.3492,1.3492,1.3492,1.3492,1.3492,1.3492,1.3492,1.3492,1.3492,1.3492,1.3492,1.3492,1.3536,1.355,1.355,1.3587,1.3587,1.3543,1.3506,1.3492,1.3492,1.3492,1.3492,1.3492,1.3492,1.3492,1.3492,1.3492,1.3492,1.3492,1.3492,1.3492,1.3492,1.3492,1.3492,1.3492,1.3492,1.3492,1.3492,1.3492,1.3492,2.2947,2.2933,2.2431,2.1589,2.061,2.0003,1.9798,1.9823,2.0175,2.0345,2.0415,2.0995,2.0752,1.9828,2.0447,2.0488,2.0036,1.9392,1.9179,1.919,1.893,1.8865,1.9008,1.9065,1.9131,1.9131,1.9131,1.892,1.8578,1.7874,1.7083,1.6487,1.6306,1.6133,1.5924,1.5836,1.572,1.5478,1.4579,1.3863,1.3554,1.3674,1.3752,1.3844,1.4639,1.4951,1.4591,1.4042,1.3754,1.37,1.3247,1.3155,1.3477,1.3492,1.3492,1.3492,1.3492,1.3492,1.3492,1.3492,1.3492,1.3492,1.3492,1.3492,1.3492,1.3492,1.3492,1.3492,1.3492,1.3492,1.3492,1.3492,1.3492,1.3492,1.3492,1.3492,1.3492,1.3492,1.3492,1.3492,1.3492,1.3492,1.3492,1.3492,1.3492,1.3528,1.3638,1.377,1.3784,1.3945,1.4062,1.4018,1.377,1.3514,1.3499,1.3492,1.3492,1.3492,1.3492,1.3492,1.3492,1.3492,1.3492,1.3492,1.3492,1.3492,1.3492,1.3492,1.3492,1.3492,1.3492,1.3492,1.3492,1.3492,1.3492,2.2978,2.2978,2.2324,2.1636,2.1006,2.0308,2.0092,2.027,2.0729,2.0977,2.1192,2.197,2.1856,2.1222,2.1296,2.1164,2.0761,1.9669,1.9262,1.9477,1.9117,1.8931,1.9075,1.9131,1.9131,1.911,1.893,1.8578,1.7967,1.7298,1.6688,1.6357,1.6346,1.6325,1.6217,1.6019,1.594,1.5683,1.4657,1.4276,1.4348,1.4327,1.4116,1.4003,1.4505,1.4667,1.4206,1.3984,1.3819,1.3685,1.3362,1.3271,1.3462,1.371,1.371,1.3492,1.3492,1.3492,1.3492,1.3492,1.3492,1.3492,1.3492,1.3492,1.3492,1.3492,1.3492,1.3492,1.3492,1.3492,1.3492,1.3492,1.3492,1.3492,1.3492,1.3492,1.3492,1.3492,1.3492,1.3492,1.3492,1.3492,1.3492,1.3492,1.3492,1.3521,1.377,1.3989,1.4026,1.4231,1.4421,1.434,1.3909,1.3682,1.3616,1.3536,1.3514,1.3492,1.3492,1.3492,1.3492,1.3492,1.3492,1.3492,1.3492,1.3492,1.3492,1.3492,1.3492,1.3492,1.3492,1.3492,1.3492,1.3492,1.3492,2.2978,2.2947,2.2049,2.1827,2.2044,2.1033,2.0899,2.1277,2.1407,2.1668,2.2153,2.2297,2.2552,2.2832,2.2241,2.2362,2.2577,2.0746,2.0234,2.0669,1.9617,1.9065,1.9131,1.9131,1.9065,1.8982,1.864,1.7956,1.7031,1.7062,1.6847,1.6397,1.6838,1.7069,1.6976,1.7256,1.7255,1.6609,1.5999,1.5457,1.4919,1.4833,1.43,1.3562,1.383,1.383,1.3241,1.3415,1.3684,1.4024,1.3675,1.3584,1.3556,1.4137,1.4137,1.3637,1.3492,1.3492,1.3492,1.3492,1.3492,1.3492,1.3492,1.3492,1.3492,1.3492,1.3492,1.3492,1.3492,1.3492,1.3492,1.3492,1.3492,1.3492,1.3492,1.3492,1.3492,1.3492,1.3492,1.3492,1.3492,1.3492,1.3492,1.3492,1.3521,1.3594,1.3799,1.4048,1.4128,1.4326,1.4399,1.4209,1.404,1.3953,1.3923,1.3675,1.3506,1.3492,1.3492,1.3492,1.3492,1.3492,1.3492,1.3492,1.3492,1.3492,1.3492,1.3492,1.3492,1.3492,1.3492,1.3492,1.3492,1.3499,1.3543,2.3112,2.3157,2.2466,2.2461,2.2794,2.2051,2.1821,2.2061,2.24,2.2459,2.238,2.2686,2.289,2.3053,2.2502,2.2364,2.2396,2.0801,2.0284,2.0427,1.9576,1.9131,1.9131,1.9131,1.8889,1.863,1.8464,1.7853,1.702,1.7042,1.691,1.6779,1.7124,1.7346,1.7357,1.7284,1.7222,1.7181,1.6951,1.6445,1.567,1.498,1.435,1.3941,1.4231,1.4103,1.3321,1.3442,1.3442,1.3372,1.3523,1.3774,1.4117,1.3992,1.3783,1.3564,1.3492,1.3492,1.3492,1.3492,1.3492,1.3492,1.3492,1.3492,1.3492,1.3492,1.3492,1.3492,1.3492,1.3492,1.3492,1.3492,1.3492,1.3492,1.3492,1.3492,1.3492,1.3492,1.3492,1.3492,1.3492,1.3492,1.3528,1.3675,1.3799,1.385,1.4253,1.4523,1.464,1.4867,1.4933,1.4648,1.4421,1.4216,1.3982,1.3704,1.3499,1.3492,1.3492,1.3492,1.3492,1.3492,1.3492,1.3558,1.355,1.3492,1.3492,1.3492,1.3492,1.3499,1.3499,1.3565,1.3492,1.366,1.3762,2.3201,2.3216,2.274,2.293,2.3455,2.286,2.2879,2.3178,2.3389,2.3232,2.2974,2.3034,2.3125,2.3075,2.2736,2.2585,2.2371,2.0934,2.0335,2.0455,1.9576,1.9131,1.911,1.8986,1.8682,1.8392,1.8226,1.7771,1.7051,1.7215,1.7287,1.7205,1.7675,1.79,1.7782,1.758,1.7526,1.7654,1.7772,1.7369,1.6268,1.4869,1.4252,1.4333,1.4303,1.3992,1.339,1.345,1.3512,1.3453,1.3737,1.4258,1.4838,1.4497,1.4,1.3572,1.3637,1.3637,1.3492,1.3492,1.3492,1.3492,1.3492,1.3492,1.3492,1.3492,1.3492,1.3492,1.3492,1.3492,1.3492,1.3492,1.3492,1.3492,1.3492,1.3492,1.3492,1.3492,1.3492,1.3492,1.3492,1.3492,1.3528,1.3792,1.3938,1.3989,1.4538,1.4831,1.4896,1.5204,1.5313,1.4999,1.475,1.4421,1.4172,1.3923,1.3653,1.3609,1.3579,1.355,1.3514,1.3506,1.3616,1.3653,1.3616,1.3528,1.3492,1.3492,1.3514,1.3528,1.3638,1.3748,1.3806,1.3938,1.3979,2.3319,2.3319,2.2904,2.3383,2.4116,2.3669,2.3956,2.4682,2.4205,2.399,2.3826,2.3365,2.3125,2.3113,2.3062,2.3088,2.2722,2.1183,2.0614,2.0853,1.9694,1.9131,1.911,1.864,1.8361,1.8226,1.7916,1.7441,1.6919,1.7636,1.7938,1.8005,1.8395,1.8578,1.8509,1.8208,1.8133,1.8103,1.8475,1.8009,1.6515,1.4648,1.4005,1.44,1.3944,1.345,1.3042,1.3329,1.365,1.4097,1.4453,1.5035,1.5607,1.5655,1.5086,1.3855,1.384,1.3848,1.3564,1.3492,1.3492,1.3492,1.3492,1.3492,1.3492,1.3492,1.3492,1.3492,1.3492,1.3492,1.3492,1.3492,1.3492,1.3492,1.3492,1.3492,1.3492,1.3492,1.3492,1.3499,1.3528,1.3514,1.3579,1.3887,1.4114,1.4231,1.4611,1.5006,1.5035,1.5262,1.5255,1.4961,1.4867,1.464,1.4406,1.4187,1.3938,1.374,1.3704,1.3675,1.3609,1.3601,1.4018,1.4121,1.3923,1.3828,1.3682,1.3689,1.3733,1.3777,1.3879,1.3906,1.3841,1.3887,1.4066,2.3791,2.4164,2.4013,2.4616,2.556,2.5311,2.5422,2.5635,2.5012,2.445,2.4047,2.3365,2.3125,2.3125,2.3125,2.3125,2.2992,2.1575,2.0911,2.0858,1.9715,1.9131,1.8971,1.8589,1.805,1.7522,1.7265,1.7131,1.7133,1.7842,1.8253,1.8346,1.8649,1.8798,1.8875,1.8259,1.7988,1.8144,1.7794,1.7107,1.616,1.4959,1.4328,1.4184,1.3769,1.345,1.339,1.345,1.3697,1.4136,1.4473,1.5026,1.5643,1.5805,1.53,1.4425,1.3855,1.363,1.3564,1.3492,1.3492,1.3492,1.3492,1.3492,1.3492,1.3492,1.3492,1.3492,1.3492,1.3492,1.3492,1.3492,1.3492,1.3492,1.3492,1.3492,1.3492,1.3492,1.3492,1.3528,1.3748,1.3916,1.4026,1.4318,1.4575,1.4618,1.4984,1.5248,1.5292,1.5335,1.5292,1.4932,1.4926,1.4853,1.4589,1.4465,1.4377,1.4157,1.4048,1.3945,1.3843,1.3901,1.4318,1.4479,1.4289,1.403,1.3953,1.3841,1.3831,1.3947,1.4084,1.3917,1.3698,1.3766,1.3895,2.397,2.4567,2.4552,2.5218,2.6263,2.6159,2.6221,2.6254,2.5646,2.5021,2.4394,2.3767,2.3305,2.3138,2.3125,2.3125,2.3017,2.1928,2.1376,2.0933,1.9715,1.9058,1.8744,1.8154,1.7636,1.7142,1.7152,1.7388,1.7574,1.8247,1.864,1.8702,1.8864,1.8942,1.9008,1.8327,1.7988,1.7862,1.7038,1.6296,1.5928,1.5418,1.4846,1.4333,1.3785,1.3536,1.3511,1.3511,1.3691,1.4136,1.4718,1.5334,1.5762,1.5805,1.5443,1.4713,1.4145,1.3783,1.3564,1.3492,1.3492,1.3492,1.3492,1.3492,1.3492,1.3492,1.3492,1.3492,1.3492,1.3492,1.3492,1.3492,1.3492,1.3492,1.3492,1.3492,1.3492,1.3492,1.3492,1.3572,1.3857,1.4223,1.4611,1.4699,1.4867,1.4984,1.5218,1.5431,1.5431,1.5423,1.5277,1.5092,1.5167,1.5006,1.4735,1.4714,1.4779,1.4626,1.4465,1.434,1.4231,1.4256,1.4539,1.4815,1.4798,1.4123,1.3966,1.3804,1.3776,1.3995,1.4101,1.3586,1.3313,1.3512,1.3685,2.4,2.4612,2.4686,2.5414,2.6302,2.6326,2.6513,2.6669,2.6111,2.5481,2.4894,2.4292,2.3662,2.3185,2.3125,2.3125,2.2944,2.2359,2.1608,2.0842,1.9717,1.8864,1.8185,1.7522,1.71,1.7059,1.741,1.7905,1.8237,1.8733,1.9131,1.909,1.9034,1.9065,1.9008,1.8539,1.7988,1.7373,1.6421,1.585,1.5833,1.5754,1.5394,1.4667,1.3922,1.345,1.3398,1.3398,1.3585,1.4132,1.5087,1.572,1.5805,1.5805,1.5443,1.4784,1.4425,1.3992,1.3637,1.3492,1.3492,1.3492,1.3492,1.3492,1.3492,1.3492,1.3492,1.3492,1.3492,1.3492,1.3492,1.3492,1.3492,1.3492,1.3492,1.3492,1.3492,1.3492,1.3492,1.3558,1.3887,1.4428,1.5131,1.5094,1.4984,1.505,1.5262,1.5394,1.5431,1.5431,1.5431,1.5394,1.5335,1.524,1.4992,1.5028,1.5079,1.4999,1.4867,1.4772,1.4677,1.47,1.4787,1.5043,1.505,1.4452,1.4106,1.4092,1.394,1.3943,1.3703,1.3123,1.3067,1.3304,1.3024,2.4701,2.539,2.5869,2.6508,2.716,2.7018,2.6953,2.6959,2.6272,2.5591,2.4951,2.435,2.378,2.3138,2.3138,2.3125,2.2907,2.2408,2.1481,2.0607,1.975,1.8521,1.7573,1.7181,1.6987,1.7059,1.7522,1.7957,1.8392,1.8858,1.9131,1.9131,1.9131,1.9131,1.8998,1.8596,1.7998,1.7304,1.6351,1.5805,1.5735,1.5805,1.5437,1.4701,1.3939,1.3441,1.3164,1.2911,1.3222,1.4105,1.518,1.5805,1.5735,1.5735,1.5584,1.53,1.4353,1.3848,1.3848,1.3637,1.3492,1.3492,1.3492,1.3492,1.3492,1.3492,1.3492,1.3492,1.3492,1.3492,1.3492,1.3492,1.3492,1.3492,1.3492,1.3492,1.3492,1.3492,1.3492,1.3528,1.3814,1.4435,1.4948,1.5131,1.5006,1.5204,1.5313,1.5423,1.5416,1.5431,1.5431,1.5431,1.5401,1.5379,1.5343,1.5365,1.5372,1.5328,1.518,1.5143,1.5092,1.5204,1.5173,1.5389,1.5151,1.4657,1.4703,1.477,1.4465,1.3707,1.3629,1.3207,1.2999,1.3014,1.2413,2.5016,2.5659,2.6318,2.6976,2.7444,2.7335,2.7233,2.7041,2.6606,2.5988,2.537,2.4738,2.4118,2.3543,2.3258,2.3,2.2752,2.2344,2.156,2.0367,1.9264,1.8098,1.7207,1.6891,1.6953,1.7286,1.7533,1.8081,1.8609,1.8951,1.9121,1.9131,1.9131,1.9131,1.9065,1.8529,1.792,1.7235,1.6551,1.6,1.5363,1.5655,1.5171,1.4504,1.3861,1.353,1.287,1.2605,1.3003,1.3975,1.4612,1.4969,1.5267,1.5007,1.5007,1.5229,1.4425,1.3992,1.3775,1.3637,1.3492,1.3492,1.3492,1.3492,1.3492,1.3492,1.3492,1.3492,1.3492,1.3492,1.3492,1.3492,1.3492,1.3492,1.3492,1.3492,1.3492,1.3492,1.3492,1.3572,1.3799,1.407,1.4626,1.4655,1.4904,1.5094,1.5116,1.5255,1.5372,1.5409,1.5347,1.5347,1.5347,1.5242,1.497,1.4901,1.4824,1.4894,1.4734,1.4838,1.5097,1.518,1.5228,1.5206,1.5061,1.4956,1.4752,1.4379,1.3432,1.2946,1.3203,1.313,1.2705,1.254,1.186,2.5106,2.5779,2.6422,2.6986,2.7408,2.7386,2.7248,2.7093,2.6937,2.6553,2.5825,2.5245,2.45,2.3981,2.3301,2.2849,2.2347,2.228,2.1473,2.0203,1.8768,1.7556,1.7105,1.6591,1.6922,1.7482,1.7668,1.8247,1.8806,1.9054,1.9075,1.9008,1.8998,1.9008,1.8865,1.8395,1.7706,1.701,1.6603,1.5842,1.5037,1.5105,1.4726,1.3939,1.3607,1.3275,1.2679,1.246,1.2869,1.4049,1.38,1.4142,1.4522,1.392,1.3848,1.4353,1.4353,1.4065,1.371,1.3564,1.3492,1.3492,1.3492,1.3492,1.3492,1.3492,1.3492,1.3492,1.3492,1.3492,1.3492,1.3492,1.3492,1.3492,1.3492,1.3492,1.3492,1.3492,1.3492,1.3499,1.377,1.3748,1.3762,1.4011,1.4553,1.4992,1.5021,1.5123,1.5299,1.5416,1.5264,1.509,1.509,1.509,1.4741,1.4405,1.4314,1.4146,1.3984,1.399,1.4594,1.4755,1.4873,1.4851,1.4413,1.4115,1.3881,1.3239,1.2559,1.2328,1.2638,1.2157,1.1596,1.1774,1.1435,2.5794,2.6437,2.7096,2.744,2.7524,2.7452,2.735,2.7299,2.7107,2.6645,2.6028,2.5342,2.4426,2.3433,2.3267,2.2824,2.2297,2.2113,2.1465,1.9825,1.8148,1.7387,1.7048,1.6509,1.6773,1.7421,1.7606,1.8089,1.8802,1.8942,1.8865,1.8875,1.8741,1.8617,1.8539,1.7969,1.7276,1.6664,1.6079,1.535,1.4561,1.426,1.401,1.3478,1.2956,1.2508,1.2235,1.1934,1.2315,1.3197,1.3973,1.4266,1.4411,1.392,1.3637,1.371,1.3783,1.3783,1.3848,1.3637,1.3492,1.3492,1.3492,1.3492,1.3492,1.3492,1.3492,1.3492,1.3492,1.3492,1.3492,1.3492,1.3492,1.3492,1.3492,1.3492,1.3492,1.3492,1.3492,1.3514,1.3572,1.3587,1.3543,1.3872,1.434,1.4779,1.4955,1.5013,1.5114,1.5325,1.5006,1.4664,1.458,1.4496,1.4153,1.3724,1.347,1.33,1.3052,1.2973,1.3574,1.3808,1.3756,1.3703,1.349,1.3291,1.3291,1.3054,1.2433,1.2204,1.1985,1.1781,1.1649,1.1413,1.1267,2.6258,2.6662,2.734,2.756,2.7575,2.7524,2.7452,2.7401,2.7262,2.6922,2.6418,2.5797,2.4984,2.4043,2.369,2.3005,2.1964,2.133,2.0501,1.9341,1.8141,1.7501,1.7121,1.6707,1.6758,1.7492,1.7769,1.8185,1.8645,1.8741,1.8674,1.8674,1.8539,1.8549,1.8347,1.7482,1.6734,1.604,1.5272,1.4455,1.37,1.3721,1.3431,1.3068,1.234,1.1879,1.1809,1.1685,1.1944,1.2583,1.3314,1.3986,1.4356,1.3928,1.3564,1.3492,1.3492,1.3564,1.371,1.363,1.3492,1.3492,1.3492,1.3492,1.3492,1.3492,1.3492,1.3492,1.3492,1.3492,1.3492,1.3492,1.3492,1.3492,1.3492,1.3492,1.3492,1.3492,1.3492,1.3528,1.3653,1.3755,1.3865,1.3996,1.4333,1.4853,1.478,1.4852,1.4655,1.4664,1.4405,1.4068,1.3899,1.373,1.3476,1.3045,1.2625,1.2369,1.2112,1.2118,1.2295,1.2345,1.2304,1.2439,1.2584,1.294,1.2928,1.2589,1.223,1.1729,1.1528,1.1708,1.1712,1.1419,1.1267,2.6744,2.6782,2.7335,2.756,2.756,2.756,2.7524,2.7437,2.7401,2.7248,2.6893,2.6279,2.5299,2.4761,2.3936,2.2819,2.1534,2.0602,1.9887,1.923,1.841,1.7809,1.73,1.6921,1.6729,1.7338,1.7721,1.8132,1.8318,1.8442,1.8402,1.8402,1.8405,1.8269,1.7988,1.7055,1.5989,1.5257,1.4336,1.3638,1.2862,1.3132,1.2937,1.2485,1.1989,1.1692,1.1622,1.1645,1.1743,1.208,1.2284,1.3104,1.3866,1.392,1.3492,1.3492,1.3492,1.3492,1.3564,1.3492,1.3492,1.3492,1.3492,1.3492,1.3492,1.3492,1.3492,1.3492,1.3492,1.3492,1.3492,1.3492,1.3492,1.3492,1.3492,1.3492,1.3492,1.3492,1.3492,1.3521,1.3631,1.3748,1.3975,1.4172,1.4538,1.475,1.4663,1.4588,1.4407,1.4062,1.3724,1.3476,1.3307,1.2881,1.2625,1.2454,1.2032,1.186,1.1521,1.1521,1.1521,1.1591,1.1735,1.1718,1.1878,1.2213,1.2251,1.1888,1.1467,1.1066,1.1109,1.1409,1.1423,1.1338,1.1262,2.7261,2.741,2.758,2.756,2.756,2.756,2.7575,2.7524,2.7437,2.7299,2.7004,2.5873,2.5071,2.4245,2.3107,2.1957,2.1167,2.0489,2.011,1.9497,1.8685,1.7972,1.7678,1.7127,1.6778,1.6737,1.7276,1.782,1.8021,1.8175,1.8138,1.7893,1.8044,1.7852,1.7086,1.6082,1.5189,1.4402,1.3437,1.2735,1.2676,1.2417,1.2315,1.1911,1.1659,1.163,1.1622,1.1652,1.1831,1.2314,1.197,1.2505,1.3368,1.352,1.3492,1.3492,1.3492,1.3492,1.3492,1.3492,1.3492,1.3492,1.3492,1.3492,1.3492,1.3492,1.3492,1.3492,1.3492,1.3492,1.3492,1.3492,1.3492,1.3492,1.3492,1.3492,1.3492,1.3492,1.3492,1.3506,1.3601,1.3681,1.3798,1.4023,1.4294,1.4434,1.4307,1.4344,1.4434,1.375,1.2966,1.2796,1.2711,1.2203,1.1693,1.1693,1.1521,1.1521,1.1348,1.1348,1.1354,1.1354,1.1338,1.1402,1.1364,1.1503,1.1352,1.1207,1.1174,1.1063,1.1095,1.1133,1.1187,1.1166,1.1235,2.7011,2.6942,2.7261,2.7282,2.716,2.749,2.7575,2.7488,2.7437,2.7299,2.699,2.6416,2.5735,2.4969,2.4231,2.2876,2.1361,2.0401,2.0087,1.9604,1.8963,1.8321,1.7963,1.7417,1.6915,1.6729,1.7024,1.7397,1.7615,1.7747,1.777,1.7917,1.793,1.7552,1.6646,1.5769,1.4689,1.3707,1.2749,1.2233,1.2204,1.1889,1.177,1.1681,1.1622,1.1622,1.1622,1.1622,1.1692,1.1948,1.205,1.2409,1.2899,1.3316,1.3492,1.3492,1.3492,1.3492,1.3492,1.3492,1.3492,1.3492,1.3492,1.3492,1.3492,1.3492,1.3492,1.3492,1.3492,1.3492,1.3492,1.3492,1.3492,1.3492,1.3492,1.3492,1.3492,1.3492,1.3499,1.3565,1.3901,1.3856,1.3425,1.3666,1.4019,1.4022,1.385,1.4011,1.4206,1.3423,1.2454,1.2203,1.2032,1.1866,1.144,1.1354,1.1267,1.1267,1.1267,1.1267,1.1267,1.1267,1.1267,1.1343,1.1214,1.1171,1.1182,1.1252,1.1198,1.1149,1.1171,1.1176,1.1144,1.1165,1.1118,2.6773,2.6363,2.6811,2.6885,2.6793,2.719,2.7405,2.7437,2.7386,2.7248,2.7026,2.6879,2.6457,2.5753,2.4764,2.3332,2.131,2.0238,1.9861,1.9708,1.9186,1.8655,1.8098,1.7586,1.7063,1.6407,1.6557,1.6888,1.7037,1.7243,1.7402,1.7402,1.7598,1.7121,1.6051,1.5248,1.422,1.3178,1.2447,1.2034,1.1987,1.1926,1.1802,1.1747,1.1677,1.1622,1.1622,1.1622,1.1755,1.1889,1.2109,1.2431,1.2753,1.3221,1.3484,1.3492,1.3492,1.3492,1.3492,1.3492,1.3492,1.3492,1.3492,1.3492,1.3492,1.3492,1.3492,1.3492,1.3492,1.3492,1.3492,1.3492,1.3492,1.3492,1.3492,1.3499,1.3528,1.355,1.3579,1.3792,1.4223,1.4102,1.3574,1.322,1.3566,1.3682,1.351,1.3458,1.3528,1.2814,1.2032,1.1607,1.144,1.144,1.1354,1.1354,1.1267,1.1267,1.1267,1.1267,1.1267,1.1267,1.1257,1.123,1.1262,1.1235,1.1262,1.1235,1.1134,1.1171,1.1214,1.1149,1.0988,1.0845,1.0783,2.7243,2.6804,2.6439,2.6627,2.7024,2.6841,2.7066,2.7515,2.7423,2.7335,2.71,2.6498,2.6145,2.5446,2.3676,2.2096,2.0942,2.0162,1.9798,1.9695,1.9291,1.8697,1.7972,1.7301,1.6889,1.6308,1.6184,1.6128,1.6341,1.665,1.666,1.6602,1.6683,1.6186,1.5085,1.4608,1.3516,1.2428,1.2367,1.2699,1.3033,1.2842,1.2528,1.2274,1.1919,1.1622,1.1622,1.1645,1.1758,1.2226,1.1904,1.2306,1.314,1.3418,1.3484,1.3492,1.3492,1.3492,1.3492,1.3492,1.3492,1.3492,1.3492,1.3492,1.3492,1.3492,1.3492,1.3492,1.3492,1.3492,1.3492,1.3492,1.3492,1.3492,1.3492,1.3492,1.3514,1.3718,1.3733,1.3885,1.4292,1.4136,1.3783,1.3343,1.308,1.3174,1.3143,1.3083,1.2832,1.2123,1.1774,1.1435,1.1267,1.1267,1.1219,1.1225,1.1182,1.1203,1.1166,1.1187,1.123,1.1214,1.1177,1.1166,1.1187,1.108,1.0851,1.0905,1.099,1.0916,1.0643,1.0605,1.0719,1.0534,1.0121,2.6552,2.6094,2.6062,2.6205,2.6448,2.6561,2.6819,2.7169,2.7259,2.7196,2.7049,2.6777,2.6174,2.5149,2.3239,2.1917,2.1068,2.0205,1.9811,1.9798,1.95,1.9133,1.8643,1.8213,1.7611,1.656,1.6343,1.61,1.6049,1.6194,1.6432,1.6393,1.6176,1.5615,1.4525,1.4199,1.3438,1.2891,1.2969,1.3381,1.3381,1.3147,1.2773,1.2512,1.1919,1.1622,1.1622,1.163,1.1765,1.2167,1.2058,1.2328,1.2906,1.3243,1.3492,1.3492,1.3492,1.3492,1.3492,1.3492,1.3492,1.3492,1.3492,1.3492,1.3492,1.3492,1.3492,1.3492,1.3492,1.3492,1.3492,1.3492,1.3492,1.3492,1.3492,1.3492,1.3558,1.3821,1.3996,1.4168,1.4337,1.4264,1.4083,1.3635,1.3046,1.2366,1.2289,1.2129,1.2049,1.1693,1.1435,1.1354,1.1267,1.1267,1.1193,1.123,1.1106,1.1069,1.0923,1.0988,1.1113,1.1139,1.1117,1.0904,1.0813,1.0653,1.0454,1.0585,1.0836,1.0435,1.0024,0.9771,0.9526,0.8992,0.8751,2.599,2.5696,2.5774,2.5853,2.5932,2.6321,2.6663,2.6922,2.719,2.7181,2.6982,2.6732,2.6029,2.4897,2.334,2.2153,2.1316,2.0399,1.999,1.985,1.9747,1.9436,1.9028,1.8774,1.8159,1.6888,1.6729,1.6306,1.5888,1.5871,1.6186,1.6325,1.5913,1.5228,1.4489,1.4188,1.3812,1.3319,1.3761,1.4043,1.3983,1.3381,1.3078,1.2589,1.2097,1.1622,1.1622,1.1622,1.1721,1.2021,1.2328,1.257,1.2936,1.3279,1.3477,1.3492,1.3492,1.3492,1.3492,1.3492,1.3492,1.3492,1.3492,1.3492,1.3492,1.3492,1.3492,1.3492,1.3492,1.3492,1.3492,1.3492,1.3492,1.3492,1.3492,1.3492,1.3543,1.3814,1.4273,1.4709,1.4813,1.4698,1.4496,1.3981,1.3203,1.1935,1.1435,1.1343,1.1316,1.1289,1.1316,1.1219,1.123,1.1219,1.116,1.1079,1.0972,1.0853,1.0702,1.0702,1.0824,1.0912,1.0789,1.0584,1.03,1.0009,0.9745,1.0172,1.0502,0.9577,0.8779,0.8462,0.8078,0.7632,0.7367,2.6168,2.6132,2.5696,2.5686,2.592,2.6143,2.6335,2.6672,2.716,2.7255,2.7056,2.6338,2.5624,2.4704,2.3602,2.2351,2.1342,2.0807,2.0258,1.9901,1.9747,1.9488,1.9186,1.8869,1.8321,1.7224,1.6955,1.6457,1.5846,1.5673,1.5674,1.5459,1.5425,1.5034,1.4621,1.4357,1.4459,1.4154,1.446,1.4706,1.4588,1.4043,1.3381,1.3086,1.229,1.1622,1.1622,1.1622,1.175,1.2065,1.2248,1.2789,1.3155,1.3382,1.3492,1.3492,1.3492,1.347,1.3433,1.3462,1.3492,1.3492,1.3492,1.3492,1.3492,1.3492,1.3492,1.3492,1.3492,1.3492,1.3492,1.3492,1.3492,1.3492,1.3492,1.3492,1.3579,1.3806,1.4273,1.504,1.5076,1.4786,1.4137,1.3556,1.3224,1.206,1.1401,1.131,1.1165,1.1144,1.1225,1.1214,1.109,1.1025,1.0977,1.0875,1.0735,1.0632,1.0519,1.0514,1.0606,1.0541,1.0449,0.9785,0.9448,0.9173,0.9067,0.9412,0.9285,0.8306,0.7664,0.7446,0.7081,0.6567,0.6383,2.6203,2.6168,2.599,2.581,2.5662,2.5637,2.5923,2.6365,2.6692,2.6893,2.7034,2.6185,2.5459,2.469,2.366,2.2505,2.1439,2.0841,2.0334,1.9965,1.9747,1.9643,1.9448,1.9239,1.8857,1.7929,1.739,1.6775,1.6151,1.57,1.5478,1.5362,1.5118,1.4775,1.4538,1.4588,1.4706,1.5001,1.4991,1.5059,1.4588,1.4052,1.3321,1.2818,1.2166,1.1622,1.1622,1.1622,1.1867,1.2116,1.2072,1.2606,1.3243,1.3382,1.3418,1.344,1.344,1.3375,1.3272,1.3345,1.3484,1.3492,1.3492,1.3484,1.3477,1.3492,1.3492,1.3492,1.3492,1.3492,1.3492,1.3492,1.3492,1.3492,1.3492,1.3492,1.3587,1.3784,1.3932,1.4418,1.4558,1.4467,1.3675,1.2885,1.2609,1.2257,1.1753,1.1259,1.1098,1.0955,1.1015,1.1036,1.0912,1.0821,1.0767,1.0632,1.0482,1.0322,1.0247,1.0158,1.0152,1.0113,0.994,0.9224,0.8453,0.813,0.8108,0.8387,0.799,0.7092,0.6745,0.6631,0.6119,0.5625,0.5392,2.6203,2.6203,2.6203,2.5937,2.554,2.5676,2.5944,2.6244,2.6654,2.6692,2.6718,2.5893,2.5168,2.4447,2.3545,2.2462,2.1539,2.0993,2.0396,2.0042,1.9798,1.9798,1.9747,1.9488,1.9016,1.8352,1.7699,1.6989,1.5911,1.5584,1.5468,1.5294,1.5001,1.4883,1.4824,1.4765,1.5001,1.5294,1.5352,1.5108,1.4519,1.3683,1.3139,1.2512,1.1919,1.1622,1.1622,1.1637,1.1736,1.1948,1.2072,1.2321,1.2811,1.3155,1.3148,1.3206,1.3258,1.3184,1.3038,1.3038,1.325,1.3279,1.3316,1.3375,1.3462,1.3492,1.3492,1.3492,1.3492,1.3492,1.3492,1.3492,1.3492,1.3492,1.3492,1.3492,1.3528,1.366,1.3623,1.3763,1.3874,1.3895,1.3034,1.2261,1.1891,1.1655,1.121,1.0929,1.0958,1.0746,1.0658,1.0664,1.0702,1.0627,1.0552,1.0295,0.999,0.9715,0.9643,0.9581,0.9611,0.9539,0.9003,0.7944,0.7334,0.7092,0.6972,0.7032,0.6613,0.5873,0.5712,0.5646,0.5254,0.4776,0.4543,2.6253,2.6203,2.627,2.602,2.581,2.6471,2.6611,2.6367,2.6973,2.6926,2.6232,2.5325,2.4588,2.3978,2.3317,2.2522,2.1712,2.1369,2.0832,2.0105,1.985,1.9798,1.9759,1.9552,1.9016,1.7918,1.7368,1.6765,1.5575,1.5468,1.541,1.542,1.5294,1.5235,1.5352,1.5352,1.541,1.541,1.542,1.5059,1.4282,1.3442,1.2895,1.2282,1.1856,1.1622,1.1622,1.1622,1.1684,1.1794,1.197,1.2226,1.2599,1.2533,1.2497,1.2541,1.284,1.2819,1.2584,1.2562,1.2716,1.3023,1.3133,1.3221,1.3418,1.3492,1.3492,1.3492,1.3492,1.3492,1.3492,1.3492,1.3492,1.3339,1.3339,1.3346,1.3309,1.3323,1.3302,1.3368,1.3353,1.3131,1.2346,1.1593,1.1215,1.0935,1.0589,1.0526,1.0654,1.0567,1.037,1.0354,1.0412,1.0137,0.9959,0.9864,0.9585,0.9251,0.9099,0.9084,0.8932,0.8708,0.794,0.678,0.6553,0.6479,0.6096,0.564,0.5318,0.5004,0.4849,0.4623,0.4311,0.4157,0.4079,2.7214,2.7644,2.7644,2.7552,2.7367,2.6872,2.6725,2.6719,2.6628,2.64,2.607,2.5238,2.45,2.3963,2.3583,2.2898,2.1996,2.1465,2.093,2.0372,1.9965,1.985,1.9759,1.9537,1.9052,1.8255,1.76,1.6987,1.6026,1.5682,1.543,1.542,1.542,1.542,1.542,1.542,1.541,1.541,1.5294,1.4932,1.3923,1.3199,1.2597,1.1973,1.1677,1.1622,1.1622,1.1622,1.1633,1.1743,1.1919,1.2014,1.2358,1.2336,1.2211,1.2116,1.2241,1.2387,1.2175,1.2116,1.2277,1.2687,1.2994,1.3126,1.3433,1.3484,1.3492,1.3492,1.3492,1.3492,1.3492,1.3492,1.3346,1.2966,1.282,1.2826,1.284,1.2914,1.2907,1.3127,1.32,1.2378,1.159,1.11,1.0695,1.0583,1.0301,1.0158,1.0218,1.0148,1.0023,1.0023,1.0007,0.9684,0.9392,0.8803,0.8546,0.8165,0.8318,0.8542,0.8318,0.7949,0.7176,0.6093,0.6022,0.5948,0.5479,0.4932,0.4465,0.4153,0.4229,0.4307,0.4231,0.4155,0.4079,2.7516,2.8362,2.8146,2.8329,2.8566,2.7727,2.7295,2.7071,2.6347,2.5839,2.5355,2.4786,2.4167,2.3702,2.3482,2.2979,2.1969,2.1575,2.0881,2.0409,2.0003,1.9798,1.9693,1.9698,1.9365,1.8721,1.8059,1.7453,1.6543,1.5929,1.5615,1.5459,1.542,1.542,1.542,1.542,1.5235,1.5235,1.5059,1.4628,1.3494,1.265,1.2174,1.1802,1.1622,1.1622,1.1622,1.1659,1.1655,1.1758,1.178,1.1821,1.2087,1.2131,1.1977,1.178,1.1765,1.1984,1.197,1.1772,1.2028,1.2511,1.2745,1.306,1.3375,1.3484,1.3492,1.3492,1.3492,1.3339,1.3266,1.3273,1.29,1.2452,1.2305,1.2305,1.2378,1.2378,1.2452,1.2746,1.2526,1.1706,1.0968,1.0598,1.0198,1.0176,1.0073,0.9997,0.9954,0.9938,0.9922,0.9933,0.9787,0.9509,0.8665,0.7411,0.7165,0.7084,0.7391,0.7774,0.7553,0.7103,0.6254,0.5637,0.5559,0.5401,0.4854,0.4387,0.4231,0.4075,0.3995,0.4073,0.4151,0.4153,0.3999,2.7147,2.8262,2.7715,2.8257,2.922,2.8818,2.806,2.7178,2.6332,2.5311,2.4151,2.401,2.3586,2.3047,2.2946,2.2445,2.1623,2.1431,2.0795,2.0144,1.9862,1.9733,1.984,1.99,1.9471,1.9102,1.848,1.7509,1.6964,1.6168,1.5644,1.5488,1.542,1.542,1.542,1.5235,1.5001,1.4883,1.4697,1.4154,1.313,1.2343,1.2166,1.1988,1.1864,1.1802,1.174,1.1692,1.1637,1.1597,1.1645,1.1637,1.1652,1.1637,1.1622,1.163,1.1652,1.1758,1.1867,1.1655,1.178,1.2197,1.2431,1.2862,1.3272,1.3492,1.3492,1.3492,1.3492,1.3119,1.2826,1.2532,1.2305,1.2009,1.1713,1.1706,1.1781,1.1855,1.1929,1.1929,1.1706,1.1186,1.0669,1.0273,1.0008,0.9992,0.9986,0.997,0.9933,0.9933,0.9922,0.9922,0.9776,0.9468,0.8389,0.7088,0.6472,0.67,0.6626,0.6853,0.6556,0.6331,0.587,0.5404,0.5093,0.4859,0.4621,0.4384,0.4151,0.4073,0.3919,0.3919,0.3997,0.3997,0.3921,2.8605,2.9847,2.9665,2.9831,2.9996,2.9118,2.8262,2.7427,2.6268,2.5065,2.4078,2.3458,2.3163,2.2902,2.2569,2.2245,2.1732,2.114,2.0709,2.0207,1.9772,1.9877,1.9834,1.9672,1.9274,1.8778,1.8084,1.7381,1.6477,1.589,1.5615,1.543,1.542,1.542,1.5294,1.4991,1.4765,1.4469,1.435,1.3803,1.3373,1.2895,1.2781,1.265,1.222,1.2158,1.2035,1.174,1.1615,1.1622,1.1622,1.1622,1.1622,1.1622,1.1622,1.1622,1.163,1.1674,1.167,1.1681,1.1684,1.1984,1.2306,1.284,1.3265,1.3462,1.3462,1.3492,1.3266,1.2826,1.2526,1.2231,1.1855,1.1484,1.126,1.1186,1.1186,1.126,1.1335,1.1335,1.1111,1.0738,1.0293,1.0154,0.996,0.9933,0.9922,0.9922,0.9922,0.9922,0.9922,0.9922,0.9765,0.9539,0.8623,0.7395,0.6703,0.624,0.6163,0.6012,0.5709,0.5559,0.5404,0.5171,0.4859,0.4701,0.4621,0.4387,0.4075,0.3919,0.3841,0.3841,0.3841,0.3841,0.3841,2.8953,3.0336,3.0129,3.012,3.0156,2.9528,2.8633,2.7442,2.5948,2.4805,2.4031,2.3514,2.3279,2.3308,2.3001,2.2437,2.1684,2.1091,2.051,1.9862,1.9654,1.9621,1.957,1.9376,1.9102,1.8511,1.7927,1.7253,1.6417,1.5723,1.542,1.542,1.542,1.542,1.5294,1.5118,1.4834,1.435,1.3992,1.3571,1.3511,1.3511,1.3381,1.3078,1.2581,1.2274,1.2151,1.174,1.1615,1.1622,1.1622,1.1622,1.1622,1.1622,1.1622,1.1622,1.1622,1.163,1.1652,1.1645,1.1677,1.1867,1.2153,1.2548,1.2987,1.3265,1.3389,1.3492,1.2973,1.2599,1.2224,1.1929,1.1484,1.1037,1.0812,1.0663,1.0588,1.0594,1.0669,1.0743,1.0519,1.0143,0.9922,0.9922,0.9922,0.9922,0.9922,0.9922,0.9922,0.9922,0.9922,0.9922,0.9765,0.9614,0.8618,0.7778,0.693,0.6163,0.5631,0.5401,0.5018,0.5018,0.5093,0.4935,0.4701,0.4543,0.4467,0.4233,0.3999,0.3843,0.3841,0.3841,0.3841,0.3841,0.3841,2.8506,3.0319,2.965,2.9707,2.9968,2.9826,2.8876,2.7303,2.5597,2.4438,2.3963,2.3804,2.3627,2.3374,2.3126,2.251,2.1745,2.1037,2.0411,1.9534,1.954,1.9597,1.9516,1.925,1.9149,1.8753,1.8084,1.7307,1.6716,1.6018,1.5439,1.5449,1.542,1.542,1.5352,1.5177,1.4883,1.4706,1.4052,1.3571,1.3631,1.3502,1.326,1.2826,1.2282,1.1802,1.174,1.1677,1.1622,1.1622,1.1622,1.1622,1.1622,1.1622,1.1622,1.1622,1.1622,1.1622,1.1622,1.1622,1.1622,1.1692,1.186,1.2153,1.2526,1.3184,1.3433,1.3266,1.2826,1.2305,1.1929,1.1484,1.1037,1.0663,1.0443,1.0443,1.0513,1.0368,1.0218,1.0293,1.0218,0.9922,0.9922,0.9922,0.9922,0.9922,0.9922,0.9922,0.9846,0.9846,0.9846,0.9846,0.9841,0.9614,0.9003,0.808,0.7084,0.6318,0.5553,0.5093,0.5018,0.4937,0.4781,0.4623,0.4465,0.4389,0.4233,0.4077,0.3921,0.3841,0.3841,0.3841,0.3841,0.3841,0.3841,2.8108,2.9585,2.988,3.0015,2.987,2.9166,2.8327,2.7257,2.5516,2.4384,2.375,2.3331,2.3054,2.3094,2.2847,2.2401,2.2163,2.1178,2.0592,2.0285,2.0089,1.9776,1.978,1.9738,1.9454,1.8742,1.8084,1.7308,1.6548,1.5881,1.5605,1.582,1.5664,1.542,1.5362,1.5128,1.4883,1.4942,1.4282,1.3932,1.4043,1.3812,1.3502,1.3381,1.3078,1.2351,1.2104,1.1802,1.1685,1.1622,1.1622,1.1622,1.1622,1.1622,1.1622,1.1622,1.1622,1.1622,1.1622,1.1622,1.1622,1.1648,1.178,1.1823,1.2204,1.3009,1.3302,1.3098,1.2746,1.215,1.1558,1.1111,1.0663,1.0443,1.0148,1.0293,1.0438,1.0218,0.9922,0.9922,0.9922,0.9922,0.9922,0.9922,0.9922,0.9922,0.9922,0.9846,0.9846,0.9771,0.9695,0.9695,0.9846,0.9614,0.9079,0.8232,0.708,0.6391,0.5705,0.5323,0.5018,0.4781,0.4545,0.4467,0.4309,0.4233,0.4155,0.3999,0.3841,0.3841,0.3841,0.3841,0.3841,0.3841,0.3841,2.8227,2.9256,2.9852,3.006,2.9842,2.9074,2.8389,2.7593,2.6109,2.4907,2.41,2.3679,2.3316,2.3226,2.3174,2.2734,2.2615,2.1602,2.1234,2.1062,2.0686,2.0322,2.0248,2.0193,1.9426,1.8709,1.7709,1.6874,1.6299,1.6201,1.6091,1.6004,1.5652,1.5468,1.5312,1.502,1.4951,1.5245,1.4519,1.4341,1.4341,1.3863,1.3373,1.3433,1.2887,1.2282,1.2104,1.174,1.1685,1.1622,1.1622,1.1622,1.1622,1.1622,1.1622,1.1622,1.1622,1.1622,1.1622,1.1622,1.1622,1.1648,1.1677,1.1699,1.1809,1.2555,1.3199,1.3057,1.3171,1.2753,1.1558,1.0962,1.0594,1.0218,1.0073,1.0073,1.0143,1.0067,0.9916,0.9922,0.9922,0.9922,0.9922,0.9922,0.9846,0.9846,0.9846,0.962,0.962,0.9544,0.9468,0.9468,0.9544,0.9387,0.8927,0.8003,0.7003,0.6314,0.578,0.5321,0.4859,0.4548,0.4311,0.4153,0.4153,0.4077,0.3999,0.3843,0.3841,0.3841,0.3841,0.3841,0.3841,0.3841,0.3841,2.8394,2.9099,2.9723,2.9946,2.9814,2.9335,2.8764,2.8117,2.6924,2.5672,2.4647,2.4455,2.402,2.3999,2.4447,2.3783,2.3118,2.2509,2.215,2.1865,2.1243,2.0949,2.0644,2.0382,1.975,1.8801,1.7709,1.7116,1.6568,1.6331,1.6046,1.585,1.5645,1.5511,1.5262,1.5156,1.5147,1.502,1.4706,1.4579,1.4154,1.3554,1.3009,1.2458,1.1973,1.1622,1.1622,1.1622,1.1622,1.1622,1.1622,1.1622,1.1622,1.1622,1.1622,1.1622,1.1622,1.1622,1.1622,1.1622,1.1622,1.163,1.1622,1.1689,1.175,1.2153,1.2797,1.3164,1.3353,1.2973,1.1861,1.0968,1.0519,1.0218,1.0073,0.9922,0.9922,0.9916,0.9916,0.9922,0.9846,0.9846,0.9846,0.9846,0.9771,0.9695,0.9544,0.9397,0.9246,0.9089,0.9013,0.8937,0.8941,0.8784,0.8546,0.7931,0.693,0.616,0.5625,0.5087,0.4701,0.4311,0.4075,0.3919,0.3921,0.3921,0.3921,0.3841,0.3841,0.3841,0.3841,0.3841,0.3841,0.3841,0.3841,2.7785,2.8923,2.961,2.9902,2.9814,2.9319,2.8779,2.8132,2.6841,2.5842,2.5214,2.4425,2.3815,2.3251,2.3956,2.3993,2.4159,2.3485,2.3554,2.35,2.2223,2.1686,2.1387,2.1033,2.0554,1.9423,1.8124,1.7272,1.684,1.6311,1.5904,1.5695,1.5286,1.5162,1.5096,1.497,1.4843,1.4647,1.4469,1.4222,1.2818,1.2336,1.2343,1.2035,1.1911,1.1677,1.1622,1.1622,1.1622,1.1622,1.1622,1.1622,1.1622,1.1622,1.1622,1.1622,1.1622,1.1622,1.1622,1.1611,1.1633,1.1641,1.1655,1.1684,1.1845,1.2072,1.264,1.3187,1.3273,1.3046,1.215,1.1335,1.0812,1.0519,1.0293,1.0073,0.9922,0.9922,0.9922,0.9841,0.9841,0.9765,0.9695,0.962,0.9392,0.9316,0.9084,0.8937,0.8946,0.8789,0.8556,0.8479,0.8408,0.8174,0.8012,0.7783,0.6938,0.6167,0.5392,0.4854,0.4387,0.4153,0.3919,0.3841,0.3841,0.3841,0.3841,0.3841,0.3841,0.3841,0.3841,0.3841,0.3841,0.3841,0.3841]}]]